[[{"header":{"parameterUnit":"m.s-1","parameterCategory":1,"la1":31.0,"la2":29.5877,"lo1":-88.7671,"lo2":-86.6584,"dx":0.0162,"dy":0.0185,"nx":115,"ny":88,"refTime":"2022-11-04T06:00:00:Z","depth":0,"parameterNumber":2,"parameterNumberName":"U-component_of_WINDS"},"data":[0.0,0.0,0.0,0.0,0.0,0.0,0.0,0.0,0.0,0.0,0.0,0.0,0.0,0.0,0.0,0.0,0.0,0.0,0.0,0.0,0.0,0.0,0.0,0.0,0.0,0.0,0.0,0.0,0.0,0.0,0.0,0.0,0.0,0.0,0.0,0.0,0.0,0.0,0.0,0.0,0.0,0.0,0.0,0.0,0.0,0.0,0.0,0.0,0.0,0.0,0.0,0.0,0.0,0.0,0.0,0.0,0.0,0.0,0.0,0.0,0.0,0.0,0.0,0.0,0.0,0.0,0.0,0.0,0.0,0.0,0.0,0.0,0.0,0.0,0.0,0.0,0.0,0.0,0.0,0.0,0.0,0.0,0.0,0.0,0.0,0.0,0.0,0.0,0.0,0.0,0.0,0.0,0.0,0.0,0.0,0.0,0.0,0.0,0.0,0.0,0.0,0.0,0.0,0.0,0.0,0.0,0.0,0.0,0.0,0.0,0.0,0.0,0.0,0.0,0.0,0.0,0.0,0.0,0.0,0.0,0.0,0.0,0.0,0.0,0.0,0.0,0.0,0.0,0.0,0.0,0.0,0.0,0.0,0.0,0.0,0.0,0.0,0.0,0.0,0.0,0.0,0.0,0.0,0.0,0.0,0.0,0.0,0.0,0.0,0.0,0.0,0.0,0.0,0.0,0.0,0.0,0.0,0.0,0.0,0.0,0.0,0.0,0.0,0.0,0.0,0.0,0.0,0.0,0.0,0.0,0.0,0.0,0.0,0.0,0.0,0.0,0.0,0.0,0.0,0.0,0.0,0.0,0.0,0.0,0.0,0.0,0.0,0.0,0.0,0.0,0.0,0.0,0.0,0.0,0.0,0.0,0.0,0.0,0.0,0.0,0.0,0.0,0.0,0.0,0.0,0.0,0.0,0.0,0.0,0.0,0.0,0.0,0.0,0.0,0.0,0.0,0.0,0.0,0.0,0.0,0.0,0.0,0.0,0.0,0.0,0.0,0.0,0.0,0.0,0.0,0.0,0.0,0.0,0.0,0.0,0.0,0.0,0.0,0.0,0.0,0.0,0.0,0.0,0.0,0.0,0.0,0.0,0.0,0.0,0.0,0.0,0.0,0.0,0.0,0.0,0.0,0.0,0.0,0.0,0.0,0.0,0.0,0.0,0.0,0.0,0.0,0.0,0.0,0.0,0.0,0.0,0.0,0.0,0.0,0.0,0.0,0.0,0.0,0.0,0.0,0.0,0.0,0.0,0.0,0.0,0.0,0.0,0.0,0.0,0.0,0.0,0.0,0.0,0.0,0.0,0.0,0.0,0.0,0.0,0.0,0.0,0.0,0.0,0.0,0.0,0.0,0.0,0.0,0.0,0.0,0.0,0.0,0.0,0.0,0.0,0.0,0.0,0.0,0.0,0.0,0.0,0.0,0.0,0.0,0.0,0.0,0.0,0.0,0.0,0.0,0.0,0.0,0.0,0.0,0.0,0.0,0.0,0.0,0.0,0.0,0.0,0.0,0.0,0.0,0.0,0.0,0.0,0.0,0.0,0.0,0.0,0.0,0.0,0.0,0.0,0.0,0.0,0.0,0.0,0.0,0.0,0.0,0.0,0.0,0.0,0.0,0.0,0.0,0.0,0.0,0.0,0.0,0.0,0.0,0.0,0.0,0.0,0.0,0.0,0.0,0.0,0.0,0.0,0.0,0.0,0.0,0.0,0.0,0.0,0.0,0.0,0.0,0.0,0.0,0.0,0.0,0.0,0.0,0.0,0.0,0.0,0.0,0.0,0.0,0.0,0.0,0.0,0.0,0.0,0.0,0.0,0.0,0.0,0.0,0.0,0.0,0.0,0.0,0.0,0.0,0.0,0.0,0.0,0.0,0.0,0.0,0.0,0.0,0.0,0.0,0.0,0.0,0.0,0.0,0.0,0.0,0.0,0.0,0.0,0.0,0.0,0.0,0.0,0.0,0.0,0.0,0.0,0.0,0.0,0.0,0.0,0.0,0.0,0.0,0.0,0.0,0.0,0.0,0.0,0.0,0.0,0.0,0.0,0.0,0.0,0.0,0.0,0.0,0.0,0.0,0.0,0.0,0.0,0.0,0.0,0.0,0.0,0.0,0.0,0.0,0.0,0.0,0.0,0.0,0.0,0.0,0.0,0.0,0.0,0.0,0.0,0.0,0.0,0.0,0.0,0.0,0.0,0.0,0.0,0.0,0.0,0.0,0.0,0.0,0.0,0.0,0.0,0.0,0.0,0.0,0.0,0.0,0.0,0.0,0.0,0.0,0.0,0.0,0.0,0.0,0.0,0.0,0.0,0.0,0.0,0.0,0.0,0.0,0.0,0.0,0.0,0.0,0.0,0.0,0.0,0.0,0.0,0.0,0.0,0.0,0.0,0.0,0.0,0.0,0.0,0.0,0.0,0.0,0.0,0.0,0.0,0.0,0.0,0.0,0.0,0.0,0.0,0.0,0.0,0.0,0.0,0.0,0.0,0.0,0.0,0.0,0.0,0.0,0.0,0.0,0.0,0.0,0.0,0.0,0.0,0.0,0.0,0.0,0.0,0.0,0.0,0.0,0.0,0.0,0.0,0.0,0.0,0.0,0.0,0.0,0.0,0.0,0.0,0.0,0.0,0.0,0.0,0.0,0.0,0.0,0.0,0.0,0.0,0.0,0.0,0.0,0.0,0.0,0.0,0.0,0.0,0.0,0.0,0.0,0.0,0.0,0.0,0.0,0.0,0.0,0.0,0.0,0.0,0.0,0.0,0.0,0.0,0.0,0.0,0.0,0.0,0.0,0.0,0.0,0.0,0.0,0.0,0.0,0.0,0.0,0.0,0.0,0.0,0.0,0.0,0.0,0.0,0.0,0.0,0.0,0.0,0.0,0.0,0.0,0.0,0.0,0.0,0.0,0.0,0.0,0.0,0.0,0.0,0.0,0.0,0.0,0.0,0.0,0.0,0.0,0.0,0.0,0.0,0.0,0.0,0.0,0.0,0.0,0.0,0.0,0.0,0.0,0.0,0.0,0.0,0.0,0.0,0.0,0.0,0.0,0.0,0.0,0.0,0.0,0.0,0.0,0.0,0.0,0.0,0.0,0.0,0.0,0.0,0.0,0.0,0.0,0.0,0.0,0.0,0.0,0.0,0.0,0.0,0.0,0.0,0.0,0.0,0.0,0.0,0.0,0.0,0.0,0.0,0.0,0.0,0.0,0.0,0.0,0.0,0.0,0.0,0.0,0.0,0.0,0.0,0.0,0.0,0.0,0.0,0.0,0.0,0.0,0.0,0.0,0.0,0.0,0.0,0.0,0.0,0.0,0.0,0.0,0.0,0.0,0.0,0.0,0.0,0.0,0.0,0.0,0.0,0.0,0.0,0.0,0.0,0.0,0.0,0.0,0.0,0.0,0.0,0.0,0.0,0.0,0.0,0.0,0.0,0.0,0.0,0.0,0.0,0.0,0.0,0.0,0.0,0.0,0.0,0.0,0.0,0.0,0.0,0.0,0.0,0.0,0.0,0.0,0.0,0.0,0.0,0.0,0.0,0.0,0.0,0.0,0.0,0.0,0.0,0.0,0.0,0.0,0.0,0.0,0.0,0.0,0.0,0.0,0.0,0.0,0.0,0.0,0.0,0.0,0.0,0.0,0.0,0.0,0.0,0.0,0.0,0.0,0.0,0.0,0.0,0.0,0.0,0.0,0.0,0.0,0.0,0.0,0.0,0.0,0.0,0.0,0.0,0.0,0.0,0.0,0.0,0.0,0.0,0.0,0.0,0.0,0.0,0.0,0.0,0.0,0.0,0.0,0.0,0.0,0.0,0.0,0.0,0.0,0.0,0.0,0.0,0.0,0.0,0.0,0.0,0.0,0.0,0.0,0.0,0.0,0.0,0.0,0.0,0.0,0.0,0.0,0.0,0.0,0.0,0.0,0.0,0.0,0.0,0.0,0.0,0.0,0.0,0.0,0.0,0.0,0.0,0.0,0.0,0.0,0.0,0.0,0.0,0.0,0.0,0.0,0.0,0.0,0.0,0.0,0.0,0.0,0.0,0.0,0.0,0.0,0.0,0.0,0.0,0.0,0.0,0.0,0.0,0.0,0.0,0.0,0.0,0.0,0.0,0.0,0.0,0.0,0.0,0.0,0.0,0.0,0.0,0.0,0.0,0.0,0.0,0.0,0.0,0.0,0.0,0.0,0.0,0.0,0.0,0.0,0.0,0.0,0.0,0.0,0.0,0.0,0.0,0.0,0.0,0.0,-3.7206,0.0,0.0,0.0,-3.6135,0.0,0.0,0.0,0.0,0.0,0.0,0.0,0.0,0.0,0.0,0.0,0.0,0.0,0.0,0.0,0.0,0.0,0.0,0.0,0.0,0.0,0.0,0.0,0.0,0.0,0.0,0.0,0.0,0.0,0.0,0.0,0.0,0.0,0.0,0.0,0.0,0.0,0.0,0.0,0.0,0.0,0.0,0.0,0.0,0.0,0.0,0.0,0.0,0.0,0.0,0.0,0.0,0.0,0.0,0.0,0.0,0.0,0.0,0.0,0.0,0.0,0.0,0.0,0.0,0.0,0.0,0.0,0.0,0.0,0.0,0.0,0.0,0.0,0.0,0.0,0.0,0.0,0.0,0.0,0.0,0.0,0.0,0.0,0.0,0.0,0.0,0.0,0.0,0.0,0.0,0.0,0.0,0.0,0.0,0.0,0.0,0.0,0.0,0.0,0.0,0.0,0.0,0.0,0.0,0.0,0.0,0.0,0.0,0.0,0.0,-3.7571,-3.7204,-3.7138,-3.6768,-3.6131,0.0,0.0,0.0,0.0,0.0,0.0,0.0,0.0,0.0,0.0,0.0,0.0,0.0,0.0,0.0,0.0,0.0,0.0,0.0,0.0,0.0,0.0,0.0,0.0,0.0,0.0,0.0,0.0,0.0,0.0,0.0,0.0,0.0,0.0,0.0,0.0,0.0,0.0,0.0,0.0,0.0,0.0,0.0,0.0,0.0,0.0,0.0,0.0,0.0,0.0,0.0,0.0,0.0,0.0,0.0,0.0,0.0,0.0,0.0,0.0,0.0,0.0,0.0,0.0,0.0,0.0,0.0,0.0,0.0,0.0,0.0,0.0,0.0,0.0,0.0,0.0,0.0,0.0,0.0,0.0,0.0,0.0,0.0,0.0,0.0,0.0,0.0,0.0,0.0,0.0,0.0,0.0,0.0,0.0,0.0,0.0,0.0,0.0,0.0,0.0,0.0,0.0,0.0,0.0,0.0,0.0,0.0,0.0,0.0,0.0,0.0,0.0,-3.7218,-3.6758,-3.6002,0.0,0.0,0.0,0.0,0.0,0.0,0.0,0.0,0.0,0.0,0.0,0.0,0.0,0.0,0.0,0.0,0.0,0.0,0.0,0.0,0.0,0.0,0.0,0.0,0.0,0.0,0.0,0.0,0.0,0.0,0.0,0.0,0.0,0.0,0.0,0.0,0.0,0.0,0.0,0.0,0.0,0.0,0.0,0.0,0.0,0.0,0.0,0.0,0.0,0.0,0.0,0.0,0.0,0.0,0.0,0.0,0.0,0.0,0.0,0.0,0.0,0.0,0.0,0.0,0.0,0.0,0.0,0.0,0.0,0.0,0.0,0.0,0.0,0.0,0.0,0.0,0.0,0.0,0.0,0.0,0.0,0.0,0.0,0.0,0.0,0.0,0.0,0.0,0.0,0.0,0.0,0.0,0.0,0.0,0.0,0.0,0.0,0.0,0.0,0.0,0.0,0.0,0.0,0.0,0.0,0.0,0.0,0.0,0.0,0.0,-3.7815,-3.765,-3.7617,0.0,-3.587,0.0,0.0,0.0,0.0,0.0,0.0,0.0,0.0,0.0,0.0,0.0,0.0,0.0,0.0,0.0,0.0,0.0,0.0,0.0,0.0,0.0,0.0,0.0,0.0,0.0,0.0,0.0,0.0,0.0,0.0,0.0,0.0,0.0,0.0,0.0,0.0,0.0,0.0,0.0,0.0,0.0,0.0,0.0,0.0,0.0,0.0,0.0,0.0,0.0,0.0,0.0,0.0,0.0,0.0,0.0,0.0,0.0,0.0,0.0,0.0,0.0,0.0,0.0,0.0,0.0,0.0,0.0,0.0,0.0,0.0,0.0,0.0,0.0,0.0,0.0,0.0,0.0,0.0,0.0,0.0,0.0,0.0,0.0,0.0,0.0,0.0,0.0,0.0,0.0,0.0,0.0,0.0,0.0,0.0,0.0,0.0,0.0,0.0,0.0,0.0,0.0,0.0,0.0,0.0,0.0,0.0,0.0,0.0,0.0,0.0,-3.8167,-3.7707,-3.6854,-3.6307,0.0,0.0,0.0,0.0,0.0,0.0,0.0,0.0,0.0,0.0,0.0,0.0,0.0,0.0,0.0,0.0,0.0,0.0,0.0,0.0,0.0,0.0,0.0,0.0,0.0,0.0,0.0,0.0,0.0,0.0,0.0,0.0,0.0,0.0,0.0,0.0,0.0,0.0,0.0,0.0,0.0,0.0,0.0,0.0,0.0,0.0,0.0,0.0,0.0,0.0,0.0,0.0,0.0,0.0,0.0,0.0,0.0,0.0,0.0,0.0,0.0,0.0,0.0,0.0,0.0,0.0,0.0,0.0,0.0,0.0,0.0,0.0,0.0,0.0,0.0,0.0,0.0,0.0,0.0,0.0,0.0,0.0,0.0,0.0,0.0,0.0,0.0,0.0,0.0,0.0,0.0,0.0,0.0,0.0,0.0,0.0,0.0,0.0,0.0,0.0,0.0,0.0,0.0,0.0,0.0,0.0,0.0,0.0,0.0,0.0,-3.8567,-3.7789,-3.7063,-3.6742,-3.6477,-3.6237,0.0,0.0,0.0,0.0,0.0,0.0,0.0,0.0,0.0,0.0,0.0,0.0,0.0,0.0,0.0,0.0,0.0,0.0,0.0,0.0,0.0,0.0,0.0,0.0,0.0,0.0,0.0,0.0,0.0,0.0,0.0,0.0,0.0,0.0,0.0,0.0,0.0,0.0,0.0,0.0,0.0,0.0,0.0,0.0,0.0,0.0,0.0,0.0,0.0,0.0,0.0,0.0,0.0,0.0,0.0,0.0,0.0,0.0,0.0,0.0,0.0,0.0,0.0,0.0,0.0,0.0,0.0,0.0,0.0,0.0,0.0,0.0,0.0,0.0,0.0,0.0,0.0,0.0,0.0,0.0,0.0,0.0,0.0,0.0,0.0,0.0,0.0,0.0,0.0,0.0,0.0,0.0,0.0,0.0,0.0,0.0,0.0,0.0,0.0,0.0,0.0,0.0,0.0,0.0,0.0,0.0,0.0,0.0,-3.7858,-3.7114,-3.6277,-3.5554,-3.786,-3.8058,0.0,0.0,0.0,0.0,0.0,0.0,0.0,0.0,0.0,0.0,0.0,0.0,0.0,0.0,0.0,0.0,0.0,0.0,0.0,0.0,0.0,0.0,0.0,0.0,0.0,0.0,0.0,0.0,0.0,0.0,0.0,0.0,0.0,0.0,0.0,0.0,0.0,0.0,0.0,0.0,0.0,0.0,0.0,0.0,0.0,0.0,0.0,0.0,0.0,0.0,0.0,0.0,0.0,0.0,0.0,0.0,0.0,0.0,0.0,0.0,0.0,0.0,0.0,0.0,0.0,0.0,0.0,0.0,0.0,0.0,0.0,0.0,0.0,0.0,0.0,0.0,0.0,0.0,0.0,0.0,0.0,0.0,0.0,0.0,0.0,0.0,0.0,0.0,0.0,0.0,0.0,0.0,0.0,0.0,0.0,0.0,0.0,0.0,0.0,0.0,0.0,0.0,0.0,0.0,0.0,0.0,0.0,0.0,0.0,-3.8727,-3.7605,-3.6606,-3.5866,-3.6431,-3.6294,0.0,0.0,0.0,0.0,0.0,0.0,0.0,0.0,0.0,0.0,0.0,0.0,0.0,0.0,0.0,0.0,0.0,0.0,0.0,0.0,0.0,0.0,0.0,0.0,0.0,0.0,0.0,0.0,0.0,0.0,0.0,0.0,0.0,0.0,0.0,0.0,0.0,0.0,0.0,0.0,0.0,0.0,0.0,0.0,0.0,0.0,0.0,0.0,0.0,0.0,0.0,0.0,0.0,0.0,0.0,0.0,0.0,0.0,0.0,0.0,0.0,0.0,0.0,0.0,0.0,0.0,0.0,0.0,0.0,0.0,0.0,0.0,0.0,0.0,0.0,0.0,0.0,0.0,0.0,0.0,0.0,0.0,0.0,0.0,0.0,0.0,0.0,0.0,0.0,0.0,0.0,0.0,0.0,0.0,0.0,0.0,0.0,0.0,0.0,0.0,0.0,0.0,0.0,0.0,0.0,0.0,0.0,0.0,0.0,-3.7891,-3.6995,-3.6077,-3.5143,-3.5151,-3.5002,0.0,0.0,0.0,0.0,0.0,0.0,0.0,0.0,0.0,0.0,0.0,0.0,0.0,0.0,0.0,0.0,0.0,0.0,0.0,0.0,0.0,0.0,0.0,0.0,0.0,0.0,0.0,0.0,0.0,0.0,0.0,0.0,0.0,0.0,0.0,0.0,0.0,0.0,0.0,0.0,0.0,0.0,0.0,0.0,0.0,0.0,0.0,0.0,0.0,0.0,0.0,0.0,0.0,0.0,0.0,0.0,0.0,0.0,0.0,0.0,0.0,0.0,0.0,0.0,0.0,0.0,0.0,0.0,0.0,0.0,0.0,0.0,0.0,0.0,0.0,0.0,0.0,0.0,0.0,0.0,0.0,0.0,0.0,0.0,0.0,0.0,0.0,0.0,0.0,0.0,0.0,0.0,0.0,0.0,0.0,0.0,0.0,0.0,0.0,0.0,0.0,0.0,0.0,0.0,0.0,0.0,0.0,0.0,-3.6225,-3.4959,-3.5075,-3.4548,-3.3142,-3.4455,-3.455,0.0,0.0,0.0,0.0,0.0,0.0,0.0,0.0,0.0,0.0,0.0,0.0,0.0,0.0,0.0,0.0,0.0,0.0,0.0,0.0,0.0,0.0,0.0,0.0,0.0,0.0,0.0,0.0,0.0,0.0,0.0,0.0,0.0,0.0,0.0,0.0,0.0,0.0,0.0,0.0,0.0,0.0,0.0,0.0,0.0,0.0,0.0,0.0,0.0,0.0,0.0,0.0,0.0,0.0,0.0,0.0,0.0,0.0,0.0,0.0,0.0,0.0,0.0,0.0,0.0,0.0,0.0,0.0,0.0,0.0,0.0,0.0,0.0,0.0,0.0,0.0,0.0,0.0,0.0,0.0,0.0,0.0,0.0,0.0,0.0,0.0,0.0,0.0,0.0,0.0,0.0,0.0,0.0,0.0,0.0,0.0,0.0,0.0,0.0,0.0,0.0,0.0,0.0,0.0,0.0,0.0,0.0,0.0,0.0,-3.594,-3.5464,-3.4806,-3.4032,-3.3985,-3.3738,0.0,0.0,0.0,0.0,0.0,0.0,0.0,0.0,0.0,0.0,0.0,0.0,0.0,0.0,0.0,0.0,0.0,0.0,0.0,0.0,0.0,0.0,0.0,0.0,0.0,0.0,0.0,0.0,0.0,0.0,0.0,0.0,0.0,0.0,0.0,0.0,0.0,0.0,0.0,0.0,0.0,0.0,0.0,0.0,0.0,0.0,0.0,0.0,0.0,0.0,0.0,0.0,0.0,0.0,0.0,0.0,0.0,0.0,0.0,0.0,0.0,0.0,0.0,0.0,0.0,0.0,0.0,0.0,0.0,0.0,0.0,0.0,0.0,0.0,0.0,0.0,0.0,0.0,0.0,0.0,0.0,0.0,0.0,0.0,0.0,0.0,0.0,0.0,0.0,0.0,0.0,0.0,0.0,0.0,0.0,0.0,0.0,0.0,0.0,0.0,0.0,0.0,0.0,0.0,0.0,0.0,0.0,0.0,0.0,-3.6067,-3.5194,-3.4362,-3.377,-3.3317,-3.2998,-3.2806,0.0,0.0,0.0,0.0,0.0,0.0,0.0,0.0,0.0,0.0,0.0,0.0,0.0,0.0,0.0,0.0,0.0,0.0,0.0,0.0,0.0,0.0,0.0,0.0,0.0,0.0,0.0,0.0,0.0,0.0,0.0,0.0,0.0,0.0,0.0,0.0,0.0,0.0,0.0,0.0,0.0,0.0,0.0,0.0,0.0,0.0,0.0,0.0,0.0,0.0,0.0,0.0,0.0,0.0,0.0,0.0,0.0,0.0,0.0,0.0,0.0,0.0,0.0,0.0,0.0,0.0,0.0,0.0,0.0,0.0,0.0,0.0,0.0,0.0,0.0,0.0,0.0,0.0,0.0,0.0,0.0,0.0,0.0,0.0,0.0,0.0,0.0,0.0,0.0,0.0,0.0,0.0,0.0,0.0,0.0,0.0,0.0,0.0,0.0,0.0,0.0,0.0,0.0,0.0,0.0,0.0,0.0,0.0,-3.5489,-3.423,-3.3364,-3.2908,-3.2604,-3.2432,0.0,0.0,0.0,0.0,0.0,0.0,0.0,0.0,0.0,0.0,0.0,0.0,0.0,0.0,0.0,0.0,0.0,0.0,0.0,0.0,0.0,0.0,0.0,0.0,0.0,0.0,0.0,0.0,0.0,0.0,0.0,0.0,0.0,0.0,0.0,0.0,0.0,0.0,0.0,0.0,0.0,0.0,0.0,0.0,0.0,0.0,0.0,0.0,0.0,0.0,0.0,0.0,0.0,0.0,0.0,0.0,0.0,0.0,0.0,0.0,0.0,0.0,0.0,0.0,0.0,0.0,0.0,0.0,0.0,0.0,0.0,0.0,0.0,0.0,0.0,0.0,0.0,0.0,0.0,0.0,0.0,0.0,0.0,0.0,0.0,0.0,0.0,0.0,0.0,0.0,0.0,0.0,0.0,0.0,0.0,0.0,0.0,0.0,0.0,0.0,0.0,0.0,0.0,0.0,0.0,0.0,0.0,0.0,0.0,-3.4396,-3.3564,-3.3649,-3.4538,-3.3426,-3.2864,0.0,0.0,0.0,0.0,0.0,0.0,0.0,0.0,0.0,0.0,0.0,0.0,0.0,0.0,0.0,0.0,0.0,0.0,0.0,0.0,0.0,0.0,0.0,0.0,0.0,0.0,0.0,0.0,0.0,0.0,0.0,0.0,0.0,0.0,0.0,0.0,0.0,0.0,0.0,0.0,0.0,0.0,0.0,0.0,0.0,0.0,0.0,0.0,0.0,0.0,0.0,0.0,0.0,0.0,0.0,0.0,0.0,0.0,0.0,0.0,0.0,0.0,0.0,0.0,0.0,0.0,0.0,0.0,0.0,0.0,0.0,0.0,0.0,0.0,0.0,0.0,0.0,0.0,0.0,0.0,0.0,0.0,0.0,0.0,0.0,0.0,0.0,0.0,0.0,0.0,0.0,0.0,0.0,0.0,0.0,0.0,0.0,0.0,0.0,0.0,0.0,0.0,0.0,0.0,0.0,0.0,0.0,0.0,-3.4761,-3.4255,-3.3401,-3.3409,-3.4169,-3.3205,-3.2875,0.0,0.0,0.0,0.0,0.0,0.0,0.0,0.0,0.0,0.0,0.0,0.0,0.0,0.0,0.0,0.0,0.0,0.0,0.0,0.0,0.0,0.0,0.0,0.0,0.0,0.0,0.0,0.0,0.0,0.0,0.0,0.0,0.0,0.0,0.0,0.0,0.0,0.0,0.0,0.0,0.0,0.0,0.0,0.0,0.0,0.0,0.0,0.0,0.0,0.0,0.0,0.0,0.0,0.0,0.0,0.0,0.0,0.0,0.0,0.0,0.0,0.0,0.0,0.0,0.0,0.0,0.0,0.0,0.0,0.0,0.0,0.0,0.0,0.0,0.0,0.0,0.0,0.0,0.0,0.0,0.0,0.0,0.0,0.0,0.0,0.0,0.0,0.0,0.0,0.0,0.0,0.0,0.0,0.0,0.0,0.0,0.0,0.0,0.0,0.0,0.0,0.0,0.0,0.0,0.0,0.0,0.0,0.0,-3.5116,-3.4466,-3.3363,-3.2717,-3.25,-3.2374,-3.2665,0.0,0.0,0.0,0.0,0.0,0.0,0.0,0.0,0.0,0.0,0.0,0.0,0.0,0.0,0.0,0.0,0.0,0.0,0.0,0.0,0.0,0.0,0.0,0.0,0.0,0.0,0.0,0.0,0.0,0.0,0.0,0.0,0.0,0.0,0.0,0.0,0.0,0.0,0.0,0.0,0.0,0.0,0.0,0.0,0.0,0.0,0.0,0.0,0.0,0.0,0.0,0.0,0.0,0.0,0.0,0.0,0.0,0.0,0.0,0.0,0.0,0.0,0.0,0.0,0.0,0.0,0.0,0.0,0.0,0.0,0.0,0.0,0.0,0.0,0.0,0.0,0.0,0.0,0.0,0.0,0.0,0.0,0.0,0.0,0.0,0.0,0.0,0.0,0.0,0.0,0.0,0.0,0.0,0.0,0.0,0.0,0.0,0.0,0.0,0.0,0.0,0.0,0.0,0.0,0.0,0.0,0.0,0.0,-3.4494,-3.3518,-3.2269,-3.156,-3.1362,-3.195,-3.2665,0.0,0.0,0.0,0.0,0.0,0.0,0.0,0.0,0.0,0.0,0.0,0.0,0.0,0.0,0.0,0.0,0.0,0.0,0.0,0.0,0.0,0.0,0.0,0.0,0.0,0.0,0.0,0.0,0.0,0.0,0.0,0.0,0.0,0.0,0.0,0.0,0.0,0.0,0.0,0.0,0.0,0.0,0.0,0.0,0.0,0.0,0.0,0.0,-3.1126,0.0,0.0,0.0,0.0,0.0,0.0,0.0,0.0,0.0,0.0,0.0,0.0,0.0,0.0,0.0,0.0,0.0,0.0,0.0,0.0,0.0,0.0,0.0,0.0,0.0,0.0,0.0,0.0,0.0,0.0,0.0,0.0,0.0,0.0,0.0,0.0,0.0,0.0,0.0,0.0,0.0,0.0,0.0,0.0,0.0,0.0,0.0,0.0,0.0,0.0,0.0,0.0,0.0,0.0,0.0,0.0,0.0,0.0,0.0,-3.427,-3.3187,-3.1848,-3.1099,-3.1155,-3.1344,-3.1833,0.0,0.0,0.0,0.0,0.0,0.0,0.0,0.0,0.0,0.0,0.0,0.0,0.0,0.0,0.0,0.0,0.0,0.0,0.0,0.0,0.0,0.0,0.0,0.0,0.0,0.0,0.0,0.0,0.0,0.0,0.0,0.0,0.0,0.0,0.0,0.0,0.0,0.0,0.0,0.0,0.0,0.0,0.0,0.0,0.0,0.0,0.0,0.0,0.0,0.0,0.0,0.0,0.0,0.0,0.0,0.0,0.0,0.0,0.0,0.0,0.0,0.0,0.0,0.0,0.0,0.0,0.0,0.0,0.0,0.0,0.0,0.0,0.0,0.0,0.0,0.0,0.0,0.0,0.0,0.0,0.0,0.0,0.0,0.0,0.0,0.0,0.0,0.0,0.0,0.0,0.0,0.0,0.0,0.0,0.0,0.0,0.0,0.0,0.0,0.0,0.0,0.0,0.0,0.0,0.0,0.0,0.0,-3.5274,-3.42,-3.3088,-3.1807,-3.113,-3.1298,-3.0858,-3.105,-3.189,0.0,0.0,0.0,0.0,0.0,0.0,0.0,0.0,0.0,0.0,0.0,0.0,0.0,0.0,0.0,0.0,0.0,0.0,0.0,0.0,0.0,0.0,0.0,0.0,0.0,0.0,0.0,0.0,0.0,0.0,0.0,0.0,0.0,0.0,0.0,0.0,0.0,0.0,-3.3662,-3.3542,0.0,0.0,0.0,0.0,0.0,0.0,0.0,0.0,-3.2019,0.0,0.0,0.0,0.0,0.0,0.0,0.0,0.0,0.0,0.0,0.0,0.0,0.0,0.0,0.0,0.0,0.0,0.0,0.0,0.0,0.0,0.0,0.0,0.0,0.0,0.0,0.0,0.0,0.0,0.0,0.0,0.0,0.0,0.0,0.0,0.0,0.0,0.0,0.0,0.0,0.0,0.0,0.0,0.0,0.0,0.0,0.0,0.0,0.0,0.0,0.0,0.0,0.0,0.0,0.0,0.0,-3.6308,-3.5067,-3.3866,-3.2548,-3.2154,-3.171,-3.1321,-3.1221,-3.1649,-3.2673,0.0,0.0,0.0,0.0,0.0,0.0,0.0,0.0,0.0,0.0,0.0,0.0,0.0,0.0,0.0,0.0,0.0,0.0,0.0,0.0,0.0,0.0,0.0,0.0,0.0,0.0,0.0,0.0,0.0,0.0,0.0,0.0,0.0,0.0,0.0,0.0,0.0,0.0,0.0,-3.4719,-3.4101,0.0,0.0,0.0,0.0,0.0,0.0,0.0,0.0,-3.2521,0.0,0.0,0.0,0.0,0.0,0.0,0.0,0.0,0.0,0.0,0.0,0.0,0.0,0.0,0.0,0.0,0.0,0.0,0.0,0.0,0.0,0.0,0.0,0.0,0.0,0.0,0.0,0.0,0.0,0.0,0.0,0.0,0.0,0.0,0.0,0.0,0.0,0.0,0.0,0.0,0.0,0.0,0.0,0.0,0.0,0.0,0.0,0.0,0.0,0.0,0.0,0.0,0.0,0.0,0.0,-3.6698,-3.5679,-3.459,-3.3459,-3.2822,-3.2347,-3.1945,-3.2319,-3.2986,0.0,0.0,0.0,0.0,0.0,0.0,0.0,0.0,0.0,0.0,0.0,0.0,0.0,0.0,0.0,0.0,0.0,0.0,0.0,0.0,0.0,0.0,0.0,0.0,0.0,0.0,0.0,0.0,0.0,0.0,0.0,0.0,0.0,0.0,0.0,0.0,0.0,0.0,0.0,0.0,-3.6022,-3.55,-3.5602,0.0,0.0,0.0,0.0,0.0,0.0,-3.2483,-3.1914,0.0,0.0,0.0,0.0,0.0,0.0,0.0,0.0,0.0,0.0,0.0,0.0,0.0,0.0,0.0,0.0,0.0,0.0,0.0,0.0,0.0,0.0,0.0,0.0,0.0,0.0,0.0,0.0,0.0,0.0,0.0,0.0,0.0,0.0,0.0,0.0,0.0,0.0,0.0,0.0,0.0,0.0,0.0,0.0,0.0,0.0,0.0,0.0,0.0,0.0,0.0,0.0,0.0,0.0,0.0,-3.7194,-3.6134,-3.5161,-3.4318,-3.3496,-3.2889,-3.2538,-3.3013,-3.3843,0.0,0.0,0.0,0.0,0.0,0.0,0.0,0.0,0.0,0.0,0.0,0.0,0.0,0.0,0.0,0.0,0.0,0.0,0.0,0.0,0.0,0.0,0.0,0.0,0.0,0.0,0.0,0.0,0.0,0.0,0.0,0.0,0.0,0.0,0.0,0.0,0.0,0.0,0.0,0.0,0.0,-3.5936,-3.6514,-3.4428,0.0,0.0,0.0,0.0,-3.2764,-3.2356,0.0,0.0,0.0,0.0,0.0,0.0,0.0,0.0,0.0,0.0,0.0,0.0,0.0,0.0,0.0,0.0,0.0,0.0,0.0,0.0,0.0,0.0,0.0,0.0,0.0,0.0,0.0,0.0,0.0,0.0,0.0,0.0,0.0,0.0,0.0,0.0,0.0,0.0,0.0,0.0,0.0,0.0,0.0,0.0,0.0,0.0,0.0,0.0,0.0,0.0,0.0,0.0,0.0,0.0,0.0,0.0,-3.7445,-3.5585,-3.4352,-3.3977,-3.3717,-3.3265,-3.2489,-3.2199,-3.3168,0.0,0.0,0.0,0.0,0.0,0.0,0.0,0.0,0.0,0.0,0.0,0.0,0.0,0.0,0.0,0.0,0.0,0.0,0.0,0.0,0.0,0.0,0.0,0.0,0.0,0.0,0.0,0.0,0.0,0.0,0.0,0.0,0.0,0.0,0.0,0.0,0.0,0.0,0.0,0.0,0.0,-3.3527,-3.5185,-3.3339,-3.2087,0.0,0.0,-3.369,-3.4044,-3.3997,0.0,0.0,0.0,0.0,0.0,0.0,0.0,0.0,0.0,0.0,0.0,0.0,0.0,0.0,0.0,0.0,0.0,0.0,0.0,0.0,0.0,0.0,0.0,0.0,0.0,0.0,0.0,0.0,0.0,0.0,0.0,0.0,0.0,0.0,0.0,0.0,0.0,0.0,0.0,0.0,0.0,0.0,0.0,0.0,0.0,0.0,0.0,0.0,0.0,0.0,0.0,0.0,0.0,0.0,0.0,-3.6611,-3.6739,-3.5763,-3.5035,-3.4795,-3.4563,-3.3962,-3.2909,-3.3347,-3.3922,0.0,0.0,0.0,0.0,0.0,0.0,0.0,0.0,0.0,0.0,0.0,0.0,0.0,0.0,0.0,0.0,0.0,0.0,0.0,0.0,0.0,0.0,0.0,0.0,0.0,0.0,0.0,0.0,0.0,0.0,0.0,0.0,0.0,0.0,0.0,0.0,0.0,0.0,0.0,0.0,0.0,0.0,-3.5007,-3.3691,0.0,0.0,0.0,-3.2692,-3.2515,0.0,0.0,0.0,0.0,0.0,0.0,0.0,0.0,0.0,0.0,0.0,0.0,0.0,0.0,0.0,0.0,0.0,0.0,0.0,0.0,0.0,0.0,0.0,0.0,0.0,0.0,0.0,0.0,0.0,0.0,0.0,0.0,0.0,0.0,0.0,0.0,0.0,0.0,0.0,0.0,0.0,0.0,0.0,0.0,0.0,0.0,0.0,0.0,0.0,0.0,0.0,0.0,0.0,0.0,0.0,0.0,0.0,-3.6091,-3.5794,-3.5608,-3.5474,-3.5044,-3.4464,-3.3659,-3.4088,0.0,0.0,0.0,0.0,0.0,0.0,0.0,0.0,0.0,0.0,0.0,0.0,0.0,0.0,0.0,0.0,0.0,0.0,0.0,0.0,0.0,0.0,0.0,0.0,0.0,0.0,0.0,-2.5533,0.0,0.0,0.0,0.0,0.0,0.0,0.0,0.0,0.0,0.0,0.0,0.0,0.0,0.0,-3.4797,-3.4501,-3.3551,-3.2955,0.0,0.0,-3.1746,-3.1527,-3.1534,-3.0983,0.0,0.0,0.0,0.0,0.0,0.0,0.0,0.0,0.0,0.0,0.0,0.0,0.0,0.0,0.0,0.0,0.0,0.0,0.0,0.0,0.0,0.0,0.0,0.0,0.0,0.0,0.0,0.0,0.0,0.0,0.0,0.0,0.0,0.0,0.0,0.0,0.0,0.0,0.0,0.0,0.0,0.0,0.0,0.0,0.0,0.0,0.0,0.0,0.0,0.0,0.0,0.0,0.0,0.0,-3.5727,-3.5727,-3.5321,-3.5266,-3.5572,-3.4677,-3.4328,-3.4648,-3.3326,-3.3138,0.0,0.0,0.0,0.0,0.0,0.0,0.0,0.0,0.0,0.0,0.0,0.0,0.0,0.0,0.0,0.0,0.0,0.0,0.0,0.0,0.0,0.0,0.0,0.0,0.0,0.0,0.0,0.0,0.0,0.0,0.0,0.0,0.0,0.0,0.0,0.0,0.0,0.0,0.0,0.0,0.0,-3.1858,-3.3072,-3.2131,-3.1593,0.0,-3.203,-3.1752,-3.2394,-3.2491,-3.2008,-3.0485,0.0,0.0,0.0,0.0,0.0,0.0,0.0,0.0,0.0,0.0,0.0,0.0,0.0,0.0,0.0,0.0,0.0,0.0,0.0,0.0,0.0,0.0,0.0,0.0,0.0,0.0,0.0,0.0,0.0,0.0,0.0,0.0,0.0,0.0,0.0,0.0,0.0,0.0,0.0,0.0,0.0,0.0,0.0,0.0,0.0,0.0,0.0,0.0,0.0,0.0,0.0,0.0,0.0,-3.3895,-3.4365,-3.4466,-3.4614,-3.4928,-3.4583,-3.4212,-3.3868,-3.3223,-3.2991,0.0,0.0,0.0,0.0,0.0,0.0,0.0,0.0,0.0,0.0,0.0,0.0,0.0,0.0,0.0,0.0,0.0,0.0,0.0,0.0,0.0,0.0,0.0,0.0,0.0,0.0,0.0,0.0,-2.7051,-2.7372,-2.8015,0.0,0.0,0.0,0.0,0.0,0.0,0.0,0.0,0.0,0.0,-3.0443,-3.1667,-3.166,0.0,0.0,-3.1722,-3.1726,-3.1192,-3.1479,-3.1407,-3.0349,-3.038,0.0,0.0,0.0,0.0,0.0,0.0,0.0,0.0,0.0,0.0,0.0,0.0,0.0,0.0,0.0,0.0,0.0,0.0,0.0,0.0,0.0,0.0,0.0,0.0,0.0,0.0,0.0,0.0,0.0,0.0,0.0,0.0,0.0,0.0,0.0,0.0,0.0,0.0,0.0,0.0,0.0,0.0,0.0,0.0,0.0,0.0,0.0,0.0,0.0,0.0,0.0,0.0,-3.2915,-3.3397,-3.398,-3.4405,-3.4716,-3.447,-3.4227,-3.4002,-3.3417,-3.3055,0.0,0.0,0.0,0.0,0.0,0.0,0.0,0.0,0.0,0.0,0.0,0.0,0.0,0.0,0.0,0.0,0.0,0.0,0.0,0.0,0.0,0.0,0.0,0.0,0.0,0.0,0.0,0.0,-2.6978,-2.7194,-2.831,0.0,0.0,0.0,0.0,0.0,0.0,0.0,0.0,0.0,0.0,-2.9792,-3.0129,-3.1011,-3.1192,-2.9908,-3.0663,-3.098,-2.9702,-2.9901,-3.0038,-2.9579,0.0,0.0,0.0,0.0,0.0,0.0,0.0,0.0,0.0,0.0,0.0,0.0,0.0,0.0,0.0,0.0,0.0,0.0,0.0,0.0,0.0,0.0,0.0,0.0,0.0,0.0,0.0,-3.0898,0.0,0.0,-3.0879,0.0,0.0,0.0,0.0,0.0,0.0,0.0,0.0,0.0,0.0,0.0,0.0,0.0,0.0,0.0,0.0,0.0,0.0,0.0,0.0,0.0,0.0,-3.3146,-3.3206,-3.4068,-3.4714,-3.5086,-3.4322,-3.4497,-3.5525,-3.4087,-3.3226,-3.3248,0.0,0.0,0.0,0.0,0.0,0.0,0.0,0.0,0.0,0.0,0.0,0.0,0.0,0.0,0.0,0.0,0.0,0.0,0.0,0.0,0.0,0.0,0.0,0.0,0.0,0.0,-2.5488,-2.4615,-2.4984,0.0,0.0,0.0,0.0,0.0,0.0,0.0,0.0,0.0,-2.7763,-2.9167,-2.9752,-2.8557,-2.9987,-3.0238,-2.7863,-2.8739,-2.9238,-2.8145,-2.7897,-2.7895,0.0,0.0,0.0,0.0,0.0,0.0,0.0,0.0,0.0,0.0,0.0,0.0,0.0,0.0,0.0,0.0,0.0,0.0,0.0,0.0,0.0,0.0,0.0,0.0,0.0,0.0,0.0,-2.8587,-2.9221,0.0,0.0,0.0,0.0,0.0,0.0,0.0,0.0,0.0,0.0,0.0,-2.9243,-3.0205,0.0,0.0,0.0,0.0,0.0,0.0,0.0,0.0,0.0,0.0,0.0,0.0,-3.2071,-3.3359,-3.3558,-3.4067,-3.4941,-3.4958,-3.4892,-3.4671,-3.4134,-3.352,-3.2738,0.0,0.0,0.0,0.0,0.0,0.0,0.0,0.0,0.0,0.0,0.0,0.0,0.0,0.0,0.0,0.0,0.0,0.0,0.0,0.0,0.0,0.0,0.0,0.0,0.0,-2.6772,0.0,0.0,0.0,0.0,0.0,0.0,0.0,0.0,0.0,0.0,0.0,-2.6721,-2.7843,-2.6973,-2.6376,-2.6856,-2.7634,-2.7966,0.0,0.0,0.0,0.0,0.0,0.0,0.0,0.0,0.0,0.0,0.0,0.0,0.0,0.0,-2.5289,-2.5085,-2.4814,-2.4697,-2.4886,0.0,0.0,0.0,0.0,0.0,0.0,0.0,0.0,0.0,0.0,0.0,0.0,0.0,0.0,-2.7477,-2.8117,-2.806,0.0,0.0,0.0,0.0,0.0,0.0,0.0,0.0,-2.9082,-2.8632,-2.8318,-2.9454,-2.9704,0.0,-2.9847,-3.0638,0.0,0.0,0.0,0.0,0.0,0.0,0.0,0.0,-3.1612,-3.3067,-3.2838,-3.2972,-3.3729,-3.4541,-3.4648,-3.4112,-3.3892,-3.3367,-3.2475,-3.2365,-3.2017,0.0,0.0,0.0,0.0,0.0,0.0,0.0,0.0,0.0,0.0,0.0,0.0,0.0,0.0,0.0,0.0,0.0,0.0,0.0,0.0,0.0,0.0,0.0,-2.6099,0.0,0.0,0.0,0.0,0.0,0.0,0.0,0.0,0.0,-2.7082,-2.6233,-2.5912,-2.7001,-2.6086,-2.5344,-2.5611,0.0,0.0,0.0,0.0,0.0,0.0,0.0,-2.6141,-2.6422,-2.6756,-2.703,-2.7299,-2.6614,-2.5889,-2.5459,0.0,0.0,-2.4615,-2.4481,-2.4448,-2.4702,-2.4995,-2.4914,-2.4163,-2.4082,-2.401,0.0,0.0,0.0,0.0,0.0,0.0,0.0,0.0,-2.7262,-2.7278,0.0,-2.7279,0.0,0.0,0.0,0.0,-2.8113,-2.8318,0.0,0.0,-2.8385,-2.8296,-2.7391,-2.9076,-2.9954,-3.0028,-3.0614,-3.0752,-3.0352,-2.9805,0.0,0.0,0.0,0.0,0.0,0.0,-3.1632,-3.2454,-3.1912,-3.1559,-3.1733,-3.3068,-3.3817,-3.3764,-3.3314,-3.2881,-3.2421,-3.1643,-3.1058,-3.0754,-3.0831,0.0,0.0,0.0,0.0,0.0,0.0,0.0,0.0,0.0,0.0,0.0,0.0,0.0,0.0,0.0,0.0,0.0,0.0,0.0,0.0,-2.5094,0.0,0.0,0.0,0.0,0.0,0.0,0.0,0.0,0.0,0.0,-2.5464,-2.5613,-2.5578,-2.5265,0.0,0.0,0.0,0.0,-2.6961,-2.4217,-2.4719,-2.5122,-2.4,-2.428,-2.4797,-2.5109,0.0,0.0,-2.5266,-2.4061,-2.3186,-2.2772,-2.3079,-2.3517,-2.4715,-2.4098,-2.3519,-2.3846,-2.3651,-2.3161,-2.2826,-2.2925,-2.2598,-2.5677,0.0,0.0,0.0,0.0,-2.7074,-2.6419,-2.6643,-2.5056,-2.4856,-2.5603,-2.5514,0.0,0.0,0.0,0.0,0.0,0.0,-2.7671,-2.7937,-2.7193,-2.6815,-2.6752,-2.7488,-2.7668,-2.724,-2.7966,-2.8089,-2.7578,-2.7904,-2.8439,-2.9158,0.0,0.0,0.0,0.0,-2.9885,-3.1201,-3.0973,-3.1324,-3.2284,-3.3037,-3.3288,-3.2992,-3.2604,-3.207,-3.1358,-3.1138,-3.0888,-3.0775,-3.0348,0.0,0.0,0.0,0.0,0.0,0.0,0.0,0.0,0.0,0.0,0.0,0.0,0.0,0.0,0.0,0.0,0.0,0.0,0.0,-2.5342,-2.4623,-2.4005,0.0,0.0,0.0,0.0,0.0,0.0,0.0,0.0,0.0,-2.6218,-2.5708,-2.5312,0.0,0.0,-2.4795,-2.4357,-2.526,-2.5832,-2.5525,-2.5793,0.0,-2.6193,-2.5896,-2.5685,-2.5547,-2.5727,-2.5714,-2.5209,-2.4963,-2.4679,-2.4122,-2.4141,-2.4208,-2.4293,-2.405,-2.403,-2.4482,-2.4317,-2.4069,-2.4142,-2.3751,-2.3375,-2.3635,-2.4569,-2.5073,-2.601,-2.7056,-2.5542,-2.5066,-2.5239,-2.3799,-2.353,-2.4164,-2.4164,-2.4467,-2.5057,-2.5556,0.0,0.0,0.0,-2.6735,-2.7352,-2.6589,-2.6289,-2.6445,-2.67,-2.6605,-2.6266,-2.6702,-2.6815,-2.6617,-2.6929,-2.7202,-2.7555,0.0,0.0,-2.9665,-2.9001,-2.9302,-3.0557,-3.0199,-3.0373,-3.1199,-3.1942,-3.2259,-3.2183,-3.1693,-3.1082,-3.0496,-3.0184,-3.0038,-2.9868,-2.9392,-2.9211,0.0,0.0,0.0,0.0,0.0,0.0,0.0,0.0,0.0,0.0,0.0,-2.88,-2.7204,0.0,0.0,0.0,-2.5338,-2.4735,-2.4529,-2.4126,0.0,0.0,0.0,0.0,0.0,0.0,0.0,-2.4611,-2.5307,-2.6065,-2.6588,-2.6269,-2.6041,-2.6224,-2.5707,-2.5255,-2.5122,0.0,-2.6078,-2.6534,-2.6366,-2.6372,-2.6914,-2.6806,-2.6522,-2.6321,-2.6157,-2.585,-2.5398,-2.5372,-2.5165,-2.4765,-2.446,-2.4329,-2.3998,-2.3856,-2.3985,-2.4499,-2.4284,-2.4062,-2.4234,-2.3989,-2.3747,-2.1885,-2.2055,-2.3805,-2.4378,-2.4137,-2.4137,-2.3985,-2.3706,-2.3212,-2.3136,-2.3364,-2.3389,-2.3427,-2.3403,-2.3732,0.0,-2.4516,-2.5114,-2.5596,-2.6077,-2.6266,-2.64,-2.64,-2.6413,-2.6413,-2.6386,-2.6413,-2.6558,-2.6898,-2.6596,-2.634,-2.6219,-2.8075,-2.9724,-3.0906,-2.9618,-2.9385,-3.0146,-2.94,-2.9122,-2.9167,-3.0145,-3.0938,-3.1252,-3.0611,-3.0013,-2.972,-2.9067,-2.8627,-2.8558,-2.8212,-2.8128,-2.8362,0.0,0.0,0.0,0.0,0.0,0.0,0.0,0.0,0.0,0.0,0.0,0.0,0.0,0.0,-2.5808,-2.4437,0.0,-2.3992,-2.3702,0.0,0.0,0.0,-2.4305,-2.496,-2.5115,-2.5334,-2.5576,0.0,0.0,-2.6786,-2.7061,-2.7292,-2.743,-2.7289,-2.709,-2.6801,-2.7022,-2.7299,-2.7316,-2.6817,-2.6624,-2.7077,-2.7199,-2.7221,-2.719,-2.6938,-2.6345,-2.5749,-2.5307,-2.4987,-2.465,-2.432,-2.4092,-2.3691,-2.3669,-2.3668,-2.3917,-2.3747,-2.353,-2.3553,-2.3733,-2.3787,-2.1993,-2.2285,-2.2873,-2.2998,-2.2829,-2.2753,-2.2942,-2.3092,-2.2967,-2.2942,-2.3017,-2.3142,-2.3313,-2.341,-2.3847,-2.4374,-2.4916,-2.5425,-2.5885,-2.6293,-2.636,-2.64,-2.64,-2.6613,-2.66,-2.6413,-2.6613,-2.6573,-2.6249,-2.6673,-2.6683,-2.6484,-2.7478,-2.7795,-2.7386,-2.7523,-2.7923,-2.8397,-2.8596,-2.8952,-2.9511,-2.9852,-2.9824,-2.9579,-2.95,-2.921,-2.8803,-2.8208,-2.8231,-2.8985,-2.767,-2.7248,-2.7772,-2.6548,0.0,0.0,0.0,0.0,0.0,0.0,0.0,0.0,0.0,-2.655,-2.4036,0.0,-2.4879,0.0,-2.4242,-2.4232,-2.4283,-2.4032,0.0,0.0,-2.4204,-2.4316,-2.4484,-2.5428,-2.607,-2.591,-2.6661,-2.7304,-2.7653,-2.7785,-2.8125,-2.8919,-2.8011,-2.7154,-2.7085,-2.7578,-2.7975,-2.7982,-2.8272,-2.8609,-2.857,-2.8272,-2.7819,-2.7538,-2.6846,-2.6207,-2.5981,-2.55,-2.5017,-2.4709,-2.4576,-2.4335,-2.4027,-2.377,-2.3613,-2.3717,-2.3764,-2.3857,-2.3864,-2.4069,-2.4171,-2.1776,-2.1945,-2.2394,-2.2467,-2.2346,-2.2455,-2.2578,-2.2804,-2.2681,-2.2632,-2.2657,-2.3037,-2.3426,-2.3861,-2.4177,-2.4581,-2.513,-2.5594,-2.599,-2.64,-2.652,-2.6587,-2.6587,-2.6881,-2.6934,-2.6787,-2.6947,-2.6787,-2.6373,-2.6745,-2.6756,-2.6472,-2.7028,-2.7083,-2.6686,-2.7254,-2.753,-2.7571,-2.8268,-2.8864,-2.9351,-2.938,-2.9105,-2.8532,-2.8849,-2.8758,-2.823,-2.7866,-2.782,-2.8044,-2.6917,-2.6387,-2.6585,-2.5597,-2.4948,0.0,0.0,0.0,0.0,0.0,0.0,0.0,0.0,0.0,0.0,0.0,-2.4591,-2.4049,-2.4272,-2.4494,-2.446,-2.4337,-2.435,-2.4579,-2.5038,-2.5352,-2.5587,-2.6659,-2.7261,-2.7159,-2.7748,-2.8283,-2.8491,-2.8639,-2.8998,-2.9629,-2.8935,-2.8382,-2.851,-2.8788,-2.8932,-2.8947,-2.9122,-2.9226,-2.9082,-2.8567,-2.7952,-2.7428,-2.6899,-2.6489,-2.6131,-2.5628,-2.5198,-2.5022,-2.4774,-2.4576,-2.432,-2.4042,-2.3779,-2.3652,-2.3688,-2.3779,-2.3669,-2.3744,-2.3731,-2.1523,-2.1619,-2.2078,-2.2346,-2.2271,-2.2576,-2.2673,-2.2661,-2.2355,-2.237,-2.2467,-2.2951,-2.3683,-2.448,-2.4652,-2.4891,-2.5209,-2.5673,-2.607,-2.6413,-2.6694,-2.68,-2.6787,-2.7108,-2.735,-2.7268,-2.7228,-2.7094,-2.6881,-2.6841,-2.6694,-2.6453,-2.681,-2.712,-2.7202,-2.77,-2.782,-2.7445,-2.8168,-2.8662,-2.89,-2.8808,-2.8453,-2.7839,-2.8424,-2.8429,-2.774,-2.773,-2.742,-2.6814,-2.6234,-2.5825,-2.5594,-2.5227,-2.4974,0.0,-2.4694,0.0,0.0,0.0,0.0,0.0,0.0,0.0,0.0,-2.4878,-2.4866,-2.4588,-2.4743,-2.4891,-2.4891,-2.4817,-2.5073,-2.563,-2.6032,-2.6505,-2.7136,-2.7888,-2.8446,-2.8446,-2.8868,-2.9048,-2.9064,-2.9425,-2.9559,-2.9606,-2.9575,-2.9648,-3.0096,-2.9871,-2.9707,-2.9739,-2.9439,-2.9048,-2.8656,-2.8305,-2.7806,-2.7263,-2.6986,-2.6825,-2.619,-2.5813,-2.5579,-2.5476,-2.5081,-2.4715,-2.4709,-2.4364,-2.4071,-2.3823,-2.3711,-2.3543,-2.3184,-2.308,-2.296,-2.1728,-2.2126,-2.2223,-2.2346,-2.2346,-2.2382,-2.2406,-2.2331,-2.2283,-2.2576,-2.2988,-2.3614,-2.4091,-2.4559,-2.5276,-2.5594,-2.5673,-2.607,-2.6307,-2.64,-2.6694,-2.6694,-2.6507,-2.7014,-2.735,-2.7241,-2.7028,-2.7001,-2.7175,-2.6934,-2.6787,-2.6747,-2.7068,-2.7001,-2.66,0.0,0.0,0.0,-2.8225,-2.823,-2.8793,-2.8182,-2.7699,-2.7347,-2.7685,0.0,-2.7354,-2.7044,-2.6988,-2.706,-2.6458,0.0,0.0,0.0,0.0,0.0,0.0,0.0,0.0,0.0,0.0,0.0,-2.5982,-2.5621,-2.4709,-2.5405,-2.602,-2.6246,-2.6377,-2.6405,-2.6405,-2.6027,-2.5916,-2.6047,-2.6123,-2.6288,-2.6799,-2.7483,-2.8023,-2.8421,-2.8703,-2.8942,-2.8913,-2.902,-2.916,-2.9453,-2.9576,-2.9715,-3.0069,-2.994,-2.9731,-2.97,-2.9152,-2.86,-2.8233,-2.786,-2.7535,-2.7084,-2.6805,-2.6572,-2.6398,-2.6135,-2.5813,-2.5539,-2.5432,-2.5227,-2.5075,-2.4701,-2.4518,-2.4393,-2.3969,-2.3398,-2.283,-2.2899,-2.3006,-2.1704,-2.2066,-2.2285,-2.2346,0.0,-2.2346,-2.2406,-2.2527,-2.2527,-2.3059,-2.386,-2.4243,-2.4692,-2.5197,-2.5594,-2.5832,-2.5832,-2.6228,-2.64,-2.64,-2.6694,-2.6747,-2.6613,-2.7201,-2.7482,-2.7482,-2.7468,-2.7468,-2.7468,-2.7335,-2.7108,-2.6841,-2.7255,-2.7188,-2.664,-2.7688,-2.8571,-2.9139,-2.8905,-2.8972,-2.9369,-2.8972,-2.8576,-2.8289,-2.8561,0.0,0.0,0.0,0.0,0.0,0.0,0.0,0.0,0.0,0.0,-2.6407,-2.6407,-2.639,-2.6322,-2.6336,-2.6533,-2.6906,-2.6934,-2.6669,-2.591,-2.6322,-2.6787,-2.7158,-2.7172,-2.7172,-2.7172,-2.694,-2.6876,-2.6876,-2.6876,-2.7031,-2.7431,-2.7777,-2.8187,-2.8589,-2.8798,-2.8886,-2.8886,-2.9056,-2.929,-2.9446,-2.9523,-2.9679,-3.0253,-3.0022,-2.959,-2.9177,-2.8529,-2.8024,-2.7862,-2.7539,-2.7274,-2.7041,-2.6852,-2.6764,-2.6735,-2.6339,-2.5959,-2.5769,-2.552,-2.5242,-2.5163,-2.492,-2.4826,-2.4569,-2.4174,-2.3706,-2.3193,-2.298,-2.2778,-2.1655,-2.1957,-2.2249,-2.2346,-2.2346,-2.2346,-2.2515,-2.2794,-2.2919,0.0,0.0,-2.4827,-2.5203,-2.5832,-2.5911,-2.5911,-2.5911,-2.6228,-2.6413,-2.648,-2.6774,-2.6894,-2.6921,-2.7442,-2.7709,-2.7709,-2.798,-2.798,-2.7779,-2.7725,-2.7375,-2.7068,-2.7388,-2.7348,-2.7042,-2.7932,-2.8706,-2.9082,-2.9406,-2.9569,-2.9712,-2.9617,-2.9377,-2.9058,-2.9363,-2.9217,-2.8517,-2.8899,-2.8497,-2.7375,-2.7579,-2.7415,-2.6706,-2.6904,-2.7121,-2.7197,-2.7197,-2.731,-2.7474,-2.7488,-2.7601,-2.7776,-2.779,-2.7692,-2.7438,-2.7424,-2.7523,-2.7762,-2.7869,-2.779,-2.779,-2.7712,-2.7712,-2.7712,-2.7712,-2.779,-2.8197,-2.8289,-2.8417,-2.8808,-2.8886,-2.8886,-2.8886,-2.9134,-2.9368,-2.9368,-2.9368,-2.9616,-3.0191,-2.9916,-2.9442,-2.885,-2.8161,-2.7597,-2.7509,-2.7304,-2.6998,-2.6998,-2.6983,-2.6983,-2.6837,-2.6473,-2.6122,-2.5862,-2.548,-2.5257,-2.5096,-2.5052,-2.5031,-2.4782,-2.4335,-2.3998,-2.3706,-2.3164,-2.271,-2.1764,-2.2285,-2.2247,-2.2346,-2.2346,-2.2346,-2.2612,-2.3072,-2.3614,-2.3996,-2.4227,-2.5189,-2.5714,-2.5832,-2.6149,-2.6307,-2.6307,-2.6386,-2.652,-2.6774,-2.7068,-2.7201,-2.7228,-2.7549,-2.7709,-2.7682,-2.7495,-2.7742,-2.8166,-2.7702,-2.7445,-2.7717,-2.7445,-2.7405,-2.7457,-2.7784,-2.8284,-2.8833,-2.8876,-2.8956,-2.8979,-2.8579,-2.8171,-2.7889,-2.825,-2.8185,-2.7889,-2.7968,-2.7833,-2.7577,-2.7563,-2.777,-2.8011,-2.804,-2.8224,-2.8599,-2.8599,-2.8628,-2.8657,-2.8671,-2.8686,-2.873,-2.873,-2.8559,-2.8218,-2.814,-2.831,-2.8651,-2.8651,-2.873,-2.873,-2.8431,-2.8197,-2.8197,-2.7883,-2.779,-2.8275,-2.8289,-2.8431,-2.8808,-2.8886,-2.8886,-2.8886,-2.8964,-2.9042,-2.8964,-2.9134,-2.9119,-2.9245,-2.947,-2.9473,-2.8988,-2.8088,-2.76,-2.7497,-2.7232,-2.7013,-2.6998,-2.6998,-2.691,-2.6619,-2.6634,-2.643,-2.5682,-2.5621,-2.5582,-2.5213,-2.5066,-2.5105,-2.5002,-2.451,-2.4101,-2.3984,-2.3457,-2.2959,-2.1704,-2.2054,-2.2198,-2.2346,-2.2283,-2.2636,-2.2903,-2.3235,-2.4186,-2.461,-2.4781,-2.57,-2.6149,-2.6149,-2.6307,-2.64,-2.64,-2.64,-2.6547,-2.6827,-2.6961,-2.7121,-2.7281,-2.7562,-2.7709,-2.7696,-2.7985,-2.8315,-2.8605,-2.8302,-2.8166,-2.8167,-2.7594,-2.7445,-2.7635,-2.7771,-2.8029,-2.8295,-2.8778,-2.9166,-2.9406,-2.9166,-2.9085,-2.9114,-2.91,-2.91,-2.9128,-2.8956,-2.8856,-2.8856,-2.8698,-2.8676,-2.8848,-2.8768,-2.8744,-2.8886,-2.8886,-2.8886,-2.8886,-2.8886,-2.8886,-2.8886,-2.8886,-2.8822,-2.8666,-2.8588,-2.8666,-2.8886,-2.8886,-2.8886,-2.8886,-2.8744,-2.8666,-2.8588,-2.8275,-2.8197,-2.851,-2.8431,-2.8431,-2.8808,-2.8886,-2.8886,-2.8886,-2.8886,-2.8886,-2.89,-2.9042,-2.9134,-2.8964,-2.9162,-2.9183,-2.868,-2.8056,-2.7599,-2.7466,-2.7203,-2.7027,-2.6998,-2.6998,-2.691,-2.675,-2.6649,-2.6171,-2.5755,-2.5711,-2.5493,-2.5099,-2.5178,-2.5242,-2.5105,-2.4767,-2.44,-2.4086,-2.3559,-2.3032,-2.1535,-2.18,-2.1993,-2.2114,-2.2297,-2.2866,-2.3121,-2.3324,-2.456,-2.513,-2.5368,-2.607,-2.64,-2.64,-2.64,-2.6426,-2.648,-2.6493,-2.668,-2.7001,-2.7028,-2.7175,-2.7468,-2.7696,-2.7886,-2.7996,-2.8547,-2.8908,-2.9076,-2.8908,-2.863,-2.8315,-2.7823,-2.7549,-2.7696,-2.7811,-2.7826,-2.7934,-2.8653,-2.9301,-2.9705,-2.9793,-2.991,-3.0284,-2.9998,-2.9983,-3.0203,-2.9998,-2.9947,-2.9932,-2.9617,-2.9486,-2.9486,-2.9251,-2.9105,-2.9105,-2.9105,-2.9076,-2.9003,-2.893,-2.8886,-2.8886,-2.8886,-2.8964,-2.9056,-2.9056,-2.8964,-2.8886,-2.8886,-2.8886,-2.8886,-2.8886,-2.8886,-2.8886,-2.8666,-2.8588,-2.8808,-2.8588,-2.851,-2.8808,-2.8886,-2.8886,-2.8886,-2.8886,-2.8886,-2.8964,-2.9212,-2.9212,-2.8934,-2.8975,-2.8842,-2.8494,-2.7993,-2.7583,-2.7481,-2.7291,-2.71,-2.7027,-2.6998,-2.691,-2.6808,-2.633,-2.5927,-2.5769,-2.5513,-2.5314,-2.5029,-2.5221,-2.5342,-2.5208,-2.4926,-2.454,-2.4013,-2.3603,-2.3135,-2.1269,-2.1498,-2.1571,-2.1691,-2.2067,-2.2794,-2.334,-2.3736,-2.4651,-2.5368,-2.5753,-2.6228,-2.64,-2.64,-2.64,-2.6533,-2.676,-2.6787,-2.7068,-2.7562,-2.7615,-2.7776,-2.81,-2.8167,-2.8362,-2.8685,-2.881,-2.9244,-2.9928,-2.9244,-2.8642,-2.8278,-2.8154,-2.8006,-2.7805,-2.7765,-2.7783,-2.7934,-2.8395,-2.8815,-2.9205,-2.9414,-2.9573,-2.9976,-2.9881,-2.9881,-2.9968,-2.9881,-2.9947,-2.9947,-2.9851,-2.9822,-2.9807,-2.9778,-2.9844,-2.9749,-2.9844,-2.9647,-2.9354,-2.9061,-2.8915,-2.8886,-2.8915,-2.9071,-2.9383,-2.9461,-2.929,-2.9071,-2.89,-2.8993,-2.89,-2.8915,-2.8944,-2.893,-2.8915,-2.8886,-2.8886,-2.8886,-2.8886,-2.8886,-2.8886,-2.8886,-2.8886,-2.8886,-2.8886,-2.8886,-2.8964,-2.8964,-2.8886,-2.892,-2.8953,-2.8725,-2.8315,-2.7847,-2.7613,-2.7466,-2.7261,-2.7027,-2.7013,-2.6823,-2.6589,-2.6385,-2.6198,-2.5536,-2.5352,-2.5112,-2.5017,-2.5116,-2.5383,-2.5267,-2.4987,-2.4759,-2.394,-2.3554,-2.3301,-2.1281,-2.1328,-2.1788,-2.2202,-2.2607,-2.3216,-2.3743,-2.4162,-2.4854,-2.5438,-2.5819,-2.6228,-2.64,-2.64,-2.6573,-2.672,-2.6827,-2.7001,-2.7295,-2.7682,-2.7709,-2.7856,-2.8207,-2.8487,-2.8655,-2.8824,-2.9328,-2.9844,-3.0095,-2.983,-2.9411,-2.8978,-2.8978,-2.8909,-2.8799,-2.8799,-2.8814,-2.8855,-2.91,-2.9428,-2.9707,-2.9682,-2.9903,-3.0196,-3.024,-3.0246,-3.0407,-3.0437,-3.0437,-3.0422,-3.0246,-3.024,-3.0225,-2.9968,-2.9947,-2.9947,-2.9947,-2.9807,-2.9676,-2.9529,-2.9471,-2.9471,-2.9532,-2.9665,-2.9729,-2.9799,-2.9895,-2.9934,-2.9744,-2.9567,-2.9506,-2.9471,-2.9383,-2.9222,-2.9178,-2.9105,-2.89,-2.89,-2.8886,-2.8886,-2.8886,-2.89,-2.8886,-2.8886,-2.8886,-2.8886,-2.8886,-2.8886,-2.8886,-2.8886,-2.8886,-2.8856,-2.8651,-2.8249,-2.7777,-2.7485,-2.7251,-2.6986,-2.6794,-2.6691,-2.6404,-2.608,-2.5834,-2.5308,-2.5021,-2.4898,-2.4781,-2.4856,-2.5028,-2.4974,-2.4791,-2.4417,-2.3728,-2.3363,-2.3064,-2.1316,-2.1231,-2.2066,-2.2616,-2.298,-2.3516,-2.4099,-2.4534,-2.5037,-2.5557,-2.5977,-2.6307,-2.64,-2.6426,-2.6694,-2.6867,-2.6974,-2.7255,-2.7535,-2.7789,-2.7816,-2.802,-2.8389,-2.8655,-2.8908,-2.9244,-2.9844,-3.0179,-3.0179,-3.0179,-2.9998,-2.9565,-2.9495,-2.9495,-2.9495,-2.9495,-2.9495,-2.9551,-2.9687,-2.995,-3.0162,-3.0132,-3.0246,-3.0451,-3.0481,-3.0583,-3.0803,-3.0817,-3.0817,-3.0817,-3.0598,-3.0481,-3.0481,-3.0334,-3.0261,-3.0232,-3.0086,-2.9998,-2.9998,-2.991,-2.9947,-2.9932,-2.9952,-2.9992,-3.0121,-3.0163,-3.043,-3.0877,-3.0604,-3.039,-3.0305,-3.0108,-2.9924,-2.9704,-2.9521,-2.9295,-2.9193,-2.909,-2.9076,-2.9134,-2.912,-2.8973,-2.8915,-2.8886,-2.8886,-2.8886,-2.8886,-2.8886,-2.8886,-2.8886,-2.8886,-2.8886,-2.8886,-2.8676,-2.8105,-2.7707,-2.7307,-2.6951,-2.6819,-2.6659,-2.6313,-2.5985,-2.5589,-2.5215,-2.479,-2.4449,-2.4296,-2.4361,-2.4702,-2.4715,-2.4524,-2.4191,-2.3746,-2.3276,-2.2724,-2.1135,-2.129,-2.2079,-2.2601,-2.2713,-2.3502,-2.4239,-2.4892,-2.5179,-2.5714,-2.6267,-2.6386,-2.64,-2.6413,-2.6694,-2.6974,-2.7255,-2.7522,-2.7816,-2.8083,-2.8194,-2.8376,-2.874,-2.8824,-2.9244,-2.9928,-3.0179,-3.0263,-3.0263,-3.0263,-2.9998,-2.9565,-2.9579,-2.9565,-2.9565,-2.9565,-2.9565,-2.9649,-2.9969,-3.0234,-3.0248,-3.0538,-3.0744,-3.0773,-3.0788,-3.0788,-3.0817,-3.0817,-3.0817,-3.0817,-3.0788,-3.0788,-3.0817,-3.1037,-3.1168,-3.1139,-3.0656,-3.0416,-3.029,-3.0071,-2.991,-2.9976,-2.9961,-3.0093,-3.0415,-3.05,-3.0846,-3.1467,-3.1518,-3.1376,-3.1193,-3.0806,-3.0585,-3.0415,-2.9827,-2.9639,-2.9844,-2.9565,-2.9529,-2.9647,-2.9565,-2.9301,-2.8944,-2.8886,-2.8886,-2.8886,-2.8886,-2.8886,-2.8886,-2.8886,-2.8886,-2.8886,-2.8871,-2.8783,-2.8443,-2.7894,-2.7597,-2.7191,-2.6843,-2.6613,-2.6474,-2.6212,-2.5711,-2.5112,-2.4591,-2.41,-2.3761,-2.3879,-2.4349,-2.4407,-2.4227,-2.3892,-2.3482,-2.2916,-2.2472,-2.1603,-2.2069,-2.2589,-2.3024,-2.3418,-2.4061,-2.4582,-2.5023,-2.5302,-2.5684,-2.6119,-2.6306,-2.64,-2.6413,-2.6694,-2.6987,-2.7363,-2.7562,-2.7856,-2.8207,-2.8234,-2.8221,-2.8487,-2.8978,-2.9411,-2.9747,-3.0332,-3.0582,-3.0582,-3.0582,-3.0499,-3.0317,-3.0317,-3.0317,-3.0317,-3.0317,-3.0317,-3.0317,-3.0499,-3.0582,-3.0582,-3.0749,-3.0817,-3.0817,-3.0817,-3.0817,-3.0817,-3.0817,-3.0817,-3.0817,-3.0817,-3.0817,-3.0832,-3.0934,-3.1095,-3.1242,-3.089,-3.0656,-3.0642,-3.0554,-3.0481,-3.0466,-3.0536,-3.0676,-3.0809,-3.0902,-3.1224,-3.1822,-3.2062,-3.2062,-3.2135,-3.1808,-3.1472,-3.126,-3.08,-3.0343,-3.0269,-2.9924,-2.9749,-2.9873,-2.9827,-2.9656,-2.9365,-2.9267,-2.9212,-2.8964,-2.8886,-2.8886,-2.8886,-2.8886,-2.8886,-2.8886,-2.8886,-2.8856,-2.8769,-2.8103,-2.7501,-2.7148,-2.6781,-2.6489,-2.6212,-2.609,-2.5675,-2.5066,-2.4415,-2.4059,-2.3769,-2.354,-2.3944,-2.3879,-2.3715,-2.3456,-2.3145,-2.267,-2.2255,-2.21,-2.2718,-2.3117,-2.3661,-2.4125,-2.4422,-2.4884,-2.5254,-2.546,-2.5678,-2.5972,-2.6253,-2.64,-2.6413,-2.6746,-2.6988,-2.7268,-2.7562,-2.7856,-2.8207,-2.8234,-2.8305,-2.8487,-2.9146,-2.9565,-2.983,-3.0415,-3.0817,-3.0817,-3.0817,-3.0817,-3.0817,-3.0817,-3.0817,-3.0817,-3.0817,-3.0817,-3.0817,-3.0817,-3.0817,-3.0817,-3.0817,-3.0817,-3.0817,-3.0817,-3.0876,-3.0964,-3.0978,-3.0978,-3.0978,-3.0978,-3.0978,-3.0978,-3.0978,-3.1081,-3.1256,-3.111,-3.1003,-3.0998,-3.0984,-3.1067,-3.1233,-3.1137,-3.1168,-3.1153,-3.104,-3.1447,-3.2007,-3.2313,-3.2422,-3.2839,-3.2736,-3.2412,-3.1936,-3.139,-3.0958,-3.0839,-3.0491,-3.0189,-3.0174,-3.0284,-3.0126,-2.9715,-2.968,-2.9502,-2.9149,-2.9042,-2.8886,-2.8886,-2.8886,-2.8886,-2.8886,-2.8886,-2.8886,-2.8764,-2.8281,-2.7812,-2.7393,-2.6751,-2.637,-2.6146,-2.5974,-2.5608,-2.501,-2.447,-2.4112,-2.377,-2.3455,-2.3342,-2.3354,-2.3141,-2.294,-2.2651,-2.2438,-2.2094,-2.2488,-2.3031,-2.3693,-2.4203,-2.4643,-2.4649,-2.5033,-2.5589,-2.5585,-2.5778,-2.6138,-2.6318,-2.6517,-2.6558,-2.6822,-2.712,-2.7405,-2.77,-2.7996,-2.8292,-2.8305,-2.8571,-2.8992,-2.9481,-2.9998,-3.043,-3.0665,-3.09,-3.1067,-3.0984,-3.09,-3.09,-3.0817,-3.0817,-3.0817,-3.0817,-3.0817,-3.0817,-3.0817,-3.0817,-3.0817,-3.0817,-3.0817,-3.0817,-3.0817,-3.0978,-3.1285,-3.1285,-3.1285,-3.1315,-3.1315,-3.1315,-3.1315,-3.1256,-3.1285,-3.137,-3.1285,-3.1376,-3.1458,-3.1482,-3.1662,-3.1911,-3.173,-3.152,-3.1505,-3.1159,-3.1324,-3.2098,-3.2293,-3.2587,-3.323,-3.3328,-3.2983,-3.2309,-3.1556,-3.1235,-3.137,-3.1168,-3.0825,-3.0595,-3.0684,-3.0689,-3.0256,-3.0141,-3.0021,-2.9673,-2.9271,-2.9008,-2.8978,-2.8964,-2.8886,-2.8886,-2.8886,-2.8886,-2.8744,-2.851,-2.8104,-2.7633,-2.6991,-2.6491,-2.6279,-2.6107,-2.5714,-2.514,-2.4326,-2.3968,-2.3828,-2.3451,-2.3162,-2.3064,-2.2753,-2.2619,-2.2596,-2.246,-2.2091,-2.281,-2.307,-2.3693,-2.4316,-2.4815,-2.4943,-2.5281,-2.576,-2.5902,-2.6205,-2.6509,-2.6799,-2.7047,-2.7134,-2.7097,-2.7426,-2.8151,-2.8275,-2.8579,-2.9077,-2.9062,-2.9481,-3.015,-3.0651,-3.1233,-3.1911,-3.2076,-3.2309,-3.2458,-3.1963,-3.1715,-3.1632,-3.1067,-3.0817,-3.0817,-3.0817,-3.0817,-3.0817,-3.0817,-3.0817,-3.0817,-3.0817,-3.0817,-3.0817,-3.0817,-3.1066,-3.1593,-3.1432,-3.1432,-3.1637,-3.1651,-3.1651,-3.1578,-3.1212,-3.1248,-3.1678,-3.1583,-3.1616,-3.1941,-3.2009,-3.2009,-3.2174,-3.2091,-3.2009,-3.2009,-3.1843,-3.2009,-3.2505,-3.2587,-3.2752,-3.2983,-3.2983,-3.2917,-3.2587,-3.215,-3.1857,-3.1881,-3.1557,-3.1182,-3.0807,-3.0906,-3.0914,-3.0785,-3.0781,-3.0639,-3.0336,-2.9867,-2.9572,-2.9364,-2.9086,-2.8886,-2.8886,-2.8886,-2.8886,-2.8822,-2.8666,-2.8353,-2.7883,-2.7254,-2.6702,-2.6425,-2.6162,-2.5846,-2.519,-2.445,-2.3959,-2.3807,-2.3528,-2.3214,-2.3004,-2.287,-2.2761,-2.2739,-2.2507,-2.2215,-2.316,-2.3276,-2.3927,-2.4603,-2.5184,-2.5327,-2.582,-2.6407,-2.673,-2.6937,-2.7163,-2.7459,-2.7607,-2.7633,-2.7759,-2.8255,-2.8772,-2.9076,-2.9664,-3.0245,-3.0067,-3.0317,-3.09,-3.1482,-3.2061,-3.2736,-3.2983,-3.3214,-3.3444,-3.2952,-3.2623,-3.2458,-3.1896,-3.1565,-3.1497,-3.1414,-3.1331,-3.1331,-3.1331,-3.1331,-3.1331,-3.1331,-3.139,-3.1479,-3.1494,-3.1851,-3.2401,-3.2282,-3.2096,-3.2001,-3.1871,-3.1798,-3.1754,-3.1417,-3.1395,-3.1816,-3.1879,-3.1881,-3.237,-3.2422,-3.2505,-3.2587,-3.2505,-3.2422,-3.2422,-3.2339,-3.2422,-3.2752,-3.2819,-3.2901,-3.2983,-3.3066,-3.2983,-3.2819,-3.2572,-3.2339,-3.2174,-3.1579,-3.115,-3.0939,-3.0987,-3.1071,-3.107,-3.1016,-3.1037,-3.0843,-3.0355,-2.9933,-2.9665,-2.9326,-2.911,-2.8959,-2.8886,-2.8886,-2.8886,-2.8744,-2.851,-2.804,-2.7504,-2.7032,-2.6689,-2.6452,-2.6083,-2.5345,-2.4585,-2.4165,-2.3945,-2.3592,-2.3266,-2.308,-2.306,-2.2879,-2.2821,-2.2624,-2.237,-2.3451,-2.3713,-2.4382,-2.5179,-2.5856,-2.5927,-2.6485,-2.7376,-2.7705,-2.7812,-2.7942,-2.8207,-2.8189,-2.8161,-2.8863,-2.9276,-2.9448,-3.0159,-3.1041,-3.164,-3.1565,-3.1399,-3.1482,-3.2128,-3.2803,-3.3148,-3.3542,-3.369,-3.3952,-3.369,-3.3624,-3.3542,-3.2983,-3.2736,-3.2572,-3.2339,-3.2091,-3.2174,-3.2205,-3.2152,-3.2235,-3.2281,-3.2305,-3.2663,-3.2609,-3.2898,-3.3416,-3.3538,-3.3237,-3.2455,-3.2118,-3.1871,-3.1841,-3.1812,-3.1948,-3.2149,-3.2089,-3.2396,-3.2763,-3.2834,-3.2999,-3.3246,-3.3081,-3.2819,-3.2819,-3.267,-3.2587,-3.2901,-3.2901,-3.3066,-3.3394,-3.3476,-3.323,-3.2901,-3.2819,-3.2587,-3.2174,-3.1414,-3.1081,-3.0915,-3.1135,-3.1392,-3.1026,-3.1115,-3.1112,-3.1048,-3.054,-3.0215,-2.9977,-2.9671,-2.9286,-2.9105,-2.8988,-2.8886,-2.8886,-2.8886,-2.8666,-2.8431,-2.7883,-2.7425,-2.6953,-2.6637,-2.6307,-2.5581,-2.5012,-2.4455,-2.4019,-2.3733,-2.3466,-2.343,-2.3249,-2.2995,-2.2927,-2.2778,-2.2573,-2.4476,-2.4149,-2.5322,-2.615,-2.6638,-2.7147,-2.7372,-2.757,-2.8178,-2.8462,-2.8445,-2.8761,-2.9105,-2.9431,-2.9695,-3.0102,-3.0686,-3.1503,-3.2313,-3.3101,-3.364,-3.3476,-3.3394,-3.3788,-3.4278,-3.4621,-3.4783,-3.5109,-3.5352,-3.4702,-3.4458,-3.4458,-3.3476,-3.2901,-3.2752,-3.2505,-3.2422,-3.2618,-3.2585,-3.276,-3.2958,-3.2938,-3.3022,-3.3083,-3.3098,-3.3328,-3.3655,-3.3914,-3.3774,-3.3233,-3.2514,-3.2149,-3.2221,-3.2289,-3.2453,-3.2774,-3.2968,-3.315,-3.3525,-3.347,-3.3426,-3.3492,-3.341,-3.3328,-3.3328,-3.3246,-3.3246,-3.3312,-3.3312,-3.3312,-3.3476,-3.3492,-3.3394,-3.3312,-3.3066,-3.2572,-3.1994,-3.1828,-3.1579,-3.0998,-3.0984,-3.1091,-3.1212,-3.1317,-3.1362,-3.1366,-3.1001,-3.0587,-3.0305,-2.9907,-2.9442,-2.9251,-2.9105,-2.8973,-2.8886,-2.8886,-2.8808,-2.873,-2.8275,-2.774,-2.7268,-2.6953,-2.6386,-2.5832,-2.5502,-2.5025,-2.448,-2.3995,-2.3903,-2.3604,-2.3514,-2.3273,-2.32,-2.3128,-2.2838,-2.4784,-2.4336,-2.588,-2.6709,-2.7004,-2.7647,-2.7964,-2.8044,-2.8567,-2.8942,-2.9003,-2.9048,-2.9443,-3.0052,-3.0402,-3.0816,-3.1502,-3.2451,-3.3188,-3.3838,-3.4621,-3.4702,-3.4539,-3.4865,-3.519,-3.5433,-3.5595,-3.5855,-3.5935,-3.5612,-3.5352,-3.519,-3.4376,-3.3886,-3.3968,-3.3476,-3.341,-3.3622,-3.3561,-3.3667,-3.385,-3.3829,-3.3909,-3.3917,-3.3979,-3.4135,-3.4477,-3.4504,-3.4261,-3.3777,-3.3203,-3.2923,-3.3069,-3.2872,-3.3037,-3.3606,-3.3653,-3.3719,-3.4076,-3.3905,-3.373,-3.3683,-3.3603,-3.3492,-3.3492,-3.3492,-3.3492,-3.3492,-3.3492,-3.3492,-3.3492,-3.3492,-3.3492,-3.3476,-3.323,-3.2819,-3.2076,-3.1911,-3.1662,-3.1248,-3.1067,-3.1067,-3.1233,-3.1399,-3.1475,-3.1504,-3.1115,-3.0855,-3.0683,-3.0123,-2.9647,-2.9456,-2.9281,-2.9134,-2.8973,-2.893,-2.8837,-2.8744,-2.8197,-2.774,-2.7504,-2.7032,-2.6544,-2.607,-2.5819,-2.5422,-2.4719,-2.4172,-2.3896,-2.3664,-2.3659,-2.3562,-2.3454,-2.3393,-2.3116,-2.4762,-2.452,-2.6279,-2.6989,-2.7104,-2.7726,-2.818,-2.8476,-2.8852,-2.9169,-2.9412,-2.9319,-2.9791,-3.033,-3.1308,-3.1747,-3.2077,-3.3273,-3.3952,-3.4539,-3.519,-3.5514,-3.519,-3.5352,-3.5595,-3.5676,-3.6016,-3.6178,-3.6178,-3.6178,-3.6097,-3.5838,-3.5514,-3.5352,-3.5027,-3.4783,-3.4816,-3.485,-3.4766,-3.476,-3.4874,-3.4826,-3.4859,-3.4877,-3.4925,-3.5051,-3.5288,-3.5137,-3.4787,-3.4349,-3.3822,-3.3792,-3.4025,-3.3418,-3.3644,-3.4173,-3.4182,-3.4233,-3.4424,-3.4255,-3.4064,-3.4016,-3.3746,-3.354,-3.3572,-3.354,-3.3492,-3.3492,-3.3492,-3.3492,-3.3492,-3.3508,-3.354,-3.3508,-3.3492,-3.323,-3.2819,-3.2159,-3.1565,-3.1482,-3.1497,-3.1316,-3.115,-3.1233,-3.1467,-3.1475,-3.1197,-3.0928,-3.0736,-3.038,-3.0035,-2.969,-2.95,-2.931,-2.9149,-2.8988,-2.8866,-2.8681,-2.7976,-2.7504,-2.749,-2.7097,-2.6623,-2.6215,-2.6056,-2.5422,-2.4559,-2.416,-2.392,-2.3828,-2.3756,-2.3659,-2.3575,-2.3495,-2.3393,-2.5314,-2.4974,-2.6891,-2.7696,-2.7874,-2.8659,-2.8706,-2.8115,-2.8762,-2.8972,-2.9102,-2.9716,-3.0494,-3.1241,-3.2463,-3.325,-3.3381,-3.442,-3.5271,-3.5774,-3.6563,-3.6644,-3.6339,-3.6178,-3.6178,-3.6339,-3.65,-3.6581,-3.6581,-3.65,-3.642,-3.6097,-3.5676,-3.5433,-3.5352,-3.5125,-3.5112,-3.5607,-3.5642,-3.5789,-3.59,-3.5869,-3.5751,-3.5517,-3.543,-3.5478,-3.5542,-3.5486,-3.5399,-3.5137,-3.4525,-3.4174,-3.4319,-3.436,-3.4473,-3.4657,-3.4768,-3.4836,-3.4859,-3.462,-3.4398,-3.4366,-3.4112,-3.3905,-3.3873,-3.3635,-3.3524,-3.3492,-3.3492,-3.3524,-3.354,-3.3762,-3.3715,-3.3556,-3.3476,-3.3476,-3.323,-3.2819,-3.2242,-3.1813,-3.1828,-3.1843,-3.1399,-3.1482,-3.1565,-3.1482,-3.1218,-3.0871,-3.0739,-3.0578,-3.0343,-2.9968,-2.9822,-2.9632,-2.9266,-2.9012,-2.866,-2.846,-2.774,-2.7189,-2.7175,-2.7175,-2.6702,-2.6465,-2.6307,-2.5514,-2.448,-2.408,-2.384,-2.384,-2.384,-2.378,-2.364,-2.364,-2.3544,-2.6154,-2.5442,-2.7777,-2.8401,-2.8098,-2.8845,-2.8786,-2.8054,-2.8163,-2.8668,-2.9225,-2.9939,-3.0808,-3.2034,-3.3232,-3.3904,-3.4553,-3.5703,-3.6546,-3.7018,-3.7668,-3.7686,-3.7436,-3.7284,-3.7239,-3.7098,-3.6804,-3.6742,-3.6661,-3.6517,-3.6258,-3.6097,-3.5855,-3.5774,-3.5757,-3.5531,-3.5716,-3.6119,-3.6175,-3.6375,-3.6673,-3.6678,-3.6356,-3.5922,-3.5748,-3.5573,-3.5573,-3.5573,-3.5573,-3.5486,-3.5137,-3.4875,-3.4787,-3.4875,-3.4962,-3.5177,-3.5257,-3.5287,-3.5208,-3.497,-3.4747,-3.4747,-3.4445,-3.4191,-3.4048,-3.3826,-3.3651,-3.3572,-3.3619,-3.373,-3.3746,-3.3858,-3.3826,-3.3587,-3.3492,-3.3492,-3.341,-3.3066,-3.2654,-3.2242,-3.2324,-3.2257,-3.1994,-3.1896,-3.173,-3.1647,-3.1482,-3.1135,-3.0803,-3.0656,-3.0592,-3.029,-3.0255,-2.9925,-2.9471,-2.8956,-2.8454,-2.8004,-2.749,-2.7018,-2.6781,-2.686,-2.686,-2.6465,-2.599,-2.5276,-2.44,-2.408,-2.384,-2.384,-2.384,-2.384,-2.3748,-2.3712,-2.358,-2.6851,-2.5696,-2.838,-2.8836,-2.8085,-2.8578,-2.8609,-2.8072,-2.7598,-2.8397,-2.9686,-2.9952,-3.1097,-3.2567,-3.3899,-3.477,-3.5757,-3.694,-3.7986,-3.7942,-3.8559,-3.8522,-3.8352,-3.8362,-3.8257,-3.7703,-3.7392,-3.7168,-3.7025,-3.6719,-3.6974,-3.6627,-3.6442,-3.6575,-3.6442,-3.6356,-3.6563,-3.6912,-3.689,-3.6963,-3.7165,-3.7158,-3.6843,-3.6443,-3.6025,-3.5851,-3.5748,-3.5661,-3.5573,-3.5573,-3.5573,-3.5573,-3.5486,-3.5312,-3.5137,-3.5573,-3.5542,-3.5526,-3.5478,-3.5287,-3.5113,-3.5097,-3.4795,-3.4493,-3.4271,-3.4144,-3.3985,-3.3921,-3.3969,-3.4144,-3.4048,-3.4096,-3.3905,-3.3603,-3.3492,-3.3492,-3.341,-3.3164,-3.2901,-3.2736,-3.2819,-3.2736,-3.2587,-3.2407,-3.2076,-3.1828,-3.1647,-3.1316,-3.0984,-3.0788,-3.0642,-3.0583,-3.0466,-3.0372,-2.9866,-2.9037,-2.8518,-2.7945,-2.7416,-2.6953,-2.6479,-2.6228,-2.6149,-2.5911,-2.5435,-2.4878,-2.4387,-2.408,-2.392,-2.384,-2.384,-2.384,-2.384,-2.384,-2.364,-2.703,-2.5682,-2.7845,-2.8296,-2.7747,-2.8342,-2.8582,-2.8385,-2.7851,-2.8407,-2.9905,-3.0551,-3.1612,-3.3043,-3.5351,-3.6815,-3.7825,-3.8785,-3.9017,-3.8859,-3.9244,-3.9445,-3.917,-3.9281,-3.9147,-3.8909,-3.8533,-3.8312,-3.8303,-3.8472,-3.8082,-3.8053,-3.7742,-3.7583,-3.7362,-3.7435,-3.7432,-3.786,-3.7792,-3.7839,-3.7981,-3.7655,-3.7291,-3.6876,-3.6443,-3.6199,-3.6025,-3.5835,-3.5573,-3.5573,-3.5573,-3.5573,-3.5573,-3.5486,-3.5486,-3.5573,-3.5573,-3.5573,-3.5558,-3.5526,-3.5478,-3.5415,-3.5145,-3.4954,-3.4779,-3.4588,-3.4398,-3.443,-3.4525,-3.4636,-3.408,-3.4239,-3.4064,-3.3715,-3.3492,-3.3492,-3.3492,-3.341,-3.3164,-3.2983,-3.3148,-3.3246,-3.2999,-3.2752,-3.2422,-3.1994,-3.1647,-3.1316,-3.09,-3.0817,-3.0773,-3.0759,-3.0759,-3.0554,-3.0372,-2.9398,-2.8625,-2.8114,-2.762,-2.6994,-2.6426,-2.5686,-2.5368,-2.5435,-2.5356,-2.5025,-2.4627,-2.416,-2.392,-2.384,-2.384,-2.384,-2.384,-2.384,-2.384,-2.7661,-2.6346,-2.8381,-2.8575,-2.7792,-2.8505,-2.9008,-2.9059,-2.8654,-2.9425,-3.0943,-3.2079,-3.2874,-3.4098,-3.6243,-3.8084,-3.9164,-3.9883,-3.9962,-3.9745,-4.0249,-4.0309,-3.9959,-4.0151,-4.0113,-3.9892,-3.969,-3.9167,-3.8653,-3.8733,-3.8776,-3.8298,-3.8039,-3.788,-3.7738,-3.7685,-3.7968,-3.8383,-3.85,-3.8684,-3.887,-3.8323,-3.7808,-3.7291,-3.686,-3.653,-3.6269,-3.6112,-3.5835,-3.5661,-3.5573,-3.5573,-3.5573,-3.5573,-3.5573,-3.5573,-3.5573,-3.5573,-3.5573,-3.5573,-3.5573,-3.5558,-3.5399,-3.5224,-3.5065,-3.4874,-3.4779,-3.4827,-3.4859,-3.4922,-3.4604,-3.4541,-3.4255,-3.3873,-3.3603,-3.3492,-3.3492,-3.3492,-3.3312,-3.3148,-3.3312,-3.3328,-3.3246,-3.2917,-3.267,-3.2242,-3.1813,-3.1316,-3.09,-3.0817,-3.0817,-3.0788,-3.0773,-3.0612,-3.0407,-2.9784,-2.8919,-2.8457,-2.7918,-2.7275,-2.6585,-2.5924,-2.5527,-2.5368,-2.5276,-2.4866,-2.4467,-2.392,-2.384,-2.384,-2.384,-2.384,-2.384,-2.384,-2.384,-2.8397,-2.6879,-2.9154,-2.9273,-2.819,-2.919,-2.9936,-3.0219,-2.9993,-3.0952,-3.2667,-3.3607,-3.4324,-3.5267,-3.7054,-3.8953,-4.0099,-4.0529,-4.0607,-4.0645,-4.0936,-4.0955,-4.0859,-4.0917,-4.0896,-4.0428,-4.0457,-3.9992,-3.9331,-3.9285,-3.8966,-3.8787,-3.8526,-3.8275,-3.8195,-3.8267,-3.8462,-3.8872,-3.9093,-3.94,-3.943,-3.8939,-3.8237,-3.7894,-3.7378,-3.6946,-3.653,-3.6286,-3.6009,-3.5748,-3.5573,-3.5573,-3.5573,-3.5573,-3.5573,-3.5573,-3.5573,-3.5573,-3.5573,-3.5573,-3.5573,-3.5573,-3.5573,-3.5415,-3.5272,-3.5176,-3.5145,-3.5145,-3.516,-3.5113,-3.4922,-3.47,-3.4366,-3.4032,-3.3699,-3.3492,-3.3492,-3.3492,-3.3492,-3.341,-3.3492,-3.3492,-3.3328,-3.3246,-3.2917,-3.2339,-3.1911,-3.1399,-3.0984,-3.0817,-3.0817,-3.0773,-3.0715,-3.0598,-3.0437,-3.0098,-2.9382,-2.8882,-2.8297,-2.7783,-2.6983,-2.6228,-2.5832,-2.5356,-2.4559,-2.416,-2.384,-2.384,-2.384,-2.384,-2.384,-2.384,-2.384,-2.384,-2.384,-2.9072,-2.7323,-3.0178,-3.0475,-2.9393,-3.0605,-3.1676,-3.2216,-3.1933,-3.2861,-3.4556,-3.4857,-3.5312,-3.6428,-3.8156,-3.9797,-4.0725,-4.1016,-4.1016,-4.1036,-4.1191,-4.1191,-4.1094,-4.1113,-4.1152,-4.0937,-4.1014,-4.0771,-4.0495,-4.0639,-4.0472,-4.0005,-3.9559,-3.9522,-3.9213,-3.9141,-3.9485,-4.0005,-3.9855,-3.9736,-3.9618,-3.9195,-3.8939,-3.8597,-3.8066,-3.7291,-3.686,-3.653,-3.6096,-3.5661,-3.5589,-3.5589,-3.5573,-3.5573,-3.5573,-3.5573,-3.5573,-3.5589,-3.5621,-3.5589,-3.5621,-3.5621,-3.5589,-3.5558,-3.5478,-3.5446,-3.5446,-3.551,-3.5494,-3.5367,-3.5097,-3.4747,-3.4382,-3.408,-3.3778,-3.3572,-3.3492,-3.3492,-3.3492,-3.3492,-3.3492,-3.3492,-3.3492,-3.3328,-3.3164,-3.2587,-3.2009,-3.1497,-3.115,-3.09,-3.0817,-3.0788,-3.0773,-3.0671,-3.0612,-3.0243,-2.9856,-2.9324,-2.8787,-2.8227,-2.7406,-2.6623,-2.5753,-2.5117,-2.432,-2.384,-2.384,-2.384,-2.384,-2.384,-2.384,-2.384,-2.384,-2.384,-2.384,-2.9969,-2.8818,-3.0744,-3.0977,-3.0173,-3.1578,-3.2663,-3.3287,-3.3642,-3.4437,-3.5527,-3.608,-3.6958,-3.8161,-3.9362,-4.0199,-4.1016,-4.1172,-4.1172,-4.1172,-4.125,-4.1327,-4.1463,-4.158,-4.1542,-4.1896,-4.209,-4.2417,-4.2078,-4.1387,-4.0859,-4.0575,-4.0272,-4.0033,-4.0024,-3.9923,-4.0125,-4.0354,-4.0508,-4.0355,-4.0077,-3.9876,-3.9536,-3.9025,-3.8597,-3.7911,-3.7119,-3.686,-3.6269,-3.5867,-3.5732,-3.5875,-3.5939,-3.605,-3.6161,-3.6161,-3.6177,-3.6082,-3.5907,-3.5716,-3.5716,-3.5764,-3.5701,-3.5573,-3.5573,-3.5573,-3.5573,-3.5573,-3.5573,-3.5478,-3.5319,-3.5017,-3.4668,-3.4318,-3.3937,-3.3699,-3.3556,-3.3492,-3.3492,-3.3492,-3.3492,-3.354,-3.3556,-3.3309,-3.3128,-3.2752,-3.2159,-3.1579,-3.1233,-3.0984,-3.09,-3.0817,-3.0803,-3.0788,-3.0759,-3.0573,-3.0194,-2.9755,-2.9258,-2.8636,-2.7736,-2.6939,-2.607,-2.5197,-2.448,-2.408,-2.392,-2.384,-2.384,-2.384,-2.384,-2.384,-2.384,-2.384,-2.384,-3.1046,-3.0599,-3.1566,-3.1597,-3.1223,-3.2753,-3.3964,-3.4744,-3.5379,-3.6099,-3.6797,-3.7451,-3.8445,-3.9538,-3.9912,-4.0428,-4.1152,-4.1172,-4.1172,-4.1172,-4.125,-4.1405,-4.1618,-4.1812,-4.2164,-4.2971,-4.2784,-4.292,-4.291,-4.2436,-4.1592,-4.0805,-4.0603,-4.0373,-4.0262,-4.0253,-4.0473,-4.0675,-4.0895,-4.0855,-4.0554,-4.0385,-3.9876,-3.9486,-3.9009,-3.8512,-3.7394,-3.721,-3.6823,-3.6218,-3.6138,-3.6225,-3.6257,-3.6384,-3.6495,-3.6463,-3.6416,-3.64,-3.6225,-3.6082,-3.5939,-3.5907,-3.5812,-3.5573,-3.5573,-3.5573,-3.5573,-3.5573,-3.5573,-3.5573,-3.5494,-3.5224,-3.4843,-3.4493,-3.4175,-3.3905,-3.3699,-3.3667,-3.3746,-3.3889,-3.3873,-3.3683,-3.3616,-3.3321,-3.3109,-3.2768,-3.2242,-3.1662,-3.1331,-3.1013,-3.09,-3.0817,-3.0817,-3.0817,-3.0817,-3.07,-3.0378,-3.0048,-2.9645,-2.8976,-2.8188,-2.7268,-2.6452,-2.5581,-2.4706,-2.424,-2.4,-2.384,-2.384,-2.384,-2.384,-2.384,-2.384,-2.384,-2.384,-3.2436,-3.2424,-3.2897,-3.3023,-3.3069,-3.4694,-3.6024,-3.6804,-3.7297,-3.7868,-3.8393,-3.8844,-3.907,-3.9778,-4.0286,-4.0712,-4.125,-4.1172,-4.1327,-4.1327,-4.125,-4.156,-4.185,-4.2024,-4.2142,-4.2651,-4.3138,-4.33,-4.3239,-4.3562,-4.2721,-4.1834,-4.1229,-4.0741,-4.0538,-4.0612,-4.0712,-4.0877,-4.1126,-4.106,-4.0892,-4.0639,-4.0216,-3.9777,-3.9476,-3.8959,-3.7686,-3.772,-3.7391,-3.6531,-3.6482,-3.6559,-3.6574,-3.6574,-3.6606,-3.6733,-3.6447,-3.6527,-3.6638,-3.6352,-3.6098,-3.6002,-3.5812,-3.5573,-3.5573,-3.5573,-3.5573,-3.5573,-3.5573,-3.5573,-3.5478,-3.5256,-3.497,-3.4652,-3.4382,-3.4159,-3.3969,-3.3905,-3.4016,-3.4271,-3.4239,-3.4032,-3.3889,-3.3707,-3.3431,-3.3171,-3.256,-3.1979,-3.1322,-3.1057,-3.0915,-3.0817,-3.0817,-3.0817,-3.0817,-3.0671,-3.0495,-3.0217,-2.9807,-2.9254,-2.854,-2.7639,-2.6768,-2.5977,-2.5197,-2.4559,-2.408,-2.392,-2.384,-2.384,-2.384,-2.384,-2.384,-2.384,-2.384,-3.2973,-3.3046,-3.3877,-3.4316,-3.443,-3.6029,-3.6962,-3.7423,-3.7916,-3.8223,-3.8568,-3.8897,-3.9434,-4.0101,-4.0652,-4.1243,-4.1828,-4.1927,-4.1927,-4.1927,-4.2005,-4.2159,-4.239,-4.2584,-4.2916,-4.3473,-4.3966,-4.4455,-4.4701,-4.4541,-4.4293,-4.3476,-4.2366,-4.1842,-4.1592,-4.1054,-4.0998,-4.0987,-4.106,-4.106,-4.106,-4.0976,-4.0639,-4.0167,-4.0135,-3.9182,-3.7979,-3.7949,-3.7365,-3.6757,-3.6642,-3.6702,-3.686,-3.6749,-3.6845,-3.7035,-3.667,-3.667,-3.686,-3.6511,-3.613,-3.6034,-3.5796,-3.5573,-3.5573,-3.5573,-3.5573,-3.5573,-3.5573,-3.5573,-3.5542,-3.5446,-3.524,-3.4874,-3.4573,-3.435,-3.4271,-3.4191,-3.4302,-3.4573,-3.4493,-3.4334,-3.4223,-3.4128,-3.3901,-3.3609,-3.2912,-3.2282,-3.1622,-3.1003,-3.0846,-3.0817,-3.0817,-3.0817,-3.0817,-3.0744,-3.0642,-3.032,-2.9983,-2.9428,-2.8877,-2.8018,-2.7162,-2.6373,-2.5514,-2.4811,-2.4264,-2.3932,-2.384,-2.384,-2.384,-2.384,-2.384,-2.384,-2.384,-3.3532,-3.3711,-3.4957,-3.5435,-3.5529,-3.6833,-3.7571,-3.7799,-3.8186,-3.8356,-3.8274,-3.887,-3.9543,-4.0299,-4.0955,-4.162,-4.2169,-4.2293,-4.237,-4.237,-4.237,-4.2621,-4.2851,-4.3065,-4.3305,-4.422,-4.4608,-4.4923,-4.5463,-4.5331,-4.5251,-4.4863,-4.3958,-4.3112,-4.2132,-4.1565,-4.1145,-4.106,-4.106,-4.106,-4.106,-4.106,-4.0807,-4.056,-4.0588,-3.968,-3.8596,-3.8342,-3.7937,-3.7168,-3.6776,-3.7035,-3.7115,-3.7146,-3.7178,-3.7162,-3.7035,-3.6749,-3.6733,-3.6495,-3.6114,-3.6066,-3.578,-3.5621,-3.5573,-3.5573,-3.5573,-3.5573,-3.5573,-3.5573,-3.5573,-3.5526,-3.5351,-3.4986,-3.4636,-3.4414,-3.4493,-3.4477,-3.4668,-3.4859,-3.4747,-3.4668,-3.4636,-3.4509,-3.4103,-3.3662,-3.3005,-3.2388,-3.1924,-3.1273,-3.0846,-3.0817,-3.0817,-3.0817,-3.0817,-3.0759,-3.0685,-3.0378,-3.0042,-2.9734,-2.9145,-2.8318,-2.749,-2.6544,-2.5766,-2.4996,-2.4461,-2.4005,-2.3888,-2.384,-2.384,-2.384,-2.384,-2.384,-2.384,-3.4389,-3.4602,-3.6093,-3.6508,-3.6299,-3.7038,-3.7825,-3.8379,-3.8437,-3.8397,-3.8481,-3.9137,-3.9865,-4.0463,-4.131,-4.2072,-4.2439,-4.2524,-4.2524,-4.26,-4.2677,-4.2774,-4.2968,-4.3259,-4.3639,-4.4138,-4.4526,-4.5002,-4.5685,-4.5608,-4.5814,-4.5839,-4.4944,-4.3774,-4.2485,-4.1565,-4.1145,-4.106,-4.106,-4.106,-4.106,-4.106,-4.0807,-4.0766,-4.0939,-4.02,-3.9184,-3.8978,-3.8624,-3.7647,-3.728,-3.7401,-3.7512,-3.7432,-3.7353,-3.721,-3.6829,-3.6606,-3.659,-3.6273,-3.6161,-3.613,-3.5907,-3.5669,-3.5605,-3.5573,-3.5573,-3.5573,-3.5486,-3.5573,-3.5573,-3.5558,-3.5264,-3.516,-3.4811,-3.4684,-3.4763,-3.4731,-3.489,-3.5097,-3.5081,-3.5017,-3.5017,-3.4836,-3.4366,-3.376,-3.3091,-3.2579,-3.2173,-3.149,-3.0964,-3.0817,-3.0817,-3.0817,-3.0817,-3.0817,-3.07,-3.0393,-3.0181,-2.9793,-2.9471,-2.8913,-2.7889,-2.6808,-2.6096,-2.5566,-2.4764,-2.4021,-2.3997,-2.388,-2.3784,-2.384,-2.384,-2.384,-2.384,-3.5384,-3.5722,-3.677,-3.7244,-3.7441,-3.8011,-3.8504,-3.8891,-3.8859,-3.8869,-3.9185,-3.966,-4.0381,-4.1142,-4.1979,-4.2617,-4.309,-4.3233,-4.3233,-4.3136,-4.3157,-4.3233,-4.3448,-4.3633,-4.3957,-4.4262,-4.4588,-4.496,-4.5685,-4.5623,-4.5933,-4.6001,-4.5434,-4.4103,-4.2818,-4.1984,-4.1816,-4.1229,-4.106,-4.106,-4.106,-4.106,-4.0976,-4.0826,-4.1154,-4.0629,-3.9563,-3.9679,-3.901,-3.8096,-3.7778,-3.7464,-3.7528,-3.7432,-3.7194,-3.7131,-3.686,-3.64,-3.6431,-3.6336,-3.6241,-3.6225,-3.6114,-3.5796,-3.5637,-3.5589,-3.5573,-3.5486,-3.5312,-3.5312,-3.5486,-3.5225,-3.5099,-3.5312,-3.5192,-3.516,-3.516,-3.5002,-3.5033,-3.5303,-3.5399,-3.5208,-3.5145,-3.5145,-3.4735,-3.4368,-3.3723,-3.3183,-3.2814,-3.1866,-3.1124,-3.0905,-3.0817,-3.0817,-3.0817,-3.0817,-3.0773,-3.0554,-3.0217,-2.9947,-2.9544,-2.9178,-2.8375,-2.7254,-2.6743,-2.6149,-2.5266,-2.449,-2.4223,-2.4013,-2.3916,-2.3876,-2.384,-2.384,-2.384,-3.5925,-3.6265,-3.7164,-3.7753,-3.8122,-3.8287,-3.8649,-3.9126,-3.9171,-3.9355,-3.962,-4.0104,-4.0763,-4.1648,-4.2449,-4.3127,-4.3573,-4.3615,-4.3615,-4.3615,-4.3615,-4.3539,-4.3739,-4.3946,-4.3993,-4.4298,-4.4463,-4.4815,-4.5623,-4.5519,-4.5788,-4.6041,-4.5678,-4.4678,-4.3463,-4.2735,-4.1984,-4.1481,-4.1313,-4.106,-4.106,-4.106,-4.106,-4.1115,-4.1177,-4.0965,-4.0327,-3.9843,-3.9299,-3.8621,-3.7912,-3.7417,-3.7432,-3.7369,-3.7146,-3.7131,-3.6733,-3.6416,-3.6606,-3.6495,-3.6447,-3.6511,-3.6288,-3.5955,-3.5669,-3.5589,-3.5486,-3.5312,-3.505,-3.4962,-3.505,-3.4787,-3.4756,-3.5059,-3.5107,-3.4973,-3.4933,-3.4776,-3.4886,-3.517,-3.5383,-3.5209,-3.5256,-3.524,-3.5074,-3.4784,-3.4478,-3.3917,-3.3227,-3.2229,-3.1242,-3.1007,-3.0832,-3.0817,-3.0817,-3.0817,-3.0759,-3.0671,-3.0305,-2.9961,-2.9529,-2.9164,-2.8468,-2.7883,-2.7296,-2.6613,-2.566,-2.5044,-2.4629,-2.4299,-2.4118,-2.3997,-2.3876,-2.384,-2.384,-3.6105,-3.6321,-3.73,-3.8015,-3.841,-3.8314,-3.8601,-3.9182,-3.9495,-3.9622,-3.9682,-4.058,-4.1182,-4.1762,-4.2592,-4.3139,-4.3532,-4.3594,-4.3615,-4.3615,-4.3615,-4.3615,-4.3677,-4.3822,-4.4112,-4.4112,-4.4277,-4.4795,-4.5561,-4.5581,-4.5809,-4.6101,-4.6084,-4.5189,-4.4205,-4.3214,-4.2383,-4.1882,-4.1378,-4.1313,-4.1229,-4.1145,-4.1145,-4.1152,-4.1287,-4.125,-4.0713,-4.0157,-3.9541,-3.8893,-3.8106,-3.7775,-3.7655,-3.7671,-3.7432,-3.7067,-3.6495,-3.6638,-3.6876,-3.6702,-3.6638,-3.6654,-3.6368,-3.5987,-3.5701,-3.5573,-3.5399,-3.5137,-3.4787,-3.4525,-3.4349,-3.4261,-3.4261,-3.4314,-3.4421,-3.438,-3.4314,-3.437,-3.457,-3.475,-3.4931,-3.5059,-3.536,-3.5415,-3.5233,-3.5091,-3.4666,-3.3985,-3.3279,-3.2419,-3.1513,-3.1037,-3.0905,-3.0832,-3.0817,-3.0817,-3.0685,-3.0568,-3.0203,-2.9888,-2.9471,-2.9178,-2.8689,-2.8197,-2.7847,-2.7064,-2.595,-2.5293,-2.4982,-2.4659,-2.4335,-2.4045,-2.39,-2.3852,-2.384,-3.6128,-3.6911,-3.6671,-3.7271,-3.8573,-3.9269,-3.9748,-3.9943,-4.0032,-4.0191,-4.051,-4.1063,-4.1575,-4.2156,-4.296,-4.3406,-4.3525,-4.3615,-4.3615,-4.3615,-4.3615,-4.3615,-4.3801,-4.4112,-4.436,-4.4401,-4.4526,-4.4836,-4.5581,-4.5705,-4.5933,-4.6246,-4.6023,-4.5454,-4.4718,-4.3793,-4.3048,-4.2299,-4.1798,-4.1546,-4.1378,-4.1294,-4.1229,-4.1255,-4.1464,-4.1482,-4.1449,-4.0419,-3.989,-3.9869,-3.8418,-3.7763,-3.7671,-3.7655,-3.7512,-3.7146,-3.6765,-3.6654,-3.6972,-3.6797,-3.6686,-3.6797,-3.6606,-3.6145,-3.5796,-3.5502,-3.5328,-3.4962,-3.4525,-3.4174,-3.3998,-3.3822,-3.3822,-3.3922,-3.399,-3.4036,-3.404,-3.4113,-3.4226,-3.4519,-3.47,-3.5137,-3.5455,-3.536,-3.5209,-3.5217,-3.4893,-3.4124,-3.333,-3.2468,-3.1716,-3.1238,-3.092,-3.0832,-3.0817,-3.0817,-3.0627,-3.0422,-3.0086,-2.9844,-2.9442,-2.9178,-2.8817,-2.8503,-2.8188,-2.7229,-2.6062,-2.5645,-2.5561,-2.4889,-2.4552,-2.4214,-2.3949,-2.3888,-2.3852,-3.5995,-3.6735,-3.6386,-3.7191,-3.8929,-4.0045,-4.0525,-4.0555,-4.0451,-4.0726,-4.1138,-4.1584,-4.2043,-4.2564,-4.3189,-4.3572,-4.3594,-4.3615,-4.3615,-4.3615,-4.3615,-4.3615,-4.3884,-4.4153,-4.4277,-4.4401,-4.4629,-4.4919,-4.5623,-4.6078,-4.6266,-4.6266,-4.5861,-4.5454,-4.4882,-4.4288,-4.3628,-4.2965,-4.2383,-4.1965,-4.163,-4.1462,-4.1294,-4.1255,-4.15,-4.1886,-4.201,-4.0807,-4.0369,-4.0243,-3.8759,-3.7763,-3.7671,-3.7655,-3.7639,-3.7305,-3.7035,-3.694,-3.7067,-3.6956,-3.6892,-3.6845,-3.6749,-3.6352,-3.5867,-3.5526,-3.5097,-3.4612,-3.4174,-3.3822,-3.3558,-3.347,-3.347,-3.3558,-3.3719,-3.3807,-3.3822,-3.3822,-3.3983,-3.4246,-3.4612,-3.505,-3.528,-3.5201,-3.502,-3.4784,-3.4405,-3.3864,-3.3218,-3.2431,-3.1848,-3.1271,-3.1022,-3.0817,-3.0817,-3.0803,-3.0627,-3.0393,-3.0071,-2.9749,-2.9427,-2.9164,-2.8866,-2.8726,-2.8602,-2.7621,-2.6695,-2.6466,-2.618,-2.5477,-2.4782,-2.4492,-2.4178,-2.3925,-2.3888,-3.5665,-3.6286,-3.6515,-3.7821,-3.9481,-4.046,-4.0882,-4.0882,-4.0841,-4.1117,-4.1561,-4.2074,-4.2449,-4.2835,-4.3385,-4.3566,-4.3615,-4.3615,-4.3615,-4.3615,-4.3615,-4.3615,-4.3615,-4.3698,-4.4132,-4.4277,-4.4526,-4.5002,-4.5623,-4.6078,-4.6266,-4.6266,-4.5779,-4.5372,-4.4964,-4.437,-4.3856,-4.3443,-4.2882,-4.2383,-4.1965,-4.1695,-4.1565,-4.1292,-4.1555,-4.1873,-4.1891,-4.1196,-4.0207,-3.9829,-3.9125,-3.804,-3.7671,-3.7671,-3.7639,-3.7528,-3.7242,-3.7194,-3.7178,-3.7115,-3.6988,-3.686,-3.6654,-3.639,-3.5943,-3.5413,-3.4906,-3.4437,-3.3998,-3.3558,-3.3205,-3.3117,-3.3117,-3.322,-3.3293,-3.3293,-3.3293,-3.3382,-3.3734,-3.3998,-3.4437,-3.4875,-3.5383,-3.5391,-3.5083,-3.4634,-3.4155,-3.3633,-3.3003,-3.2363,-3.1925,-3.1432,-3.1183,-3.0949,-3.0817,-3.0773,-3.0642,-3.0393,-3.0086,-2.9749,-2.9427,-2.9164,-2.8915,-2.8956,-2.8942,-2.8378,-2.773,-2.7333,-2.6786,-2.5843,-2.5226,-2.477,-2.4468,-2.4118,-2.384,-3.5409,-3.6961,-3.8332,-3.9228,-3.9766,-4.0584,-4.0882,-4.0882,-4.0882,-4.1161,-4.1627,-4.2073,-4.253,-4.2957,-4.3401,-4.3615,-4.3615,-4.3615,-4.3615,-4.3615,-4.3615,-4.3615,-4.3677,-4.3863,-4.4153,-4.4381,-4.467,-4.5167,-4.5705,-4.6119,-4.6266,-4.6185,-4.5698,-4.5127,-4.4964,-4.437,-4.3856,-4.3691,-4.3463,-4.2799,-4.2235,-4.1854,-4.1658,-4.15,-4.1646,-4.1923,-4.1954,-4.1639,-4.0954,-4.0402,-3.9491,-3.8483,-3.7763,-3.7763,-3.7671,-3.7607,-3.7369,-3.7321,-3.7305,-3.7258,-3.7131,-3.7194,-3.6992,-3.6542,-3.5985,-3.5275,-3.4731,-3.4189,-3.3734,-3.3293,-3.2955,-3.2852,-3.2852,-3.2866,-3.2955,-3.2866,-3.2763,-3.3117,-3.3382,-3.3822,-3.4261,-3.4772,-3.528,-3.5352,-3.5114,-3.475,-3.4417,-3.3831,-3.3138,-3.2481,-3.2087,-3.1622,-3.1388,-3.1168,-3.0949,-3.0788,-3.0685,-3.0451,-3.0159,-2.9807,-2.9442,-2.9149,-2.893,-2.9266,-2.9254,-2.8787,-2.8413,-2.8106,-2.7401,-2.6352,-2.5493,-2.4951,-2.4685,-2.4347,-2.388,-3.5778,-3.7345,-3.9161,-3.9982,-4.0041,-4.0625,-4.0882,-4.0882,-4.0882,-4.1255,-4.1835,-4.2239,-4.2645,-4.3102,-4.3483,-4.3615,-4.3615,-4.3615,-4.3615,-4.3615,-4.3615,-4.3615,-4.376,-4.3925,-4.4298,-4.4567,-4.5271,-4.5788,-4.5975,-4.614,-4.6266,-4.6185,-4.5454,-4.4964,-4.4882,-4.4205,-4.3691,-4.3691,-4.3691,-4.3214,-4.2485,-4.2105,-4.1666,-4.1562,-4.155,-4.1843,-4.1799,-4.1602,-4.1329,-4.0657,-3.9748,-3.9034,-3.8316,-3.7947,-3.7763,-3.7623,-3.7512,-3.7385,-3.7385,-3.7321,-3.7194,-3.721,-3.6842,-3.6146,-3.5654,-3.4906,-3.4223,-3.3751,-3.3397,-3.2955,-3.2866,-3.2852,-3.2763,-3.2852,-3.2852,-3.2852,-3.2763,-3.294,-3.3382,-3.3998,-3.4349,-3.47,-3.5121,-3.5209,-3.4956,-3.4262,-3.3975,-3.3418,-3.2788,-3.2394,-3.2045,-3.1739,-3.1446,-3.1183,-3.0905,-3.0803,-3.0759,-3.051,-3.0328,-2.9881,-2.9529,-2.9149,-2.8988,-2.9383,-2.9625,-2.9372,-2.9032,-2.8618,-2.783,-2.6719,-2.5857,-2.5144,-2.4854,-2.4552,-2.419,-3.6423,-3.7648,-3.9546,-4.032,-4.0336,-4.0717,-4.0882,-4.0882,-4.0954,-4.1472,-4.2219,-4.2375,-4.2835,-4.3314,-4.3538,-4.3608,-4.3615,-4.3615,-4.3615,-4.3615,-4.3615,-4.3615,-4.3615,-4.3698,-4.4215,-4.4919,-4.5643,-4.6016,-4.6184,-4.6264,-4.6122,-4.6063,-4.5617,-4.4964,-4.4718,-4.4205,-4.3711,-4.3546,-4.3463,-4.3131,-4.2735,-4.2356,-4.1777,-4.1445,-4.1203,-4.1441,-4.1391,-4.1423,-4.1363,-4.0838,-4.0021,-3.9383,-3.8759,-3.8316,-3.7855,-3.7731,-3.7639,-3.748,-3.7353,-3.7321,-3.7115,-3.6849,-3.6224,-3.5797,-3.5354,-3.4693,-3.4022,-3.3561,-3.3117,-3.294,-3.2851,-3.2837,-3.2837,-3.2807,-3.2807,-3.2778,-3.2763,-3.2852,-3.3382,-3.4086,-3.4437,-3.47,-3.4962,-3.5137,-3.4663,-3.4027,-3.3339,-3.2726,-3.2247,-3.2102,-3.1898,-3.1593,-3.1329,-3.1081,-3.0861,-3.0817,-3.0788,-3.0671,-3.0407,-2.9998,-2.9647,-2.9427,-2.9354,-2.9559,-2.9705,-2.9708,-2.9281,-2.8743,-2.7915,-2.7122,-2.6054,-2.5252,-2.4999,-2.4697,-2.4383,-3.6957,-3.8783,-4.0185,-4.0749,-4.0758,-4.0841,-4.0882,-4.0954,-4.1259,-4.1781,-4.2209,-4.2606,-4.3055,-4.3546,-4.3608,-4.3615,-4.3615,-4.3615,-4.3615,-4.3615,-4.3615,-4.3615,-4.3677,-4.3822,-4.4236,-4.4898,-4.5602,-4.5954,-4.614,-4.5975,-4.5995,-4.6204,-4.5454,-4.4882,-4.4452,-4.3958,-4.3546,-4.338,-4.3131,-4.2902,-4.2569,-4.2283,-4.2048,-4.1609,-4.1086,-4.1409,-4.1639,-4.1869,-4.1652,-4.111,-4.0368,-3.9657,-3.9125,-3.8591,-3.8132,-3.7763,-3.7671,-3.7623,-3.7496,-3.7417,-3.7242,-3.7182,-3.6722,-3.6096,-3.5561,-3.4728,-3.4157,-3.3737,-3.3349,-3.3158,-3.3129,-3.3115,-3.31,-3.2983,-3.2939,-3.2822,-3.2763,-3.294,-3.3205,-3.3822,-3.4261,-3.4787,-3.5399,-3.5265,-3.4893,-3.4201,-3.37,-3.297,-3.1822,-3.1722,-3.1651,-3.1417,-3.1183,-3.1051,-3.0876,-3.0832,-3.0803,-3.0715,-3.0568,-3.0188,-2.9925,-2.9822,-2.9903,-2.9925,-3.01,-3.0185,-2.9658,-2.9063,-2.8335,-2.7461,-2.6201,-2.5337,-2.5108,-2.483,-2.4504]},{"header":{"parameterUnit":"m.s-1","parameterCategory":1,"la1":31.0,"la2":29.5877,"lo1":-88.7671,"lo2":-86.6584,"dx":0.0162,"dy":0.0185,"nx":115,"ny":88,"refTime":"2022-11-04T06:00:00:Z","depth":0,"parameterNumber":3,"parameterNumberName":"V-component_of_WINDS"},"data":[0.0,0.0,0.0,0.0,0.0,0.0,0.0,0.0,0.0,0.0,0.0,0.0,0.0,0.0,0.0,0.0,0.0,0.0,0.0,0.0,0.0,0.0,0.0,0.0,0.0,0.0,0.0,0.0,0.0,0.0,0.0,0.0,0.0,0.0,0.0,0.0,0.0,0.0,0.0,0.0,0.0,0.0,0.0,0.0,0.0,0.0,0.0,0.0,0.0,0.0,0.0,0.0,0.0,0.0,0.0,0.0,0.0,0.0,0.0,0.0,0.0,0.0,0.0,0.0,0.0,0.0,0.0,0.0,0.0,0.0,0.0,0.0,0.0,0.0,0.0,0.0,0.0,0.0,0.0,0.0,0.0,0.0,0.0,0.0,0.0,0.0,0.0,0.0,0.0,0.0,0.0,0.0,0.0,0.0,0.0,0.0,0.0,0.0,0.0,0.0,0.0,0.0,0.0,0.0,0.0,0.0,0.0,0.0,0.0,0.0,0.0,0.0,0.0,0.0,0.0,0.0,0.0,0.0,0.0,0.0,0.0,0.0,0.0,0.0,0.0,0.0,0.0,0.0,0.0,0.0,0.0,0.0,0.0,0.0,0.0,0.0,0.0,0.0,0.0,0.0,0.0,0.0,0.0,0.0,0.0,0.0,0.0,0.0,0.0,0.0,0.0,0.0,0.0,0.0,0.0,0.0,0.0,0.0,0.0,0.0,0.0,0.0,0.0,0.0,0.0,0.0,0.0,0.0,0.0,0.0,0.0,0.0,0.0,0.0,0.0,0.0,0.0,0.0,0.0,0.0,0.0,0.0,0.0,0.0,0.0,0.0,0.0,0.0,0.0,0.0,0.0,0.0,0.0,0.0,0.0,0.0,0.0,0.0,0.0,0.0,0.0,0.0,0.0,0.0,0.0,0.0,0.0,0.0,0.0,0.0,0.0,0.0,0.0,0.0,0.0,0.0,0.0,0.0,0.0,0.0,0.0,0.0,0.0,0.0,0.0,0.0,0.0,0.0,0.0,0.0,0.0,0.0,0.0,0.0,0.0,0.0,0.0,0.0,0.0,0.0,0.0,0.0,0.0,0.0,0.0,0.0,0.0,0.0,0.0,0.0,0.0,0.0,0.0,0.0,0.0,0.0,0.0,0.0,0.0,0.0,0.0,0.0,0.0,0.0,0.0,0.0,0.0,0.0,0.0,0.0,0.0,0.0,0.0,0.0,0.0,0.0,0.0,0.0,0.0,0.0,0.0,0.0,0.0,0.0,0.0,0.0,0.0,0.0,0.0,0.0,0.0,0.0,0.0,0.0,0.0,0.0,0.0,0.0,0.0,0.0,0.0,0.0,0.0,0.0,0.0,0.0,0.0,0.0,0.0,0.0,0.0,0.0,0.0,0.0,0.0,0.0,0.0,0.0,0.0,0.0,0.0,0.0,0.0,0.0,0.0,0.0,0.0,0.0,0.0,0.0,0.0,0.0,0.0,0.0,0.0,0.0,0.0,0.0,0.0,0.0,0.0,0.0,0.0,0.0,0.0,0.0,0.0,0.0,0.0,0.0,0.0,0.0,0.0,0.0,0.0,0.0,0.0,0.0,0.0,0.0,0.0,0.0,0.0,0.0,0.0,0.0,0.0,0.0,0.0,0.0,0.0,0.0,0.0,0.0,0.0,0.0,0.0,0.0,0.0,0.0,0.0,0.0,0.0,0.0,0.0,0.0,0.0,0.0,0.0,0.0,0.0,0.0,0.0,0.0,0.0,0.0,0.0,0.0,0.0,0.0,0.0,0.0,0.0,0.0,0.0,0.0,0.0,0.0,0.0,0.0,0.0,0.0,0.0,0.0,0.0,0.0,0.0,0.0,0.0,0.0,0.0,0.0,0.0,0.0,0.0,0.0,0.0,0.0,0.0,0.0,0.0,0.0,0.0,0.0,0.0,0.0,0.0,0.0,0.0,0.0,0.0,0.0,0.0,0.0,0.0,0.0,0.0,0.0,0.0,0.0,0.0,0.0,0.0,0.0,0.0,0.0,0.0,0.0,0.0,0.0,0.0,0.0,0.0,0.0,0.0,0.0,0.0,0.0,0.0,0.0,0.0,0.0,0.0,0.0,0.0,0.0,0.0,0.0,0.0,0.0,0.0,0.0,0.0,0.0,0.0,0.0,0.0,0.0,0.0,0.0,0.0,0.0,0.0,0.0,0.0,0.0,0.0,0.0,0.0,0.0,0.0,0.0,0.0,0.0,0.0,0.0,0.0,0.0,0.0,0.0,0.0,0.0,0.0,0.0,0.0,0.0,0.0,0.0,0.0,0.0,0.0,0.0,0.0,0.0,0.0,0.0,0.0,0.0,0.0,0.0,0.0,0.0,0.0,0.0,0.0,0.0,0.0,0.0,0.0,0.0,0.0,0.0,0.0,0.0,0.0,0.0,0.0,0.0,0.0,0.0,0.0,0.0,0.0,0.0,0.0,0.0,0.0,0.0,0.0,0.0,0.0,0.0,0.0,0.0,0.0,0.0,0.0,0.0,0.0,0.0,0.0,0.0,0.0,0.0,0.0,0.0,0.0,0.0,0.0,0.0,0.0,0.0,0.0,0.0,0.0,0.0,0.0,0.0,0.0,0.0,0.0,0.0,0.0,0.0,0.0,0.0,0.0,0.0,0.0,0.0,0.0,0.0,0.0,0.0,0.0,0.0,0.0,0.0,0.0,0.0,0.0,0.0,0.0,0.0,0.0,0.0,0.0,0.0,0.0,0.0,0.0,0.0,0.0,0.0,0.0,0.0,0.0,0.0,0.0,0.0,0.0,0.0,0.0,0.0,0.0,0.0,0.0,0.0,0.0,0.0,0.0,0.0,0.0,0.0,0.0,0.0,0.0,0.0,0.0,0.0,0.0,0.0,0.0,0.0,0.0,0.0,0.0,0.0,0.0,0.0,0.0,0.0,0.0,0.0,0.0,0.0,0.0,0.0,0.0,0.0,0.0,0.0,0.0,0.0,0.0,0.0,0.0,0.0,0.0,0.0,0.0,0.0,0.0,0.0,0.0,0.0,0.0,0.0,0.0,0.0,0.0,0.0,0.0,0.0,0.0,0.0,0.0,0.0,0.0,0.0,0.0,0.0,0.0,0.0,0.0,0.0,0.0,0.0,0.0,0.0,0.0,0.0,0.0,0.0,0.0,0.0,0.0,0.0,0.0,0.0,0.0,0.0,0.0,0.0,0.0,0.0,0.0,0.0,0.0,0.0,0.0,0.0,0.0,0.0,0.0,0.0,0.0,0.0,0.0,0.0,0.0,0.0,0.0,0.0,0.0,0.0,0.0,0.0,0.0,0.0,0.0,0.0,0.0,0.0,0.0,0.0,0.0,0.0,0.0,0.0,0.0,0.0,0.0,0.0,0.0,0.0,0.0,0.0,0.0,0.0,0.0,0.0,0.0,0.0,0.0,0.0,0.0,0.0,0.0,0.0,0.0,0.0,0.0,0.0,0.0,0.0,0.0,0.0,0.0,0.0,0.0,0.0,0.0,0.0,0.0,0.0,0.0,0.0,0.0,0.0,0.0,0.0,0.0,0.0,0.0,0.0,0.0,0.0,0.0,0.0,0.0,0.0,0.0,0.0,0.0,0.0,0.0,0.0,0.0,0.0,0.0,0.0,0.0,0.0,0.0,0.0,0.0,0.0,0.0,0.0,0.0,0.0,0.0,0.0,0.0,0.0,0.0,0.0,0.0,0.0,0.0,0.0,0.0,0.0,0.0,0.0,0.0,0.0,0.0,0.0,0.0,0.0,0.0,0.0,0.0,0.0,0.0,0.0,0.0,0.0,0.0,0.0,0.0,0.0,0.0,0.0,0.0,0.0,0.0,0.0,0.0,0.0,0.0,0.0,0.0,0.0,0.0,0.0,0.0,0.0,0.0,0.0,0.0,0.0,0.0,0.0,0.0,0.0,0.0,0.0,0.0,0.0,0.0,0.0,0.0,0.0,0.0,0.0,0.0,0.0,0.0,0.0,0.0,0.0,0.0,0.0,0.0,0.0,0.0,0.0,0.0,0.0,0.0,0.0,0.0,0.0,0.0,0.0,0.0,0.0,0.0,0.0,0.0,0.0,0.0,0.0,0.0,0.0,0.0,0.0,0.0,0.0,0.0,0.0,0.0,0.0,0.0,0.0,0.0,0.0,0.0,0.0,0.0,0.0,0.0,0.0,0.0,0.0,0.0,0.0,0.0,0.0,0.0,0.0,0.0,0.0,0.0,0.0,0.0,0.0,0.0,0.0,2.9529,0.0,0.0,0.0,2.8679,0.0,0.0,0.0,0.0,0.0,0.0,0.0,0.0,0.0,0.0,0.0,0.0,0.0,0.0,0.0,0.0,0.0,0.0,0.0,0.0,0.0,0.0,0.0,0.0,0.0,0.0,0.0,0.0,0.0,0.0,0.0,0.0,0.0,0.0,0.0,0.0,0.0,0.0,0.0,0.0,0.0,0.0,0.0,0.0,0.0,0.0,0.0,0.0,0.0,0.0,0.0,0.0,0.0,0.0,0.0,0.0,0.0,0.0,0.0,0.0,0.0,0.0,0.0,0.0,0.0,0.0,0.0,0.0,0.0,0.0,0.0,0.0,0.0,0.0,0.0,0.0,0.0,0.0,0.0,0.0,0.0,0.0,0.0,0.0,0.0,0.0,0.0,0.0,0.0,0.0,0.0,0.0,0.0,0.0,0.0,0.0,0.0,0.0,0.0,0.0,0.0,0.0,0.0,0.0,0.0,0.0,0.0,0.0,0.0,0.0,2.9885,2.9594,2.974,2.9576,2.8998,0.0,0.0,0.0,0.0,0.0,0.0,0.0,0.0,0.0,0.0,0.0,0.0,0.0,0.0,0.0,0.0,0.0,0.0,0.0,0.0,0.0,0.0,0.0,0.0,0.0,0.0,0.0,0.0,0.0,0.0,0.0,0.0,0.0,0.0,0.0,0.0,0.0,0.0,0.0,0.0,0.0,0.0,0.0,0.0,0.0,0.0,0.0,0.0,0.0,0.0,0.0,0.0,0.0,0.0,0.0,0.0,0.0,0.0,0.0,0.0,0.0,0.0,0.0,0.0,0.0,0.0,0.0,0.0,0.0,0.0,0.0,0.0,0.0,0.0,0.0,0.0,0.0,0.0,0.0,0.0,0.0,0.0,0.0,0.0,0.0,0.0,0.0,0.0,0.0,0.0,0.0,0.0,0.0,0.0,0.0,0.0,0.0,0.0,0.0,0.0,0.0,0.0,0.0,0.0,0.0,0.0,0.0,0.0,0.0,0.0,0.0,0.0,3.0138,2.9899,2.9219,0.0,0.0,0.0,0.0,0.0,0.0,0.0,0.0,0.0,0.0,0.0,0.0,0.0,0.0,0.0,0.0,0.0,0.0,0.0,0.0,0.0,0.0,0.0,0.0,0.0,0.0,0.0,0.0,0.0,0.0,0.0,0.0,0.0,0.0,0.0,0.0,0.0,0.0,0.0,0.0,0.0,0.0,0.0,0.0,0.0,0.0,0.0,0.0,0.0,0.0,0.0,0.0,0.0,0.0,0.0,0.0,0.0,0.0,0.0,0.0,0.0,0.0,0.0,0.0,0.0,0.0,0.0,0.0,0.0,0.0,0.0,0.0,0.0,0.0,0.0,0.0,0.0,0.0,0.0,0.0,0.0,0.0,0.0,0.0,0.0,0.0,0.0,0.0,0.0,0.0,0.0,0.0,0.0,0.0,0.0,0.0,0.0,0.0,0.0,0.0,0.0,0.0,0.0,0.0,0.0,0.0,0.0,0.0,0.0,0.0,3.0828,3.0968,3.1009,0.0,2.9504,0.0,0.0,0.0,0.0,0.0,0.0,0.0,0.0,0.0,0.0,0.0,0.0,0.0,0.0,0.0,0.0,0.0,0.0,0.0,0.0,0.0,0.0,0.0,0.0,0.0,0.0,0.0,0.0,0.0,0.0,0.0,0.0,0.0,0.0,0.0,0.0,0.0,0.0,0.0,0.0,0.0,0.0,0.0,0.0,0.0,0.0,0.0,0.0,0.0,0.0,0.0,0.0,0.0,0.0,0.0,0.0,0.0,0.0,0.0,0.0,0.0,0.0,0.0,0.0,0.0,0.0,0.0,0.0,0.0,0.0,0.0,0.0,0.0,0.0,0.0,0.0,0.0,0.0,0.0,0.0,0.0,0.0,0.0,0.0,0.0,0.0,0.0,0.0,0.0,0.0,0.0,0.0,0.0,0.0,0.0,0.0,0.0,0.0,0.0,0.0,0.0,0.0,0.0,0.0,0.0,0.0,0.0,0.0,0.0,0.0,3.1323,3.1083,3.0583,3.0263,0.0,0.0,0.0,0.0,0.0,0.0,0.0,0.0,0.0,0.0,0.0,0.0,0.0,0.0,0.0,0.0,0.0,0.0,0.0,0.0,0.0,0.0,0.0,0.0,0.0,0.0,0.0,0.0,0.0,0.0,0.0,0.0,0.0,0.0,0.0,0.0,0.0,0.0,0.0,0.0,0.0,0.0,0.0,0.0,0.0,0.0,0.0,0.0,0.0,0.0,0.0,0.0,0.0,0.0,0.0,0.0,0.0,0.0,0.0,0.0,0.0,0.0,0.0,0.0,0.0,0.0,0.0,0.0,0.0,0.0,0.0,0.0,0.0,0.0,0.0,0.0,0.0,0.0,0.0,0.0,0.0,0.0,0.0,0.0,0.0,0.0,0.0,0.0,0.0,0.0,0.0,0.0,0.0,0.0,0.0,0.0,0.0,0.0,0.0,0.0,0.0,0.0,0.0,0.0,0.0,0.0,0.0,0.0,0.0,0.0,3.2005,3.1779,3.1307,3.0899,3.0608,3.0407,0.0,0.0,0.0,0.0,0.0,0.0,0.0,0.0,0.0,0.0,0.0,0.0,0.0,0.0,0.0,0.0,0.0,0.0,0.0,0.0,0.0,0.0,0.0,0.0,0.0,0.0,0.0,0.0,0.0,0.0,0.0,0.0,0.0,0.0,0.0,0.0,0.0,0.0,0.0,0.0,0.0,0.0,0.0,0.0,0.0,0.0,0.0,0.0,0.0,0.0,0.0,0.0,0.0,0.0,0.0,0.0,0.0,0.0,0.0,0.0,0.0,0.0,0.0,0.0,0.0,0.0,0.0,0.0,0.0,0.0,0.0,0.0,0.0,0.0,0.0,0.0,0.0,0.0,0.0,0.0,0.0,0.0,0.0,0.0,0.0,0.0,0.0,0.0,0.0,0.0,0.0,0.0,0.0,0.0,0.0,0.0,0.0,0.0,0.0,0.0,0.0,0.0,0.0,0.0,0.0,0.0,0.0,0.0,3.1208,3.1909,3.2096,3.1733,3.2479,3.2005,0.0,0.0,0.0,0.0,0.0,0.0,0.0,0.0,0.0,0.0,0.0,0.0,0.0,0.0,0.0,0.0,0.0,0.0,0.0,0.0,0.0,0.0,0.0,0.0,0.0,0.0,0.0,0.0,0.0,0.0,0.0,0.0,0.0,0.0,0.0,0.0,0.0,0.0,0.0,0.0,0.0,0.0,0.0,0.0,0.0,0.0,0.0,0.0,0.0,0.0,0.0,0.0,0.0,0.0,0.0,0.0,0.0,0.0,0.0,0.0,0.0,0.0,0.0,0.0,0.0,0.0,0.0,0.0,0.0,0.0,0.0,0.0,0.0,0.0,0.0,0.0,0.0,0.0,0.0,0.0,0.0,0.0,0.0,0.0,0.0,0.0,0.0,0.0,0.0,0.0,0.0,0.0,0.0,0.0,0.0,0.0,0.0,0.0,0.0,0.0,0.0,0.0,0.0,0.0,0.0,0.0,0.0,0.0,0.0,3.2423,3.2834,3.3251,3.3592,3.2803,3.1899,0.0,0.0,0.0,0.0,0.0,0.0,0.0,0.0,0.0,0.0,0.0,0.0,0.0,0.0,0.0,0.0,0.0,0.0,0.0,0.0,0.0,0.0,0.0,0.0,0.0,0.0,0.0,0.0,0.0,0.0,0.0,0.0,0.0,0.0,0.0,0.0,0.0,0.0,0.0,0.0,0.0,0.0,0.0,0.0,0.0,0.0,0.0,0.0,0.0,0.0,0.0,0.0,0.0,0.0,0.0,0.0,0.0,0.0,0.0,0.0,0.0,0.0,0.0,0.0,0.0,0.0,0.0,0.0,0.0,0.0,0.0,0.0,0.0,0.0,0.0,0.0,0.0,0.0,0.0,0.0,0.0,0.0,0.0,0.0,0.0,0.0,0.0,0.0,0.0,0.0,0.0,0.0,0.0,0.0,0.0,0.0,0.0,0.0,0.0,0.0,0.0,0.0,0.0,0.0,0.0,0.0,0.0,0.0,0.0,3.4042,3.3752,3.3938,3.4459,3.3212,3.2284,0.0,0.0,0.0,0.0,0.0,0.0,0.0,0.0,0.0,0.0,0.0,0.0,0.0,0.0,0.0,0.0,0.0,0.0,0.0,0.0,0.0,0.0,0.0,0.0,0.0,0.0,0.0,0.0,0.0,0.0,0.0,0.0,0.0,0.0,0.0,0.0,0.0,0.0,0.0,0.0,0.0,0.0,0.0,0.0,0.0,0.0,0.0,0.0,0.0,0.0,0.0,0.0,0.0,0.0,0.0,0.0,0.0,0.0,0.0,0.0,0.0,0.0,0.0,0.0,0.0,0.0,0.0,0.0,0.0,0.0,0.0,0.0,0.0,0.0,0.0,0.0,0.0,0.0,0.0,0.0,0.0,0.0,0.0,0.0,0.0,0.0,0.0,0.0,0.0,0.0,0.0,0.0,0.0,0.0,0.0,0.0,0.0,0.0,0.0,0.0,0.0,0.0,0.0,0.0,0.0,0.0,0.0,0.0,3.5754,3.5965,3.4695,3.4173,3.4245,3.3933,3.3219,0.0,0.0,0.0,0.0,0.0,0.0,0.0,0.0,0.0,0.0,0.0,0.0,0.0,0.0,0.0,0.0,0.0,0.0,0.0,0.0,0.0,0.0,0.0,0.0,0.0,0.0,0.0,0.0,0.0,0.0,0.0,0.0,0.0,0.0,0.0,0.0,0.0,0.0,0.0,0.0,0.0,0.0,0.0,0.0,0.0,0.0,0.0,0.0,0.0,0.0,0.0,0.0,0.0,0.0,0.0,0.0,0.0,0.0,0.0,0.0,0.0,0.0,0.0,0.0,0.0,0.0,0.0,0.0,0.0,0.0,0.0,0.0,0.0,0.0,0.0,0.0,0.0,0.0,0.0,0.0,0.0,0.0,0.0,0.0,0.0,0.0,0.0,0.0,0.0,0.0,0.0,0.0,0.0,0.0,0.0,0.0,0.0,0.0,0.0,0.0,0.0,0.0,0.0,0.0,0.0,0.0,0.0,0.0,0.0,3.7299,3.6564,3.6438,3.6897,3.5656,3.4482,0.0,0.0,0.0,0.0,0.0,0.0,0.0,0.0,0.0,0.0,0.0,0.0,0.0,0.0,0.0,0.0,0.0,0.0,0.0,0.0,0.0,0.0,0.0,0.0,0.0,0.0,0.0,0.0,0.0,0.0,0.0,0.0,0.0,0.0,0.0,0.0,0.0,0.0,0.0,0.0,0.0,0.0,0.0,0.0,0.0,0.0,0.0,0.0,0.0,0.0,0.0,0.0,0.0,0.0,0.0,0.0,0.0,0.0,0.0,0.0,0.0,0.0,0.0,0.0,0.0,0.0,0.0,0.0,0.0,0.0,0.0,0.0,0.0,0.0,0.0,0.0,0.0,0.0,0.0,0.0,0.0,0.0,0.0,0.0,0.0,0.0,0.0,0.0,0.0,0.0,0.0,0.0,0.0,0.0,0.0,0.0,0.0,0.0,0.0,0.0,0.0,0.0,0.0,0.0,0.0,0.0,0.0,0.0,0.0,3.8257,3.7577,3.7336,3.7506,3.6439,3.5619,3.5103,0.0,0.0,0.0,0.0,0.0,0.0,0.0,0.0,0.0,0.0,0.0,0.0,0.0,0.0,0.0,0.0,0.0,0.0,0.0,0.0,0.0,0.0,0.0,0.0,0.0,0.0,0.0,0.0,0.0,0.0,0.0,0.0,0.0,0.0,0.0,0.0,0.0,0.0,0.0,0.0,0.0,0.0,0.0,0.0,0.0,0.0,0.0,0.0,0.0,0.0,0.0,0.0,0.0,0.0,0.0,0.0,0.0,0.0,0.0,0.0,0.0,0.0,0.0,0.0,0.0,0.0,0.0,0.0,0.0,0.0,0.0,0.0,0.0,0.0,0.0,0.0,0.0,0.0,0.0,0.0,0.0,0.0,0.0,0.0,0.0,0.0,0.0,0.0,0.0,0.0,0.0,0.0,0.0,0.0,0.0,0.0,0.0,0.0,0.0,0.0,0.0,0.0,0.0,0.0,0.0,0.0,0.0,0.0,3.89,3.7933,3.7136,3.6548,3.661,3.6658,0.0,0.0,0.0,0.0,0.0,0.0,0.0,0.0,0.0,0.0,0.0,0.0,0.0,0.0,0.0,0.0,0.0,0.0,0.0,0.0,0.0,0.0,0.0,0.0,0.0,0.0,0.0,0.0,0.0,0.0,0.0,0.0,0.0,0.0,0.0,0.0,0.0,0.0,0.0,0.0,0.0,0.0,0.0,0.0,0.0,0.0,0.0,0.0,0.0,0.0,0.0,0.0,0.0,0.0,0.0,0.0,0.0,0.0,0.0,0.0,0.0,0.0,0.0,0.0,0.0,0.0,0.0,0.0,0.0,0.0,0.0,0.0,0.0,0.0,0.0,0.0,0.0,0.0,0.0,0.0,0.0,0.0,0.0,0.0,0.0,0.0,0.0,0.0,0.0,0.0,0.0,0.0,0.0,0.0,0.0,0.0,0.0,0.0,0.0,0.0,0.0,0.0,0.0,0.0,0.0,0.0,0.0,0.0,0.0,3.8623,3.8782,3.8708,3.8443,3.7865,3.7474,0.0,0.0,0.0,0.0,0.0,0.0,0.0,0.0,0.0,0.0,0.0,0.0,0.0,0.0,0.0,0.0,0.0,0.0,0.0,0.0,0.0,0.0,0.0,0.0,0.0,0.0,0.0,0.0,0.0,0.0,0.0,0.0,0.0,0.0,0.0,0.0,0.0,0.0,0.0,0.0,0.0,0.0,0.0,0.0,0.0,0.0,0.0,0.0,0.0,0.0,0.0,0.0,0.0,0.0,0.0,0.0,0.0,0.0,0.0,0.0,0.0,0.0,0.0,0.0,0.0,0.0,0.0,0.0,0.0,0.0,0.0,0.0,0.0,0.0,0.0,0.0,0.0,0.0,0.0,0.0,0.0,0.0,0.0,0.0,0.0,0.0,0.0,0.0,0.0,0.0,0.0,0.0,0.0,0.0,0.0,0.0,0.0,0.0,0.0,0.0,0.0,0.0,0.0,0.0,0.0,0.0,0.0,0.0,3.9812,3.906,3.9281,3.9377,3.9394,3.9397,3.9266,0.0,0.0,0.0,0.0,0.0,0.0,0.0,0.0,0.0,0.0,0.0,0.0,0.0,0.0,0.0,0.0,0.0,0.0,0.0,0.0,0.0,0.0,0.0,0.0,0.0,0.0,0.0,0.0,0.0,0.0,0.0,0.0,0.0,0.0,0.0,0.0,0.0,0.0,0.0,0.0,0.0,0.0,0.0,0.0,0.0,0.0,0.0,0.0,0.0,0.0,0.0,0.0,0.0,0.0,0.0,0.0,0.0,0.0,0.0,0.0,0.0,0.0,0.0,0.0,0.0,0.0,0.0,0.0,0.0,0.0,0.0,0.0,0.0,0.0,0.0,0.0,0.0,0.0,0.0,0.0,0.0,0.0,0.0,0.0,0.0,0.0,0.0,0.0,0.0,0.0,0.0,0.0,0.0,0.0,0.0,0.0,0.0,0.0,0.0,0.0,0.0,0.0,0.0,0.0,0.0,0.0,0.0,0.0,4.0486,3.9912,3.9672,3.96,3.9778,4.0882,4.125,0.0,0.0,0.0,0.0,0.0,0.0,0.0,0.0,0.0,0.0,0.0,0.0,0.0,0.0,0.0,0.0,0.0,0.0,0.0,0.0,0.0,0.0,0.0,0.0,0.0,0.0,0.0,0.0,0.0,0.0,0.0,0.0,0.0,0.0,0.0,0.0,0.0,0.0,0.0,0.0,0.0,0.0,0.0,0.0,0.0,0.0,0.0,0.0,0.0,0.0,0.0,0.0,0.0,0.0,0.0,0.0,0.0,0.0,0.0,0.0,0.0,0.0,0.0,0.0,0.0,0.0,0.0,0.0,0.0,0.0,0.0,0.0,0.0,0.0,0.0,0.0,0.0,0.0,0.0,0.0,0.0,0.0,0.0,0.0,0.0,0.0,0.0,0.0,0.0,0.0,0.0,0.0,0.0,0.0,0.0,0.0,0.0,0.0,0.0,0.0,0.0,0.0,0.0,0.0,0.0,0.0,0.0,0.0,4.1017,4.0661,4.0567,4.0578,4.078,4.1264,4.125,0.0,0.0,0.0,0.0,0.0,0.0,0.0,0.0,0.0,0.0,0.0,0.0,0.0,0.0,0.0,0.0,0.0,0.0,0.0,0.0,0.0,0.0,0.0,0.0,0.0,0.0,0.0,0.0,0.0,0.0,0.0,0.0,0.0,0.0,0.0,0.0,0.0,0.0,0.0,0.0,0.0,0.0,0.0,0.0,0.0,0.0,0.0,0.0,3.5414,0.0,0.0,0.0,0.0,0.0,0.0,0.0,0.0,0.0,0.0,0.0,0.0,0.0,0.0,0.0,0.0,0.0,0.0,0.0,0.0,0.0,0.0,0.0,0.0,0.0,0.0,0.0,0.0,0.0,0.0,0.0,0.0,0.0,0.0,0.0,0.0,0.0,0.0,0.0,0.0,0.0,0.0,0.0,0.0,0.0,0.0,0.0,0.0,0.0,0.0,0.0,0.0,0.0,0.0,0.0,0.0,0.0,0.0,0.0,4.1205,4.0982,4.0948,4.1177,4.1721,4.2456,4.2629,0.0,0.0,0.0,0.0,0.0,0.0,0.0,0.0,0.0,0.0,0.0,0.0,0.0,0.0,0.0,0.0,0.0,0.0,0.0,0.0,0.0,0.0,0.0,0.0,0.0,0.0,0.0,0.0,0.0,0.0,0.0,0.0,0.0,0.0,0.0,0.0,0.0,0.0,0.0,0.0,0.0,0.0,0.0,0.0,0.0,0.0,0.0,0.0,0.0,0.0,0.0,0.0,0.0,0.0,0.0,0.0,0.0,0.0,0.0,0.0,0.0,0.0,0.0,0.0,0.0,0.0,0.0,0.0,0.0,0.0,0.0,0.0,0.0,0.0,0.0,0.0,0.0,0.0,0.0,0.0,0.0,0.0,0.0,0.0,0.0,0.0,0.0,0.0,0.0,0.0,0.0,0.0,0.0,0.0,0.0,0.0,0.0,0.0,0.0,0.0,0.0,0.0,0.0,0.0,0.0,0.0,0.0,4.1483,4.1212,4.0861,4.1079,4.1594,4.2394,4.3866,4.4447,4.3993,0.0,0.0,0.0,0.0,0.0,0.0,0.0,0.0,0.0,0.0,0.0,0.0,0.0,0.0,0.0,0.0,0.0,0.0,0.0,0.0,0.0,0.0,0.0,0.0,0.0,0.0,0.0,0.0,0.0,0.0,0.0,0.0,0.0,0.0,0.0,0.0,0.0,0.0,3.6495,3.6445,0.0,0.0,0.0,0.0,0.0,0.0,0.0,0.0,3.5718,0.0,0.0,0.0,0.0,0.0,0.0,0.0,0.0,0.0,0.0,0.0,0.0,0.0,0.0,0.0,0.0,0.0,0.0,0.0,0.0,0.0,0.0,0.0,0.0,0.0,0.0,0.0,0.0,0.0,0.0,0.0,0.0,0.0,0.0,0.0,0.0,0.0,0.0,0.0,0.0,0.0,0.0,0.0,0.0,0.0,0.0,0.0,0.0,0.0,0.0,0.0,0.0,0.0,0.0,0.0,0.0,4.1676,4.1607,4.1083,4.0193,4.1155,4.189,4.2425,4.4279,4.541,4.5596,0.0,0.0,0.0,0.0,0.0,0.0,0.0,0.0,0.0,0.0,0.0,0.0,0.0,0.0,0.0,0.0,0.0,0.0,0.0,0.0,0.0,0.0,0.0,0.0,0.0,0.0,0.0,0.0,0.0,0.0,0.0,0.0,0.0,0.0,0.0,0.0,0.0,0.0,0.0,3.9329,3.9402,0.0,0.0,0.0,0.0,0.0,0.0,0.0,0.0,3.684,0.0,0.0,0.0,0.0,0.0,0.0,0.0,0.0,0.0,0.0,0.0,0.0,0.0,0.0,0.0,0.0,0.0,0.0,0.0,0.0,0.0,0.0,0.0,0.0,0.0,0.0,0.0,0.0,0.0,0.0,0.0,0.0,0.0,0.0,0.0,0.0,0.0,0.0,0.0,0.0,0.0,0.0,0.0,0.0,0.0,0.0,0.0,0.0,0.0,0.0,0.0,0.0,0.0,0.0,0.0,4.2216,4.196,4.1498,4.0861,4.1822,4.2731,4.3567,4.4791,4.5611,0.0,0.0,0.0,0.0,0.0,0.0,0.0,0.0,0.0,0.0,0.0,0.0,0.0,0.0,0.0,0.0,0.0,0.0,0.0,0.0,0.0,0.0,0.0,0.0,0.0,0.0,0.0,0.0,0.0,0.0,0.0,0.0,0.0,0.0,0.0,0.0,0.0,0.0,0.0,0.0,4.0627,4.0929,4.1409,0.0,0.0,0.0,0.0,0.0,0.0,3.837,3.8287,0.0,0.0,0.0,0.0,0.0,0.0,0.0,0.0,0.0,0.0,0.0,0.0,0.0,0.0,0.0,0.0,0.0,0.0,0.0,0.0,0.0,0.0,0.0,0.0,0.0,0.0,0.0,0.0,0.0,0.0,0.0,0.0,0.0,0.0,0.0,0.0,0.0,0.0,0.0,0.0,0.0,0.0,0.0,0.0,0.0,0.0,0.0,0.0,0.0,0.0,0.0,0.0,0.0,0.0,0.0,4.2976,4.2495,4.2089,4.1723,4.2585,4.3546,4.4682,4.5543,4.605,0.0,0.0,0.0,0.0,0.0,0.0,0.0,0.0,0.0,0.0,0.0,0.0,0.0,0.0,0.0,0.0,0.0,0.0,0.0,0.0,0.0,0.0,0.0,0.0,0.0,0.0,0.0,0.0,0.0,0.0,0.0,0.0,0.0,0.0,0.0,0.0,0.0,0.0,0.0,0.0,0.0,4.2356,4.2942,4.2138,0.0,0.0,0.0,0.0,4.037,4.0046,0.0,0.0,0.0,0.0,0.0,0.0,0.0,0.0,0.0,0.0,0.0,0.0,0.0,0.0,0.0,0.0,0.0,0.0,0.0,0.0,0.0,0.0,0.0,0.0,0.0,0.0,0.0,0.0,0.0,0.0,0.0,0.0,0.0,0.0,0.0,0.0,0.0,0.0,0.0,0.0,0.0,0.0,0.0,0.0,0.0,0.0,0.0,0.0,0.0,0.0,0.0,0.0,0.0,0.0,0.0,0.0,4.3842,4.3361,4.2802,4.2051,4.3156,4.4045,4.4717,4.674,4.759,0.0,0.0,0.0,0.0,0.0,0.0,0.0,0.0,0.0,0.0,0.0,0.0,0.0,0.0,0.0,0.0,0.0,0.0,0.0,0.0,0.0,0.0,0.0,0.0,0.0,0.0,0.0,0.0,0.0,0.0,0.0,0.0,0.0,0.0,0.0,0.0,0.0,0.0,0.0,0.0,0.0,4.419,4.4037,4.3645,4.3462,0.0,0.0,4.2928,4.2799,4.2836,0.0,0.0,0.0,0.0,0.0,0.0,0.0,0.0,0.0,0.0,0.0,0.0,0.0,0.0,0.0,0.0,0.0,0.0,0.0,0.0,0.0,0.0,0.0,0.0,0.0,0.0,0.0,0.0,0.0,0.0,0.0,0.0,0.0,0.0,0.0,0.0,0.0,0.0,0.0,0.0,0.0,0.0,0.0,0.0,0.0,0.0,0.0,0.0,0.0,0.0,0.0,0.0,0.0,0.0,0.0,4.6545,4.6395,4.5672,4.5248,4.5039,4.5659,4.6107,4.6243,4.7846,4.8445,0.0,0.0,0.0,0.0,0.0,0.0,0.0,0.0,0.0,0.0,0.0,0.0,0.0,0.0,0.0,0.0,0.0,0.0,0.0,0.0,0.0,0.0,0.0,0.0,0.0,0.0,0.0,0.0,0.0,0.0,0.0,0.0,0.0,0.0,0.0,0.0,0.0,0.0,0.0,0.0,0.0,0.0,4.6987,4.6692,0.0,0.0,0.0,4.51,4.465,0.0,0.0,0.0,0.0,0.0,0.0,0.0,0.0,0.0,0.0,0.0,0.0,0.0,0.0,0.0,0.0,0.0,0.0,0.0,0.0,0.0,0.0,0.0,0.0,0.0,0.0,0.0,0.0,0.0,0.0,0.0,0.0,0.0,0.0,0.0,0.0,0.0,0.0,0.0,0.0,0.0,0.0,0.0,0.0,0.0,0.0,0.0,0.0,0.0,0.0,0.0,0.0,0.0,0.0,0.0,0.0,0.0,4.8663,4.8153,4.7903,4.805,4.8123,4.8205,4.8295,4.9138,0.0,0.0,0.0,0.0,0.0,0.0,0.0,0.0,0.0,0.0,0.0,0.0,0.0,0.0,0.0,0.0,0.0,0.0,0.0,0.0,0.0,0.0,0.0,0.0,0.0,0.0,0.0,4.1161,0.0,0.0,0.0,0.0,0.0,0.0,0.0,0.0,0.0,0.0,0.0,0.0,0.0,0.0,4.8447,4.8706,4.8703,4.8401,0.0,0.0,4.6955,4.6631,4.6532,4.6479,0.0,0.0,0.0,0.0,0.0,0.0,0.0,0.0,0.0,0.0,0.0,0.0,0.0,0.0,0.0,0.0,0.0,0.0,0.0,0.0,0.0,0.0,0.0,0.0,0.0,0.0,0.0,0.0,0.0,0.0,0.0,0.0,0.0,0.0,0.0,0.0,0.0,0.0,0.0,0.0,0.0,0.0,0.0,0.0,0.0,0.0,0.0,0.0,0.0,0.0,0.0,0.0,0.0,0.0,5.0087,5.0087,5.0326,5.0365,5.0101,4.9871,5.0064,5.065,5.083,5.0906,0.0,0.0,0.0,0.0,0.0,0.0,0.0,0.0,0.0,0.0,0.0,0.0,0.0,0.0,0.0,0.0,0.0,0.0,0.0,0.0,0.0,0.0,0.0,0.0,0.0,0.0,0.0,0.0,0.0,0.0,0.0,0.0,0.0,0.0,0.0,0.0,0.0,0.0,0.0,0.0,0.0,4.8476,4.7562,4.8202,4.8882,0.0,4.8737,4.8546,4.9059,4.9088,4.8705,4.7737,0.0,0.0,0.0,0.0,0.0,0.0,0.0,0.0,0.0,0.0,0.0,0.0,0.0,0.0,0.0,0.0,0.0,0.0,0.0,0.0,0.0,0.0,0.0,0.0,0.0,0.0,0.0,0.0,0.0,0.0,0.0,0.0,0.0,0.0,0.0,0.0,0.0,0.0,0.0,0.0,0.0,0.0,0.0,0.0,0.0,0.0,0.0,0.0,0.0,0.0,0.0,0.0,0.0,5.2696,5.3044,5.3583,5.3813,5.3656,5.3508,5.3189,5.2528,5.3169,5.3313,0.0,0.0,0.0,0.0,0.0,0.0,0.0,0.0,0.0,0.0,0.0,0.0,0.0,0.0,0.0,0.0,0.0,0.0,0.0,0.0,0.0,0.0,0.0,0.0,0.0,0.0,0.0,0.0,4.6039,4.6122,4.6739,0.0,0.0,0.0,0.0,0.0,0.0,0.0,0.0,0.0,0.0,5.2201,5.2702,5.2432,0.0,0.0,5.1388,5.0649,4.9555,4.9651,4.9419,4.8101,4.8266,0.0,0.0,0.0,0.0,0.0,0.0,0.0,0.0,0.0,0.0,0.0,0.0,0.0,0.0,0.0,0.0,0.0,0.0,0.0,0.0,0.0,0.0,0.0,0.0,0.0,0.0,0.0,0.0,0.0,0.0,0.0,0.0,0.0,0.0,0.0,0.0,0.0,0.0,0.0,0.0,0.0,0.0,0.0,0.0,0.0,0.0,0.0,0.0,0.0,0.0,0.0,0.0,5.4915,5.5308,5.6553,5.7118,5.693,5.6805,5.6267,5.5351,5.5478,5.5286,0.0,0.0,0.0,0.0,0.0,0.0,0.0,0.0,0.0,0.0,0.0,0.0,0.0,0.0,0.0,0.0,0.0,0.0,0.0,0.0,0.0,0.0,0.0,0.0,0.0,0.0,0.0,0.0,4.8421,4.8435,4.8787,0.0,0.0,0.0,0.0,0.0,0.0,0.0,0.0,0.0,0.0,5.4586,5.5204,5.4534,5.3889,5.3541,5.2977,5.2202,5.1186,5.0889,5.049,4.9718,0.0,0.0,0.0,0.0,0.0,0.0,0.0,0.0,0.0,0.0,0.0,0.0,0.0,0.0,0.0,0.0,0.0,0.0,0.0,0.0,0.0,0.0,0.0,0.0,0.0,0.0,0.0,5.3518,0.0,0.0,5.3484,0.0,0.0,0.0,0.0,0.0,0.0,0.0,0.0,0.0,0.0,0.0,0.0,0.0,0.0,0.0,0.0,0.0,0.0,0.0,0.0,0.0,0.0,5.6412,5.6513,5.8859,5.9975,5.9713,5.9299,5.9152,5.927,5.7581,5.6547,5.6443,0.0,0.0,0.0,0.0,0.0,0.0,0.0,0.0,0.0,0.0,0.0,0.0,0.0,0.0,0.0,0.0,0.0,0.0,0.0,0.0,0.0,0.0,0.0,0.0,0.0,0.0,4.781,4.8835,4.9567,0.0,0.0,0.0,0.0,0.0,0.0,0.0,0.0,0.0,5.2352,5.3859,5.4653,5.3566,5.3273,5.3445,5.3667,5.3069,5.3019,5.4356,5.3164,5.2326,0.0,0.0,0.0,0.0,0.0,0.0,0.0,0.0,0.0,0.0,0.0,0.0,0.0,0.0,0.0,0.0,0.0,0.0,0.0,0.0,0.0,0.0,0.0,0.0,0.0,0.0,0.0,5.6105,5.5248,0.0,0.0,0.0,0.0,0.0,0.0,0.0,0.0,0.0,0.0,0.0,6.0966,6.1759,0.0,0.0,0.0,0.0,0.0,0.0,0.0,0.0,0.0,0.0,0.0,0.0,5.712,5.8366,6.054,6.1776,6.1915,6.2263,6.1987,6.1125,6.0486,5.9397,5.7865,0.0,0.0,0.0,0.0,0.0,0.0,0.0,0.0,0.0,0.0,0.0,0.0,0.0,0.0,0.0,0.0,0.0,0.0,0.0,0.0,0.0,0.0,0.0,0.0,0.0,5.102,0.0,0.0,0.0,0.0,0.0,0.0,0.0,0.0,0.0,0.0,0.0,5.4636,5.5693,5.6077,5.6403,5.6782,5.619,5.5938,0.0,0.0,0.0,0.0,0.0,0.0,0.0,0.0,0.0,0.0,0.0,0.0,0.0,0.0,4.6942,4.5138,4.4082,4.343,4.3322,0.0,0.0,0.0,0.0,0.0,0.0,0.0,0.0,0.0,0.0,0.0,0.0,0.0,0.0,5.8259,5.7649,5.7373,0.0,0.0,0.0,0.0,0.0,0.0,0.0,0.0,6.363,6.4689,6.4358,6.5006,6.4805,0.0,6.2929,6.1283,0.0,0.0,0.0,0.0,0.0,0.0,0.0,0.0,5.8221,5.9963,6.2085,6.3338,6.3602,6.4453,6.4484,6.3486,6.2584,6.1135,5.9041,5.8388,5.7464,0.0,0.0,0.0,0.0,0.0,0.0,0.0,0.0,0.0,0.0,0.0,0.0,0.0,0.0,0.0,0.0,0.0,0.0,0.0,0.0,0.0,0.0,0.0,5.307,0.0,0.0,0.0,0.0,0.0,0.0,0.0,0.0,0.0,5.5373,5.578,5.6532,5.7577,5.774,5.7942,5.8379,0.0,0.0,0.0,0.0,0.0,0.0,0.0,5.4959,5.5085,5.501,5.5267,5.644,5.5642,5.443,5.3077,0.0,0.0,4.8572,4.728,4.6592,4.6458,4.6035,4.5412,4.4619,4.4353,4.3991,0.0,0.0,0.0,0.0,0.0,0.0,0.0,0.0,5.9995,6.003,0.0,5.9858,0.0,0.0,0.0,0.0,6.0808,6.3418,0.0,0.0,6.7899,6.8951,6.9315,6.8498,6.8076,6.8043,6.7567,6.6516,6.4721,5.9779,0.0,0.0,0.0,0.0,0.0,0.0,5.9806,6.136,6.3485,6.4706,6.4882,6.5964,6.6549,6.6445,6.3996,6.1841,6.0182,5.8737,5.75,5.6642,5.562,0.0,0.0,0.0,0.0,0.0,0.0,0.0,0.0,0.0,0.0,0.0,0.0,0.0,0.0,0.0,0.0,0.0,0.0,0.0,0.0,5.3509,0.0,0.0,0.0,0.0,0.0,0.0,0.0,0.0,0.0,0.0,5.6692,5.7866,5.865,5.7933,0.0,0.0,0.0,0.0,5.7983,5.8464,5.7191,5.6759,5.83,5.7549,5.703,5.7746,0.0,0.0,5.7763,5.7556,5.7029,5.6186,5.5891,5.4902,5.1527,5.0524,5.015,4.9995,4.9309,4.8287,4.68,4.636,4.5824,6.755,0.0,0.0,0.0,0.0,6.4171,6.3978,6.3928,6.3812,6.3303,6.2582,6.2365,0.0,0.0,0.0,0.0,0.0,0.0,6.7011,6.7239,6.9477,7.0544,7.061,7.0913,7.0466,6.9375,6.9001,6.8022,6.6374,6.3985,6.169,5.9619,0.0,0.0,0.0,0.0,6.1958,6.3794,6.4035,6.5124,6.7306,6.7549,6.7687,6.7832,6.5934,6.4498,6.3587,6.1776,6.0457,5.9593,5.8142,0.0,0.0,0.0,0.0,0.0,0.0,0.0,0.0,0.0,0.0,0.0,0.0,0.0,0.0,0.0,0.0,0.0,0.0,0.0,5.5289,5.5143,5.5372,0.0,0.0,0.0,0.0,0.0,0.0,0.0,0.0,0.0,6.0841,6.038,5.9996,0.0,0.0,5.9493,5.9167,5.9509,5.9944,6.05,6.0216,0.0,6.115,6.0639,5.9965,5.9642,5.9522,5.9314,5.8852,5.9168,5.9033,5.77,5.7395,5.6858,5.5374,5.3859,5.2882,5.2502,5.1414,5.0321,4.9635,4.8696,4.7662,6.7919,6.7046,6.7735,6.7757,6.7389,6.6974,6.682,6.6838,6.6287,6.5761,6.528,6.528,6.4792,6.4021,6.5294,0.0,0.0,0.0,6.9194,6.8995,7.088,7.1741,7.1684,7.2131,7.1874,7.0959,7.0712,7.0084,6.9114,6.8364,6.6697,6.4136,0.0,0.0,6.202,6.2549,6.3744,6.553,6.5696,6.6647,6.846,6.8892,6.8788,6.8046,6.7198,6.6277,6.5214,6.3461,6.2275,6.175,5.9765,5.9071,0.0,0.0,0.0,0.0,0.0,0.0,0.0,0.0,0.0,0.0,0.0,5.683,5.6399,0.0,0.0,0.0,5.6577,5.6886,5.7613,5.7359,0.0,0.0,0.0,0.0,0.0,0.0,0.0,6.1299,6.1859,6.2349,6.2637,6.2263,6.1723,6.1221,6.0932,6.0782,6.0837,0.0,6.1623,6.2321,6.1925,6.1753,6.2456,6.2204,6.1731,6.1265,6.125,6.1083,6.0384,6.0691,6.0566,5.9421,5.8871,5.8375,5.7582,5.6201,5.4997,5.4385,5.2981,5.1749,5.1238,5.0013,4.8959,6.7354,6.7627,7.038,7.1051,7.0349,7.0349,6.9906,6.9093,6.7652,6.743,6.8095,6.8169,6.828,6.8453,6.9167,0.0,6.9473,7.0919,7.1535,7.1403,7.2165,7.2532,7.2532,7.2569,7.2569,7.2496,7.2569,7.2475,7.2182,7.2336,7.1639,6.9892,6.574,6.4108,6.4977,6.4802,6.5422,6.6922,6.802,6.8606,6.8714,6.9953,6.9691,6.7791,6.7955,6.741,6.5785,6.4152,6.3365,6.3396,6.0848,5.9809,6.0649,0.0,0.0,0.0,0.0,0.0,0.0,0.0,0.0,0.0,0.0,0.0,0.0,0.0,0.0,6.0252,6.0105,0.0,5.9947,5.9979,0.0,0.0,0.0,6.1505,6.2169,6.2359,6.2312,6.2129,0.0,0.0,6.3105,6.3752,6.3908,6.3084,6.2761,6.2677,6.2759,6.2707,6.297,6.3771,6.2795,6.2155,6.3023,6.2928,6.2791,6.2719,6.27,6.2443,6.1973,6.1859,6.1652,6.0819,6.0194,5.9444,5.8637,5.7676,5.6789,5.5835,5.4291,5.285,5.1983,5.1041,5.0152,6.7688,6.8333,6.962,6.9743,6.8977,6.9001,6.8815,6.8518,6.8148,6.8074,6.8296,6.8913,6.9927,7.1253,7.1272,7.1548,7.2105,7.23,7.2344,7.2239,7.2422,7.2532,7.2532,7.312,7.3083,7.2569,7.312,7.276,7.1631,7.2058,7.1845,7.0836,7.0205,6.9449,6.8645,6.8337,6.8681,6.9627,6.8404,6.7999,6.8482,6.9483,6.9836,6.9473,6.887,6.8399,6.8062,6.5853,6.512,6.607,6.3447,6.2481,6.3872,6.1422,0.0,0.0,0.0,0.0,0.0,0.0,0.0,0.0,0.0,6.0697,5.9677,0.0,6.2958,0.0,6.1739,6.1911,6.2646,6.2198,0.0,0.0,6.3053,6.3345,6.4201,6.5176,6.5553,6.4944,6.5989,6.674,6.6554,6.6668,6.6865,6.6908,6.5003,6.3585,6.3615,6.3998,6.4337,6.4547,6.4634,6.4827,6.493,6.4634,6.4362,6.4483,6.3631,6.2882,6.2723,6.2329,6.1725,6.0964,6.0638,6.0231,5.947,5.8647,5.8079,5.7614,5.6155,5.4542,5.3599,5.3122,5.2431,6.702,6.754,6.8667,6.889,6.8518,6.8853,6.8977,6.8902,6.8532,6.8383,6.8457,6.9607,7.1042,7.2626,7.2521,7.2674,7.2982,7.2779,7.2638,7.2532,7.2863,7.3046,7.3046,7.3854,7.4001,7.3597,7.4037,7.3597,7.2459,7.2739,7.2526,7.1757,7.205,7.2197,7.2094,7.1464,7.1023,7.0671,7.0185,6.99,6.9781,7.0278,7.0265,6.9741,6.9864,6.9859,6.9653,6.7903,6.7372,6.8125,6.559,6.4498,6.5388,6.3554,6.293,0.0,0.0,0.0,0.0,0.0,0.0,0.0,0.0,0.0,0.0,0.0,6.5121,6.4323,6.449,6.4865,6.5421,6.5091,6.5128,6.596,6.587,6.6043,6.6874,6.7462,6.7685,6.7221,6.7825,6.828,6.8151,6.8089,6.8107,6.8346,6.6944,6.5863,6.5766,6.5815,6.5752,6.5788,6.5796,6.5836,6.5899,6.5699,6.5453,6.5208,6.4541,6.395,6.3675,6.3036,6.2367,6.1933,6.1317,6.0638,6.0194,5.9506,5.8854,5.8358,5.7542,5.6361,5.5091,5.4122,5.3145,6.6239,6.6537,6.7948,6.8518,6.8543,6.9224,6.9521,6.9484,6.8803,6.8593,6.889,7.0375,7.1821,7.3162,7.3145,7.3064,7.2955,7.2751,7.261,7.2569,7.334,7.3634,7.3597,7.4478,7.4888,7.4918,7.4808,7.4441,7.3854,7.3744,7.334,7.2679,7.2673,7.3266,7.4485,7.3842,7.2711,7.1265,7.22,7.2299,7.1531,7.1526,7.0869,6.9558,7.0796,7.1257,7.0647,6.9727,6.9388,6.9624,6.7461,6.6195,6.6243,6.5505,6.5059,0.0,6.4329,0.0,0.0,0.0,0.0,0.0,0.0,0.0,0.0,6.6098,6.6728,6.6873,6.7523,6.7927,6.7927,6.7954,6.8193,6.8778,6.871,6.8823,6.9332,6.9243,6.91,6.91,6.9052,6.9061,6.9097,6.8902,6.8802,6.8909,6.8837,6.8593,6.8398,6.7686,6.7118,6.7189,6.651,6.6213,6.6299,6.6279,6.6109,6.5616,6.535,6.5163,6.4621,6.3889,6.3309,6.3056,6.2078,6.1172,6.0964,6.0303,5.9579,5.8963,5.8503,5.7727,5.6144,5.4705,5.3441,6.6871,6.8097,6.8394,6.8518,6.8518,6.863,6.8704,6.8729,6.858,6.9224,7.0487,7.135,7.2262,7.3135,7.289,7.2779,7.2751,7.261,7.2524,7.2532,7.334,7.334,7.2826,7.4221,7.4888,7.4845,7.4258,7.4184,7.4661,7.4001,7.3597,7.3487,7.4118,7.3935,7.3083,0.0,0.0,0.0,7.1884,7.121,7.149,7.1775,7.146,7.0549,7.1423,0.0,7.0798,6.9996,6.985,7.0492,6.8924,0.0,0.0,0.0,0.0,0.0,0.0,0.0,0.0,0.0,0.0,0.0,6.7684,6.7404,6.7203,6.8403,6.9133,6.9047,6.9164,6.9237,6.9237,6.938,6.9547,6.9665,6.9636,6.9616,6.9588,6.9993,7.0241,7.0123,7.0599,7.0965,7.0893,7.0934,7.0834,7.067,7.0746,7.0646,7.0411,6.9063,6.8174,6.8102,6.7446,6.7173,6.7328,6.6848,6.6476,6.6408,6.5931,6.5562,6.5337,6.4685,6.3889,6.3409,6.2947,6.244,6.1869,6.1136,6.0494,6.0375,5.9325,5.7913,5.633,5.5627,5.4864,6.6797,6.7911,6.8333,6.8518,0.0,6.8518,6.8704,6.9076,6.9076,6.9929,7.1309,7.1675,7.2224,7.2918,7.2779,7.2695,7.2695,7.2553,7.2532,7.2532,7.334,7.3487,7.312,7.4735,7.5506,7.5506,7.5469,7.5469,7.5469,7.5102,7.4478,7.3744,7.4882,7.4698,7.3193,7.4055,7.4431,7.4211,7.3379,7.2849,7.269,7.2849,7.2543,7.1816,7.2507,0.0,0.0,0.0,0.0,0.0,0.0,0.0,0.0,0.0,0.0,6.7687,6.7687,6.7862,6.8349,6.8385,6.8895,7.0091,7.0164,6.9931,6.9299,6.9937,7.0471,7.0748,7.0784,7.0784,7.0784,7.0873,7.0939,7.0939,7.0939,7.088,7.0768,7.0969,7.1101,7.0982,7.1277,7.1494,7.1494,7.1467,7.1372,7.1308,7.1276,7.1211,7.0842,6.9878,6.8873,6.8116,6.7415,6.7034,6.7059,6.6897,6.6668,6.672,6.646,6.6243,6.617,6.5192,6.4251,6.378,6.3164,6.2476,6.2087,6.1679,6.1254,6.081,5.9832,5.8673,5.7406,5.6523,5.5677,6.6648,6.7577,6.8221,6.8518,6.8518,6.8518,6.9038,6.9893,7.0016,0.0,0.0,7.1847,7.2171,7.2695,7.2667,7.2667,7.2667,7.2553,7.2569,7.2753,7.356,7.3891,7.3964,7.5395,7.613,7.613,7.6613,7.6613,7.6063,7.5916,7.5212,7.4118,7.5249,7.5139,7.3795,7.4214,7.4296,7.4065,7.4651,7.4587,7.3772,7.3768,7.3402,7.2604,7.3366,7.3466,7.286,7.2667,7.2112,7.1083,7.092,7.0271,6.9122,6.9632,6.9966,6.9937,6.9937,7.0228,7.0877,7.0913,7.1205,7.1891,7.1927,7.1672,7.1016,7.098,7.1235,7.1854,7.1897,7.1927,7.1927,7.1957,7.1957,7.1957,7.1957,7.1927,7.1811,7.1816,7.1682,7.1526,7.1494,7.1494,7.1494,7.1436,7.134,7.134,7.134,7.128,7.0911,7.0264,6.9361,6.8382,6.7569,6.6831,6.6825,6.674,6.6822,6.6822,6.6786,6.6786,6.6634,6.5728,6.4859,6.4416,6.3265,6.2512,6.2114,6.2005,6.1761,6.1145,6.0231,5.9398,5.8673,5.7333,5.621,6.6982,6.8333,6.8468,6.8518,6.8518,6.8518,6.9335,7.0747,7.135,7.1717,7.1886,7.2383,7.2613,7.2695,7.2582,7.2524,7.2524,7.2496,7.2863,7.356,7.4368,7.4735,7.4808,7.5689,7.613,7.6056,7.5542,7.5452,7.5837,7.5342,7.4895,7.4628,7.4895,7.4535,7.3683,7.4312,7.4165,7.3198,7.3307,7.3275,7.3098,7.3255,7.2911,7.2182,7.288,7.2947,7.2182,7.2152,7.2036,7.1842,7.1805,7.1642,7.1338,7.1411,7.1422,7.1231,7.1231,7.1303,7.1376,7.1412,7.1448,7.1557,7.1557,7.1583,7.1635,7.1665,7.164,7.1589,7.1589,7.1557,7.1557,7.1718,7.1811,7.1811,7.1933,7.1927,7.178,7.1816,7.1718,7.1526,7.1494,7.1494,7.1494,7.1463,7.1431,7.1463,7.1436,7.1399,7.1264,7.0494,6.9857,6.9553,6.8656,6.7885,6.7632,6.7191,6.6858,6.6822,6.6822,6.6815,6.6932,6.6548,6.583,6.4782,6.4218,6.3518,6.2404,6.2041,6.1942,6.1688,6.0665,5.9651,5.9361,5.8058,5.6826,6.6797,6.7874,6.832,6.8518,6.858,6.941,7.0227,7.0981,7.2024,7.2499,7.2482,7.2576,7.2582,7.2582,7.2524,7.2532,7.2532,7.2532,7.2936,7.3707,7.4074,7.4515,7.4955,7.5726,7.613,7.6093,7.6112,7.624,7.6507,7.6203,7.5837,7.5336,7.5049,7.4895,7.4909,7.4775,7.447,7.3951,7.3765,7.357,7.3474,7.357,7.3602,7.3675,7.3638,7.3638,7.3711,7.3275,7.3021,7.3021,7.2621,7.2336,7.2309,7.1879,7.1593,7.1494,7.1494,7.1494,7.1494,7.1494,7.1494,7.1494,7.1494,7.1562,7.1625,7.1656,7.1625,7.1494,7.1494,7.1494,7.1494,7.1593,7.1625,7.1656,7.178,7.1811,7.1687,7.1718,7.1718,7.1526,7.1494,7.1494,7.1494,7.1494,7.1494,7.1531,7.1431,7.1436,7.1463,7.0622,7.0021,7.0102,6.9007,6.8096,6.7981,6.7329,6.6895,6.6822,6.6822,6.6815,6.6838,6.6584,6.6017,6.5383,6.4855,6.4101,6.2912,6.2712,6.2476,6.1942,6.1109,6.0204,5.9615,5.8311,5.7007,6.6277,6.7094,6.7688,6.806,6.837,7.0115,7.0895,7.0993,7.2351,7.2982,7.2899,7.261,7.2532,7.2532,7.2532,7.2606,7.2753,7.2789,7.3303,7.4184,7.4258,7.4661,7.5469,7.6093,7.6356,7.6399,7.6862,7.7061,7.6998,7.7061,7.6831,7.624,7.5672,7.5689,7.6093,7.5385,7.4921,7.4714,7.44,7.4147,7.3986,7.374,7.403,7.4721,7.4247,7.4211,7.4754,7.4247,7.3888,7.3852,7.3305,7.2979,7.2979,7.24,7.2038,7.2038,7.2038,7.1965,7.1784,7.1603,7.1494,7.1494,7.1494,7.1463,7.1467,7.1467,7.1463,7.1494,7.1494,7.1494,7.1494,7.1494,7.1494,7.1494,7.1625,7.1656,7.1526,7.1656,7.1687,7.1526,7.1494,7.1494,7.1494,7.1494,7.1494,7.1463,7.1404,7.1404,7.139,7.0825,7.05,7.0304,6.9285,6.8271,6.8017,6.7547,6.7076,6.6895,6.6822,6.6815,6.6772,6.6417,6.603,6.584,6.5395,6.4676,6.3948,6.362,6.332,6.2785,6.1888,6.0738,5.9434,5.842,5.7261,6.5459,6.6165,6.6388,6.676,6.7664,6.9893,7.0782,7.0939,7.2361,7.2899,7.2723,7.2553,7.2532,7.2532,7.2532,7.2899,7.3523,7.3597,7.4368,7.5726,7.5873,7.6313,7.6943,7.7127,7.7138,7.6977,7.7056,7.6934,7.6712,7.6934,7.7118,7.7169,7.709,7.6686,7.6136,7.6026,7.5562,7.4714,7.4457,7.4337,7.4142,7.3261,7.3197,7.3961,7.3957,7.3957,7.4175,7.3957,7.3888,7.3888,7.3885,7.3812,7.3776,7.3704,7.3635,7.3631,7.3635,7.3378,7.2653,7.1929,7.1567,7.1494,7.1567,7.1504,7.1376,7.1344,7.1372,7.1504,7.1531,7.1535,7.1531,7.1567,7.1639,7.1603,7.1567,7.1494,7.1494,7.1494,7.1494,7.1494,7.1494,7.1494,7.1494,7.1494,7.1494,7.1494,7.1463,7.1463,7.1494,7.1354,7.1214,7.1096,7.0082,6.8923,6.8343,6.7981,6.7685,6.7105,6.6858,6.7019,6.707,6.6983,6.6721,6.6307,6.6043,6.5633,6.4959,6.4585,6.4439,6.3939,6.2831,6.1281,5.9253,5.8482,5.8036,6.5496,6.5399,6.6317,6.6839,6.7321,6.9136,7.0195,7.0671,7.1672,7.2337,7.2658,7.2553,7.2532,7.2532,7.301,7.3413,7.3707,7.4184,7.4992,7.6056,7.613,7.6533,7.7237,7.7217,7.7155,7.7092,7.6902,7.6745,7.6647,7.6708,7.687,7.6993,7.6993,7.681,7.6517,7.6517,7.6303,7.5912,7.5316,7.5188,7.5415,7.4163,7.378,7.4504,7.4612,7.4863,7.5261,7.5334,7.5334,7.5297,7.4863,7.4612,7.4576,7.4175,7.3888,7.3888,7.3888,7.3776,7.345,7.3088,7.2943,7.2943,7.2412,7.2062,7.1994,7.15,7.129,7.1824,7.203,7.2272,7.2802,7.2943,7.2726,7.2327,7.2219,7.2038,7.1531,7.1531,7.1494,7.1494,7.1494,7.1531,7.1494,7.1494,7.1494,7.1494,7.1494,7.1494,7.1494,7.1494,7.1494,7.1422,7.0915,7.0361,6.9624,6.911,6.8741,6.8509,6.8459,6.8415,6.7898,6.794,6.7741,6.7021,6.6921,6.6591,6.5842,6.5605,6.5414,6.4849,6.3957,6.2384,6.043,5.9692,5.8928,6.5362,6.5102,6.6431,6.6865,6.674,6.8539,6.9743,7.0501,7.1195,7.1922,7.2602,7.2524,7.2532,7.2606,7.334,7.3817,7.4111,7.4882,7.5652,7.635,7.6423,7.6723,7.7212,7.7155,7.7061,7.6934,7.6745,7.6614,7.6614,7.6614,7.6643,7.6769,7.6838,7.6838,7.6838,7.6838,7.6838,7.6733,7.6094,7.6032,7.6327,7.5288,7.4863,7.537,7.5442,7.5696,7.6239,7.6275,7.6275,7.6275,7.5732,7.5442,7.5442,7.508,7.4899,7.4826,7.4464,7.4247,7.4247,7.403,7.3888,7.3852,7.3212,7.2857,7.2719,7.2152,7.2125,7.2741,7.2983,7.3369,7.3616,7.3823,7.3602,7.306,7.2839,7.2509,7.2255,7.2001,7.1965,7.211,7.2074,7.1712,7.1567,7.1494,7.1494,7.1494,7.1494,7.1494,7.1494,7.1494,7.1494,7.1494,7.1494,7.12,7.0671,7.0114,6.9768,6.9529,6.9413,6.9224,6.8771,6.8812,6.8668,6.7891,6.788,6.763,6.6979,6.6706,6.6289,6.545,6.4729,6.3852,6.2266,6.1233,5.998,6.4805,6.5041,6.6468,6.6581,6.5965,6.8254,6.9653,7.0293,7.1103,7.1866,7.2414,7.2496,7.2532,7.2569,7.334,7.4111,7.4882,7.5616,7.6423,7.7157,7.72,7.7175,7.7124,7.7092,7.6934,7.6712,7.6614,7.6581,7.6581,7.6581,7.6643,7.6769,7.6806,7.6769,7.6769,7.6769,7.6769,7.6737,7.657,7.6508,7.6545,7.6303,7.6094,7.6167,7.6203,7.6203,7.6275,7.6275,7.6275,7.6275,7.6203,7.6203,7.6275,7.6818,7.7144,7.7072,7.5877,7.5047,7.4971,7.4428,7.403,7.3961,7.3925,7.3787,7.3655,7.3408,7.356,7.4358,7.4251,7.4142,7.371,7.3915,7.3838,7.3655,7.3136,7.3128,7.3635,7.2947,7.3088,7.3378,7.2947,7.2295,7.1639,7.1494,7.1494,7.1494,7.1494,7.1494,7.1494,7.1494,7.1494,7.1494,7.1458,7.1241,7.062,7.0587,7.0284,7.0149,7.0157,6.9785,6.942,6.9185,6.8998,6.8761,6.8492,6.8294,6.8041,6.7668,6.7126,6.6606,6.6339,6.5422,6.3866,6.2535,6.1325,6.5514,6.5483,6.6544,6.6395,6.5676,6.7479,6.8703,6.9458,7.023,7.1047,7.1762,7.2275,7.2532,7.2569,7.334,7.4147,7.4925,7.5726,7.6533,7.7237,7.731,7.7273,7.7217,7.6993,7.687,7.6741,7.6512,7.6412,7.6412,7.6412,7.6445,7.6475,7.6475,7.6475,7.6475,7.6475,7.6475,7.6475,7.6445,7.6412,7.6412,7.6345,7.6275,7.6275,7.6275,7.6275,7.6275,7.6275,7.6275,7.6275,7.6275,7.6275,7.6311,7.6565,7.6963,7.7326,7.6456,7.5877,7.5841,7.5623,7.5442,7.5406,7.4872,7.4519,7.4379,7.3918,7.3782,7.4292,7.4401,7.4401,7.4795,7.4935,7.4822,7.4318,7.4129,7.3938,7.3757,7.3602,7.3631,7.3707,7.3136,7.2488,7.2227,7.1761,7.1404,7.1463,7.1494,7.1494,7.1494,7.1494,7.1494,7.1494,7.1494,7.1422,7.1205,7.1344,7.1411,7.142,7.1392,7.1084,7.0812,7.0482,7.0302,6.9816,6.9426,6.9136,6.903,6.8365,6.7852,6.7668,6.7436,6.6699,6.5359,6.4242,6.3063,6.6049,6.6211,6.69,6.6585,6.5836,6.71,6.8137,6.8917,6.9715,7.055,7.1358,7.2129,7.2532,7.2569,7.2988,7.3898,7.4918,7.5726,7.6533,7.7237,7.731,7.7243,7.7217,7.6929,7.6769,7.6708,7.6478,7.6275,7.6275,7.6275,7.6275,7.6275,7.6275,7.6275,7.6275,7.6275,7.6275,7.6275,7.6275,7.6275,7.6275,7.6275,7.6275,7.6275,7.6275,7.642,7.6637,7.6674,7.6674,7.6674,7.6674,7.6674,7.6674,7.6674,7.6927,7.7362,7.7,7.6495,7.6244,7.6208,7.6174,7.6106,7.5638,7.5245,7.5209,7.4706,7.4536,7.4722,7.4761,7.5012,7.5299,7.5514,7.5441,7.5008,7.4857,7.474,7.4452,7.4299,7.4254,7.4218,7.3793,7.3182,7.2633,7.2098,7.1665,7.1472,7.1431,7.1494,7.1494,7.1494,7.1494,7.1494,7.1494,7.1494,7.1417,7.1568,7.1751,7.1829,7.2028,7.1961,7.1835,7.1606,7.1323,7.0873,7.0565,7.0275,6.9773,6.9096,6.8763,6.8553,6.8171,6.758,6.6729,6.61,6.4855,6.6248,6.6888,6.7609,6.7179,6.6353,6.7266,6.8083,6.8668,6.9586,7.0347,7.1089,7.2063,7.2365,7.2475,7.2461,7.3266,7.4785,7.5592,7.6399,7.7206,7.7243,7.7186,7.7029,7.6801,7.6643,7.6515,7.6378,7.6242,7.6174,7.6208,7.6242,7.6242,7.6275,7.6275,7.6275,7.6275,7.6275,7.6275,7.6275,7.6275,7.6275,7.6275,7.6275,7.6275,7.6275,7.6674,7.7434,7.7434,7.7434,7.7507,7.7507,7.7507,7.7507,7.7362,7.7434,7.74,7.7434,7.6933,7.6182,7.6003,7.5971,7.5867,7.59,7.5861,7.5825,7.5925,7.5857,7.5618,7.562,7.5621,7.5298,7.5297,7.5406,7.5655,7.5253,7.5175,7.55,7.5245,7.488,7.5016,7.4769,7.4091,7.3044,7.2542,7.2253,7.1637,7.1548,7.1571,7.1499,7.1463,7.1494,7.1494,7.1494,7.1494,7.1593,7.1687,7.1805,7.1988,7.2189,7.2291,7.2202,7.1974,7.1866,7.1489,7.1152,7.0861,7.0702,7.0087,6.973,6.9434,6.9001,6.8593,6.8025,6.737,6.6505,6.6716,6.6999,6.7609,6.7263,6.6372,6.7158,6.7616,6.7769,6.8593,6.9397,7.02,7.0968,7.1626,7.2094,7.2233,7.3111,7.4549,7.4878,7.5682,7.6747,7.6961,7.6801,7.6541,7.6342,7.6106,7.5867,7.5797,7.5655,7.5549,7.576,7.5864,7.5898,7.6174,7.6275,7.6275,7.6275,7.6275,7.6275,7.6275,7.6275,7.6275,7.6275,7.6275,7.6275,7.6275,7.6891,7.8195,7.7796,7.7796,7.8303,7.834,7.834,7.8159,7.7253,7.6859,7.719,7.6722,7.6328,7.5939,7.5868,7.5868,7.5798,7.5833,7.5868,7.5868,7.5937,7.5868,7.5657,7.5621,7.555,7.5406,7.5406,7.5478,7.5621,7.5511,7.5508,7.5795,7.5718,7.5747,7.5774,7.5311,7.4632,7.4093,7.3629,7.2842,7.2122,7.2106,7.2059,7.1553,7.154,7.1494,7.1494,7.1494,7.1494,7.1562,7.1625,7.1749,7.1933,7.2174,7.238,7.2357,7.2369,7.2234,7.2134,7.177,7.1606,7.1409,7.109,7.0659,7.0276,6.9868,6.9534,6.9212,6.8507,6.7616,6.6554,6.6886,6.7568,6.7367,6.6692,6.7515,6.7704,6.7687,6.8735,6.9493,7.0076,7.0841,7.1453,7.1988,7.2316,7.313,7.4228,7.4529,7.5305,7.6294,7.6574,7.6475,7.6242,7.6003,7.5761,7.5514,7.5406,7.5262,7.5118,7.5335,7.5478,7.5549,7.5831,7.5969,7.6039,7.6074,7.6108,7.6108,7.6108,7.6108,7.6108,7.6108,7.6252,7.6469,7.6505,7.7372,7.8709,7.842,7.8454,7.8957,7.8883,7.8702,7.8593,7.776,7.7221,7.7049,7.6726,7.626,7.5799,7.5692,7.5657,7.5621,7.5657,7.5692,7.5692,7.5727,7.5692,7.555,7.5478,7.5442,7.5406,7.537,7.5406,7.5478,7.5585,7.5727,7.5798,7.6005,7.614,7.6099,7.5742,7.5243,7.4779,7.442,7.3564,7.2883,7.2834,7.2713,7.2062,7.1906,7.1825,7.1675,7.1494,7.1494,7.1494,7.1593,7.1687,7.1872,7.2121,7.2299,7.2343,7.243,7.2398,7.2577,7.2425,7.2484,7.2351,7.181,7.1341,7.1032,7.071,7.0152,6.9719,6.9373,6.8593,6.5996,6.6732,6.7447,6.757,6.7356,6.8207,6.8327,6.8186,6.9443,7.0157,7.0484,7.0925,7.1562,7.1951,7.2345,7.3148,7.4047,7.4645,7.5171,7.5684,7.5969,7.6038,7.6003,7.569,7.5442,7.5334,7.5117,7.5008,7.4933,7.5008,7.508,7.5117,7.5406,7.5514,7.5585,7.5727,7.5833,7.5798,7.587,7.5977,7.5941,7.6049,7.6336,7.6948,7.7056,7.7739,7.8962,7.925,7.9504,7.9826,7.9246,7.8883,7.881,7.8738,7.8092,7.7376,7.7232,7.6552,7.5801,7.5514,7.5442,7.5334,7.5406,7.5478,7.5478,7.5585,7.5621,7.5442,7.5442,7.537,7.5225,7.5189,7.5298,7.5442,7.5478,7.5621,7.5798,7.6074,7.621,7.6278,7.6104,7.5787,7.5135,7.4887,7.4422,7.3814,7.373,7.3399,7.2821,7.2525,7.2259,7.2038,7.1748,7.1494,7.1494,7.1494,7.1625,7.1718,7.1933,7.2151,7.2329,7.2446,7.2524,7.2742,7.2899,7.3087,7.3108,7.2503,7.2221,7.2109,7.1552,7.0772,7.0301,7.0103,6.9472,6.6123,6.6576,6.7726,6.8122,6.8059,6.8698,6.8608,6.8024,6.8239,6.8925,6.9312,6.9435,7.0265,7.1272,7.2135,7.2896,7.3627,7.4216,7.4761,7.5227,7.5116,7.5189,7.5225,7.5006,7.4784,7.4669,7.4593,7.4441,7.4325,7.4631,7.4744,7.4744,7.5189,7.5442,7.555,7.5657,7.5692,7.5693,7.6302,7.6482,7.6482,7.7128,7.756,7.7703,7.7739,7.8278,7.9285,7.9897,8.0295,8.0479,7.9971,7.9571,7.95,7.8924,7.8349,7.7919,7.72,7.6697,7.6192,7.5619,7.5297,7.5225,7.5261,7.5297,7.5297,7.5334,7.5334,7.5262,7.5262,7.5262,7.5189,7.5225,7.5225,7.5262,7.537,7.5585,7.5832,7.5901,7.6005,7.6244,7.6208,7.5995,7.5819,7.5606,7.5249,7.457,7.4384,7.4302,7.3616,7.3103,7.2871,7.24,7.2038,7.1712,7.1494,7.1494,7.1526,7.1557,7.178,7.203,7.221,7.2329,7.2496,7.2695,7.277,7.2936,7.3162,7.3034,7.3023,7.2915,7.2369,7.1626,7.1403,7.118,7.0289,6.5633,6.5966,6.764,6.824,6.8334,6.9298,6.9213,6.8548,6.8543,6.8809,6.9165,6.885,6.9573,7.1012,7.184,7.2597,7.3324,7.419,7.4761,7.4898,7.4669,7.4631,7.4707,7.4555,7.4402,7.4287,7.4209,7.4128,7.4088,7.4245,7.4325,7.4402,7.4782,7.5005,7.4968,7.5189,7.5261,7.5295,7.6049,7.6514,7.6476,7.7339,7.7986,7.8238,7.8381,7.8739,7.9528,8.0069,8.0471,8.0548,8.0406,8.0226,8.0081,7.936,7.8783,7.8457,7.7628,7.7088,7.6761,7.6152,7.576,7.5653,7.5474,7.5225,7.5225,7.5225,7.5225,7.5225,7.5225,7.5225,7.5225,7.5225,7.5225,7.5189,7.5298,7.5478,7.5797,7.5867,7.5971,7.6142,7.6174,7.6174,7.6106,7.6038,7.5753,7.5359,7.5352,7.4952,7.4305,7.3859,7.3378,7.2907,7.2472,7.211,7.1712,7.1603,7.1598,7.1593,7.1811,7.203,7.2121,7.2299,7.2438,7.261,7.2658,7.2798,7.3081,7.3305,7.3272,7.3101,7.2815,7.2518,7.2184,7.1998,7.1143,6.4931,6.5148,6.736,6.8298,6.8589,6.9939,6.9968,6.9173,6.944,6.9561,6.9289,6.8862,6.934,7.0809,7.1577,7.2366,7.3117,7.4296,7.4718,7.4707,7.4402,7.4248,7.4402,7.4325,7.4209,7.417,7.4049,7.397,7.397,7.397,7.401,7.4092,7.4248,7.4325,7.4479,7.4593,7.4664,7.495,7.5849,7.6496,7.6745,7.7538,7.8294,7.8798,7.8905,7.9191,7.9727,8.0092,8.0245,8.0433,8.0656,8.0584,8.0401,7.9936,7.9502,7.9064,7.8378,7.7801,7.7546,7.6937,7.6509,7.6402,7.5796,7.5332,7.5403,7.5332,7.5225,7.5225,7.5225,7.5225,7.5225,7.526,7.5332,7.526,7.5225,7.5298,7.5478,7.5762,7.5969,7.6003,7.6039,7.6072,7.614,7.6106,7.5967,7.5753,7.5783,7.5598,7.5128,7.4724,7.4106,7.3486,7.3016,7.2545,7.2146,7.1748,7.1671,7.1661,7.1939,7.2121,7.2084,7.2233,7.2409,7.2516,7.2573,7.2798,7.3135,7.3268,7.3346,7.3335,7.3112,7.2815,7.2555,7.2581,7.1998,6.5304,6.5059,6.7833,6.8984,6.9207,7.049,7.0387,6.9151,6.9012,6.867,6.8147,6.8138,6.8692,6.9556,7.1233,7.2333,7.2617,7.3814,7.4364,7.4167,7.3737,7.3697,7.3891,7.397,7.397,7.3891,7.3812,7.3772,7.3772,7.3812,7.3852,7.401,7.417,7.4287,7.4325,7.4476,7.4871,7.5285,7.6218,7.6969,7.765,7.848,7.9135,7.9539,7.9578,7.9685,7.9828,7.9938,7.9977,8.0092,8.0358,8.0508,8.0361,8.0216,7.9998,7.9705,7.9017,7.8474,7.8294,7.7758,7.7259,7.7187,7.6616,7.6152,7.6081,7.5546,7.5296,7.5225,7.5225,7.5296,7.5332,7.5831,7.5724,7.5367,7.5189,7.5189,7.5298,7.5478,7.5727,7.5865,7.5901,7.5937,7.6038,7.6003,7.5969,7.6003,7.607,7.6169,7.5843,7.5445,7.4866,7.4175,7.3812,7.3342,7.2436,7.2033,7.1837,7.1791,7.203,7.224,7.2204,7.2204,7.238,7.2467,7.2524,7.2807,7.3162,7.3294,7.3372,7.3372,7.3372,7.3187,7.3027,7.3027,7.2729,6.5141,6.5003,6.7686,6.8992,6.9327,7.0288,7.0143,6.9218,6.8625,6.795,6.7414,6.7442,6.7994,6.8893,7.0661,7.1683,7.224,7.3202,7.3702,7.3641,7.353,7.3565,7.3473,7.3769,7.388,7.3601,7.3617,7.3692,7.3732,7.3847,7.3931,7.401,7.4128,7.4167,7.4132,7.4283,7.4671,7.5301,7.627,7.7126,7.7978,7.8882,7.9546,7.9743,7.9822,7.9899,7.9899,7.9899,7.9899,7.9938,8.0092,8.0207,8.0245,8.0207,8.0169,7.9947,7.9655,7.9257,7.9079,7.8543,7.8044,7.8044,7.7366,7.6795,7.6474,7.5974,7.5581,7.5403,7.551,7.576,7.5796,7.6045,7.5974,7.5439,7.5225,7.5225,7.5261,7.537,7.555,7.5727,7.5691,7.5763,7.5832,7.5831,7.59,7.5934,7.6003,7.6104,7.6239,7.5877,7.5481,7.4971,7.4649,7.4066,7.2943,7.235,7.2004,7.2012,7.2084,7.2263,7.2351,7.2321,7.2321,7.2467,7.2638,7.289,7.3188,7.3294,7.3372,7.3372,7.3372,7.3372,7.3361,7.325,7.2841,6.5026,6.4819,6.7266,6.8557,6.9079,6.9637,6.9498,6.8831,6.8307,6.7513,6.6871,6.688,6.7648,6.847,7.0084,7.1093,7.1913,7.2499,7.297,7.3081,7.3288,7.3219,7.3088,7.3303,7.349,7.3205,7.3584,7.374,7.3856,7.4052,7.4362,7.4272,7.4102,7.4167,7.4102,7.3926,7.4347,7.5264,7.6057,7.7062,7.7918,7.8786,7.9236,7.9507,7.974,7.9818,7.9822,7.9861,7.9899,7.9899,7.9899,7.9899,7.9938,8.0015,8.0092,7.9899,7.9828,7.9792,7.9685,7.9257,7.8864,7.8829,7.8151,7.7473,7.6973,7.6688,7.6331,7.6188,7.6295,7.6688,7.6474,7.6581,7.6152,7.5474,7.5225,7.5225,7.5261,7.537,7.5442,7.5514,7.5478,7.5514,7.5621,7.5656,7.5797,7.5901,7.5934,7.6072,7.6208,7.6203,7.5841,7.5696,7.5406,7.4938,7.3921,7.2781,7.2398,7.2328,7.2363,7.2329,7.2504,7.2553,7.2582,7.2667,7.2835,7.3027,7.3151,7.3294,7.3346,7.3372,7.3372,7.3372,7.3372,7.3372,7.3027,6.5459,6.4782,6.6812,6.7894,6.8247,6.8848,6.8579,6.7899,6.7867,6.7127,6.6002,6.7038,6.7408,6.7937,6.9757,7.1289,7.2085,7.2372,7.2424,7.2509,7.2657,7.2459,7.2519,7.2725,7.2665,7.2793,7.3434,7.399,7.417,7.4698,7.4942,7.5088,7.4676,7.4362,7.4124,7.3868,7.4264,7.5317,7.6006,7.6941,7.8089,7.8723,7.9069,7.9307,7.9507,7.9661,7.974,7.9783,7.9899,7.9899,7.9899,7.9899,7.9899,7.9938,7.9938,7.9899,7.9899,7.9899,7.9864,7.9792,7.9685,7.9543,7.8936,7.8508,7.8115,7.7687,7.7259,7.733,7.7544,7.7794,7.6545,7.6902,7.6509,7.5724,7.5225,7.5225,7.5225,7.5261,7.537,7.5406,7.5334,7.5334,7.5442,7.555,7.5692,7.5832,7.5934,7.6072,7.6242,7.6275,7.6167,7.613,7.613,7.5623,7.4938,7.3688,7.2902,7.2765,7.2662,7.2438,7.2606,7.2788,7.2899,7.2835,7.2863,7.2936,7.3071,7.3268,7.3346,7.3372,7.3372,7.3372,7.3372,7.3372,7.3372,6.5364,6.46,6.6459,6.7523,6.7933,6.7976,6.7721,6.7231,6.6895,6.6089,6.5608,6.6321,6.6846,6.7283,6.9253,7.1063,7.1945,7.1951,7.1907,7.2072,7.2239,7.2161,7.2088,7.2249,7.2181,7.2526,7.3482,7.4248,7.4252,7.5003,7.5288,7.4963,7.4656,7.4343,7.4065,7.396,7.4517,7.5534,7.6175,7.6957,7.8174,7.8574,7.8823,7.9069,7.9271,7.9467,7.9586,7.97,7.9783,7.9861,7.9899,7.9899,7.9899,7.9899,7.9899,7.9899,7.9899,7.9899,7.9899,7.9899,7.9899,7.9864,7.9507,7.9114,7.8757,7.8329,7.8115,7.8222,7.8294,7.8436,7.7723,7.758,7.6937,7.6081,7.5474,7.5225,7.5225,7.5225,7.5262,7.5334,7.5262,7.5297,7.5334,7.5478,7.5585,7.5727,7.5865,7.6072,7.6242,7.6275,7.6275,7.6203,7.6167,7.5768,7.5261,7.4417,7.3416,7.3177,7.2966,7.2709,7.2548,7.2704,7.2844,7.2899,7.289,7.299,7.3124,7.3346,7.3372,7.3372,7.3372,7.3372,7.3372,7.3372,7.3372,6.492,6.4295,6.5867,6.6925,6.7431,6.7132,6.6845,6.6503,6.6005,6.5258,6.4635,6.5604,6.6113,6.6677,6.8601,7.0635,7.1786,7.1634,7.159,7.1658,7.1987,7.2021,7.1851,7.1953,7.21,7.2005,7.3553,7.4428,7.4559,7.5465,7.5454,7.5107,7.4802,7.4316,7.3962,7.4101,7.4879,7.5678,7.6312,7.7119,7.7805,7.8314,7.8616,7.8782,7.9028,7.9231,7.9467,7.9621,7.9704,7.9822,7.9899,7.9899,7.9899,7.9899,7.9899,7.9899,7.9899,7.9899,7.9899,7.9899,7.9899,7.9899,7.9899,7.9543,7.9221,7.9007,7.8936,7.8936,7.8972,7.8864,7.8436,7.7937,7.7187,7.6438,7.5688,7.5225,7.5225,7.5225,7.5225,7.5261,7.5225,7.5225,7.5297,7.5334,7.5478,7.5727,7.5867,7.6038,7.6208,7.6275,7.6275,7.6167,7.6022,7.5732,7.5334,7.4965,7.4115,7.3556,7.3239,7.2851,7.2651,7.2553,7.2695,7.2863,7.3135,7.3268,7.3372,7.3372,7.3372,7.3372,7.3372,7.3372,7.3372,7.3372,7.3372,6.3978,6.398,6.4716,6.5353,6.6018,6.6197,6.6038,6.5689,6.5654,6.5194,6.4312,6.5214,6.5546,6.6228,6.8308,7.0163,7.1073,7.1401,7.1401,7.1435,7.1526,7.1526,7.1356,7.139,7.1638,7.1807,7.3423,7.4316,7.4778,7.6031,7.6518,7.5837,7.5189,7.4723,7.4532,7.4394,7.4654,7.5837,7.6357,7.6947,7.7754,7.8186,7.8314,7.8483,7.8699,7.9069,7.9271,7.9467,7.9665,7.9861,7.9935,7.9935,7.9899,7.9899,7.9899,7.9899,7.9899,7.9935,8.0006,7.9935,8.0006,8.0006,7.9935,7.9864,7.9685,7.9614,7.9614,7.9757,7.9721,7.9435,7.8829,7.8044,7.7223,7.6545,7.5867,7.5403,7.5225,7.5225,7.5225,7.5225,7.5225,7.5225,7.5225,7.5297,7.537,7.5621,7.5868,7.6039,7.614,7.6242,7.6275,7.6203,7.6167,7.5913,7.5768,7.5327,7.4599,7.397,7.3551,7.3057,7.2576,7.2409,7.2723,7.2945,7.3215,7.3372,7.3372,7.3372,7.3372,7.3372,7.3372,7.3372,7.3372,7.3372,7.3372,6.2481,6.3235,6.4276,6.4944,6.545,6.5652,6.5512,6.5153,6.4971,6.4597,6.4093,6.4097,6.4992,6.6599,6.8522,6.9979,7.1041,7.1312,7.1312,7.1312,7.1267,7.1222,7.1098,7.112,7.1233,7.184,7.2902,7.384,7.4752,7.6027,7.6844,7.611,7.574,7.5292,7.5076,7.5085,7.5464,7.6095,7.6588,7.711,7.7606,7.7841,7.8015,7.8272,7.8483,7.8817,7.915,7.9271,7.9586,7.9854,8.0256,8.0577,8.072,8.097,8.122,8.122,8.1255,8.1041,8.0649,8.0221,8.0221,8.0328,8.0185,7.9899,7.9899,7.9899,7.9899,7.9899,7.9899,7.9685,7.9328,7.865,7.7865,7.708,7.6224,7.5688,7.5367,7.5225,7.5225,7.5225,7.5225,7.5332,7.5367,7.5477,7.5513,7.555,7.5762,7.6005,7.6106,7.6208,7.6242,7.6275,7.6239,7.6203,7.613,7.591,7.4968,7.4345,7.4038,7.3401,7.2492,7.2292,7.261,7.2918,7.3162,7.3294,7.3346,7.3372,7.3372,7.3372,7.3372,7.3372,7.3372,7.3372,7.3372,6.1428,6.2392,6.3658,6.4427,6.4912,6.5336,6.5244,6.4831,6.4487,6.4132,6.3734,6.3579,6.4942,6.729,6.861,6.9847,7.1278,7.1312,7.1312,7.1312,7.1267,7.1176,7.1007,7.0983,7.1048,7.1339,7.2632,7.3413,7.4322,7.5581,7.6405,7.5942,7.5962,7.5731,7.5524,7.5706,7.612,7.6499,7.6913,7.7244,7.749,7.7579,7.7841,7.8127,7.8454,7.8743,7.9064,7.9797,8.0106,8.0167,8.0931,8.1362,8.1434,8.1719,8.1969,8.1898,8.1791,8.1755,8.1362,8.1041,8.072,8.0649,8.0435,7.9899,7.9899,7.9899,7.9899,7.9899,7.9899,7.9899,7.9721,7.9114,7.8258,7.7473,7.6759,7.6152,7.5688,7.5617,7.5796,7.6117,7.6081,7.5653,7.5725,7.5728,7.5693,7.5586,7.5727,7.5971,7.6108,7.628,7.6242,7.6275,7.6275,7.6275,7.6275,7.5985,7.5189,7.4606,7.4305,7.3561,7.2485,7.221,7.243,7.2742,7.3044,7.3241,7.332,7.3372,7.3372,7.3372,7.3372,7.3372,7.3372,7.3372,7.3372,6.1325,6.1464,6.2363,6.3267,6.4036,6.5079,6.5157,6.472,6.4438,6.3967,6.3425,6.37,6.5024,6.7194,6.8392,6.9636,7.1267,7.1312,7.1222,7.1222,7.1267,7.1086,7.087,7.0812,7.0834,7.0984,7.215,7.2962,7.3588,7.5073,7.551,7.547,7.5935,7.6021,7.6041,7.6179,7.6568,7.6878,7.7144,7.7223,7.7313,7.7446,7.7667,7.8067,7.8745,7.9219,7.9011,8.0205,8.0876,8.0625,8.1461,8.2112,8.2148,8.2148,8.2219,8.2504,8.1862,8.204,8.229,8.1648,8.1077,8.0863,8.0435,7.9899,7.9899,7.9899,7.9899,7.9899,7.9899,7.9899,7.9685,7.9186,7.8543,7.783,7.7223,7.6723,7.6295,7.6152,7.6402,7.6973,7.6902,7.6438,7.6117,7.6155,7.5978,7.5836,7.6015,7.6262,7.6323,7.6389,7.6278,7.6275,7.6275,7.6275,7.6275,7.5913,7.5478,7.479,7.424,7.3325,7.2221,7.2237,7.2314,7.2602,7.2918,7.3135,7.3294,7.3346,7.3372,7.3372,7.3372,7.3372,7.3372,7.3372,7.3372,6.2013,6.2151,6.3213,6.3864,6.4246,6.5333,6.5663,6.5311,6.4529,6.33,6.2173,6.3164,6.4667,6.641,6.7992,6.9323,7.0657,7.0825,7.0825,7.0825,7.0779,7.0687,7.0549,7.0523,7.055,7.0942,7.1923,7.2723,7.3305,7.4497,7.5008,7.5303,7.5844,7.6268,7.6405,7.6606,7.6903,7.7085,7.7223,7.7223,7.7223,7.7268,7.7446,7.778,7.7928,7.8586,7.8958,8.0011,8.0587,8.1124,8.1818,8.2433,8.279,8.254,8.2754,8.3182,8.2362,8.2362,8.279,8.2005,8.1148,8.0934,8.0399,7.9899,7.9899,7.9899,7.9899,7.9899,7.9899,7.9899,7.9828,7.9614,7.915,7.8329,7.7651,7.7152,7.6973,7.6795,7.7045,7.7651,7.7473,7.7116,7.6866,7.6652,7.6368,7.6156,7.6374,7.6515,7.6579,7.6495,7.6348,7.6275,7.6275,7.6275,7.6275,7.6094,7.5841,7.5044,7.4211,7.3297,7.2382,7.2048,7.2167,7.2459,7.2807,7.3091,7.3315,7.3383,7.3372,7.3372,7.3372,7.3372,7.3372,7.3372,7.3372,6.2733,6.2903,6.405,6.459,6.4761,6.5601,6.5902,6.5636,6.4505,6.2899,6.1251,6.2813,6.4371,6.5924,6.7491,6.9097,7.018,7.0561,7.0515,7.0515,7.0515,7.041,7.027,7.0276,7.0495,7.094,7.1388,7.2067,7.3111,7.3973,7.4388,7.485,7.5566,7.6007,7.6599,7.6953,7.7178,7.7223,7.7223,7.7223,7.7223,7.7223,7.7357,7.7708,7.8177,7.8511,7.9354,8.0386,8.1355,8.1795,8.2357,8.3182,8.3361,8.3432,8.3504,8.3468,8.3182,8.254,8.2504,8.1969,8.1113,8.1006,8.0363,8.0006,7.9899,7.9899,7.9899,7.9899,7.9899,7.9899,7.9899,7.9792,7.94,7.8579,7.7794,7.7294,7.7473,7.7437,7.7865,7.8294,7.8044,7.7865,7.7794,7.7508,7.7048,7.673,7.659,7.6767,7.6835,7.668,7.6348,7.6275,7.6275,7.6275,7.6275,7.613,7.5949,7.5189,7.4356,7.3595,7.2822,7.2351,7.2084,7.2438,7.276,7.3111,7.3373,7.3606,7.3521,7.3372,7.3372,7.3372,7.3372,7.3372,7.3372,6.3336,6.3398,6.4449,6.5022,6.5318,6.5799,6.5846,6.548,6.4447,6.2966,6.1583,6.2785,6.4264,6.5869,6.7412,6.8823,7.0109,7.0423,7.0423,7.0376,7.033,7.0316,7.029,7.0248,7.0519,7.0807,7.1256,7.2018,7.3111,7.3343,7.3675,7.4256,7.4984,7.5628,7.6449,7.6953,7.7178,7.7223,7.7223,7.7223,7.7223,7.7223,7.7357,7.7688,7.8435,7.8685,7.9239,8.1035,8.1895,8.2134,8.3244,8.4003,8.4253,8.4075,8.3896,8.3575,8.2718,8.2219,8.2183,8.147,8.122,8.1148,8.0649,8.0113,7.9971,7.9899,7.9899,7.9899,7.9938,7.9899,7.9899,7.9864,7.9438,7.8972,7.8186,7.7901,7.8079,7.8008,7.8365,7.8829,7.8793,7.865,7.865,7.8474,7.7871,7.7412,7.702,7.6984,7.7196,7.6972,7.6637,7.6275,7.6275,7.6275,7.6275,7.6275,7.5985,7.5225,7.4468,7.374,7.2943,7.2241,7.2182,7.2424,7.2684,7.2954,7.3478,7.393,7.3855,7.377,7.3473,7.3372,7.3372,7.3372,7.3372,6.4663,6.461,6.5323,6.5997,6.6514,6.6505,6.6356,6.5859,6.4513,6.3273,6.2709,6.301,6.4311,6.6,6.7181,6.8533,6.9802,7.0035,7.0035,7.0049,7.0082,7.0035,7.004,7.0339,7.0689,7.1006,7.1355,7.1951,7.3111,7.3011,7.3508,7.4156,7.4688,7.5436,7.6262,7.6725,7.6816,7.7133,7.7223,7.7223,7.7223,7.7223,7.7268,7.7392,7.8014,7.8464,7.892,8.1129,8.2015,8.2401,8.362,8.4146,8.4289,8.4075,8.3539,8.3397,8.279,8.1755,8.1826,8.1612,8.1398,8.1362,8.1113,8.0399,8.0042,7.9935,7.9899,7.9938,8.0015,8.0015,7.9938,8.0054,7.9768,7.9545,7.9043,7.8972,7.8972,7.8615,7.8686,7.9293,7.9507,7.9079,7.8936,7.8936,7.8477,7.8339,7.8024,7.7703,7.7775,7.7408,7.7036,7.6492,7.6275,7.6275,7.6275,7.6275,7.6167,7.5623,7.479,7.3888,7.3124,7.2219,7.2035,7.2174,7.249,7.2831,7.3638,7.4269,7.4275,7.4179,7.3881,7.3484,7.3372,7.3372,7.3372,6.4811,6.4755,6.5189,6.5888,6.6532,6.6482,6.6272,6.5765,6.4552,6.3753,6.3405,6.3562,6.4762,6.6329,6.744,6.8352,6.9732,6.9798,6.9798,6.9798,6.9798,6.9846,6.9997,7.0328,7.0575,7.0891,7.1156,7.172,7.3011,7.2846,7.3276,7.404,7.4539,7.5097,7.5852,7.6309,7.6725,7.6998,7.7088,7.7223,7.7223,7.7223,7.7223,7.7327,7.7648,7.8069,7.9146,8.0351,8.1704,8.2588,8.3431,8.4039,8.4075,8.3932,8.3432,8.3397,8.2504,8.1791,8.2219,8.1969,8.1862,8.2005,8.1505,8.0756,8.0113,7.9935,7.9938,8.0015,8.013,8.0169,8.013,8.0245,8.0173,7.9913,7.9551,7.9482,7.9627,7.9269,7.905,7.9694,7.9941,7.9548,7.9186,7.915,7.901,7.9053,7.9059,7.8706,7.8279,7.7808,7.7326,7.6746,7.6311,7.6275,7.6275,7.6275,7.613,7.5913,7.5008,7.3925,7.3088,7.2183,7.204,7.1933,7.2283,7.287,7.3997,7.4579,7.4964,7.4784,7.4227,7.3855,7.3484,7.3372,7.3372,6.3815,6.3872,6.412,6.4697,6.5371,6.5699,6.5531,6.5048,6.4767,6.4185,6.3504,6.4785,6.5745,6.6672,6.7996,6.9036,6.9666,6.9765,6.9798,6.9798,6.9798,6.9798,6.9898,7.0129,7.0593,7.0593,7.0858,7.1686,7.2912,7.2945,7.331,7.3956,7.4289,7.4837,7.5422,7.5994,7.6461,7.6736,7.7009,7.7088,7.7133,7.7178,7.7178,7.7396,7.7855,7.8404,7.9475,8.0763,8.1977,8.2934,8.3857,8.4349,8.4574,8.461,8.4075,8.3254,8.1969,8.229,8.2826,8.2433,8.229,8.2326,8.1684,8.0827,8.0185,7.9899,7.9977,8.0092,8.0245,8.0358,8.0433,8.0471,8.0471,8.0109,7.9637,7.9782,8.0109,7.9999,7.9743,7.992,8.0097,7.9913,7.9652,7.9543,7.9367,7.9515,7.9488,7.9102,7.8639,7.8025,7.751,7.6818,7.6492,7.6311,7.6275,7.6275,7.5949,7.5659,7.4754,7.3744,7.2943,7.2219,7.191,7.1811,7.2073,7.2871,7.431,7.532,7.604,7.5612,7.4896,7.4004,7.3558,7.341,7.3372,6.3532,6.4254,6.3356,6.391,6.532,6.5679,6.5664,6.5501,6.485,6.4476,6.4829,6.5081,6.6052,6.7301,6.8088,6.8961,6.9486,6.9798,6.9798,6.9798,6.9798,6.9798,7.0096,7.0593,7.0991,7.1057,7.1256,7.1753,7.2945,7.3144,7.3508,7.4188,7.4372,7.4722,7.5164,7.5662,7.6088,7.6507,7.6782,7.6918,7.7009,7.7054,7.7133,7.7385,7.7982,7.8636,7.9623,8.1068,8.2242,8.312,8.4058,8.4569,8.461,8.4574,8.4253,8.3432,8.2576,8.2326,8.304,8.2647,8.2397,8.2647,8.2219,8.1184,8.0399,7.9974,8.0051,8.0169,8.0358,8.0508,8.0582,8.0656,8.0656,8.0402,8.0077,8.0184,8.0437,8.0364,8.0146,8.0105,8.0283,8.0092,7.9867,7.9652,7.9548,7.9801,7.9773,7.9425,7.8999,7.8385,7.7765,7.7074,7.6529,7.6311,7.6275,7.6275,7.5804,7.5297,7.4464,7.3635,7.2871,7.2219,7.1775,7.19,7.2485,7.356,7.4892,7.5819,7.6672,7.6317,7.5564,7.4524,7.3707,7.3521,7.341,6.2978,6.395,6.2392,6.2825,6.447,6.5347,6.5647,6.5537,6.505,6.5017,6.5357,6.5907,6.6634,6.746,6.8451,6.9225,6.9765,6.9798,6.9798,6.9798,6.9798,6.9798,7.0229,7.0659,7.0858,7.1057,7.1421,7.1885,7.3011,7.374,7.4221,7.4221,7.4473,7.4722,7.5067,7.5373,7.5757,7.6135,7.6461,7.6691,7.6873,7.6964,7.7054,7.7385,7.8051,7.8775,7.9637,8.118,8.2313,8.32,8.4074,8.4569,8.461,8.4574,8.4538,8.3789,8.3182,8.2968,8.3254,8.3004,8.2861,8.2754,8.254,8.1648,8.0795,8.0263,8.0238,8.032,8.0508,8.0656,8.0767,8.0803,8.0803,8.0767,8.0657,8.062,8.0656,8.0656,8.0546,8.0435,8.032,8.013,7.9944,7.9765,7.9589,7.9522,7.9601,7.9536,7.9215,7.8781,7.8091,7.7398,7.6782,7.6275,7.6275,7.6239,7.5804,7.5225,7.4428,7.3631,7.2834,7.2183,7.1671,7.2232,7.3078,7.4122,7.5124,7.6322,7.7123,7.6699,7.627,7.5378,7.4413,7.3632,7.3521,6.2087,6.3487,6.1682,6.2174,6.3491,6.4906,6.5425,6.5425,6.5359,6.5324,6.5552,6.6845,6.744,6.7889,6.8928,6.9552,6.9798,6.9798,6.9798,6.9798,6.9798,6.9798,6.9798,6.9931,7.0626,7.0858,7.1256,7.2018,7.3011,7.374,7.4221,7.4221,7.4523,7.4771,7.5018,7.5325,7.558,7.5818,7.6182,7.6461,7.6691,7.6793,7.6953,7.7454,7.8154,7.8959,7.9833,8.1071,8.2436,8.3269,8.3904,8.4445,8.461,8.461,8.4538,8.4289,8.3646,8.3539,8.3504,8.3361,8.3075,8.279,8.2326,8.1973,8.1445,8.0483,8.0278,8.0396,8.0582,8.0767,8.0912,8.0948,8.0948,8.0948,8.0876,8.0876,8.0876,8.084,8.0693,8.0582,8.0396,8.0207,7.9941,7.9724,7.9732,7.9417,7.9497,7.9719,7.9432,7.9105,7.8524,7.7796,7.7181,7.6601,7.6275,7.6167,7.5841,7.5225,7.4464,7.3631,7.2834,7.2183,7.1567,7.235,7.3239,7.417,7.5165,7.639,7.7245,7.7236,7.6782,7.6233,7.5304,7.4227,7.3372,6.0565,6.228,6.3325,6.4014,6.4418,6.5105,6.5425,6.5425,6.5425,6.5712,6.6295,6.7168,6.7897,6.8413,6.9287,6.9798,6.9798,6.9798,6.9798,6.9798,6.9798,6.9798,6.9898,7.0196,7.0659,7.1024,7.1488,7.2283,7.3144,7.3807,7.4221,7.4272,7.4573,7.4919,7.5018,7.5325,7.558,7.5676,7.5852,7.6228,7.6587,7.6885,7.7125,7.8051,7.8946,7.9683,8.0593,8.1722,8.2591,8.3297,8.3733,8.42,8.4569,8.4569,8.461,8.4467,8.3932,8.3825,8.3789,8.3682,8.3397,8.3539,8.333,8.2803,8.2024,8.0885,8.0354,8.0544,8.0693,8.0876,8.1057,8.1056,8.1056,8.1093,8.1057,8.1093,8.1092,8.0948,8.084,8.0656,8.0471,8.0209,7.9944,7.987,7.9804,7.992,8.0107,8.0187,7.9757,7.9394,7.8922,7.8267,7.7688,7.7144,7.6601,7.6203,7.5949,7.537,7.4645,7.3776,7.2871,7.2146,7.1603,7.2436,7.3325,7.4264,7.5243,7.6442,7.7112,7.7353,7.7311,7.679,7.5973,7.4933,7.377,6.0438,6.246,6.4376,6.4927,6.4706,6.5172,6.5425,6.5425,6.5425,6.6022,6.6949,6.7433,6.7916,6.8644,6.942,6.9798,6.9798,6.9798,6.9798,6.9798,6.9798,6.9798,7.003,7.0295,7.0891,7.1322,7.2448,7.3276,7.3575,7.384,7.4221,7.4272,7.4722,7.5018,7.5067,7.5422,7.5676,7.5676,7.5676,7.5994,7.6449,7.6748,7.7342,7.8372,7.9394,8.0166,8.1157,8.2091,8.2666,8.3129,8.3568,8.3947,8.432,8.4486,8.4569,8.4503,8.4253,8.3967,8.3967,8.3825,8.3539,8.3575,8.3482,8.2636,8.1998,8.1002,8.0869,8.0982,8.0876,8.1057,8.1093,8.1056,8.1092,8.1056,8.1056,8.1056,8.1092,8.1021,8.084,8.0582,8.0433,8.0283,8.0056,8.0018,7.9916,7.9748,8.0041,7.9936,7.9648,7.9429,7.9065,7.8557,7.7833,7.7181,7.6492,7.6239,7.613,7.5515,7.483,7.3957,7.3088,7.2146,7.1748,7.2726,7.3555,7.4329,7.5384,7.6544,7.7249,7.7599,7.7561,7.7385,7.6493,7.5564,7.445,6.0918,6.328,6.501,6.5315,6.4708,6.516,6.5425,6.5425,6.5381,6.6208,6.74,6.7486,6.7889,6.8649,6.9339,6.9618,6.9798,6.9798,6.9798,6.9798,6.9798,6.9798,6.9798,6.9931,7.0759,7.1885,7.3045,7.3641,7.4089,7.4038,7.3989,7.4256,7.4622,7.5018,7.5164,7.5422,7.5709,7.5805,7.5852,7.6041,7.6309,7.6609,7.7548,7.8566,7.9574,8.0463,8.1454,8.2182,8.2736,8.304,8.3437,8.374,8.4074,8.432,8.4527,8.4497,8.4538,8.4182,8.3896,8.3825,8.3361,8.3009,8.2815,8.2574,8.2042,8.1731,8.1631,8.1526,8.1455,8.1274,8.1309,8.1273,8.1273,8.1201,8.1201,8.1128,8.1092,8.1056,8.084,8.0545,8.0396,8.0283,8.0169,8.0092,7.9958,7.9679,7.9504,7.9251,7.9068,7.8958,7.8703,7.8195,7.7543,7.6927,7.6384,7.6275,7.6203,7.5913,7.5261,7.4247,7.3378,7.2834,7.2653,7.316,7.3986,7.47,7.5539,7.6622,7.7218,7.7666,7.7866,7.7719,7.6939,7.601,7.5044,6.1053,6.36,6.4939,6.5371,6.5227,6.5359,6.5425,6.5381,6.5234,6.606,6.7222,6.7526,6.8074,6.9519,6.9618,6.9798,6.9798,6.9798,6.9798,6.9798,6.9798,6.9798,6.9898,7.0129,7.0792,7.1852,7.2978,7.3541,7.384,7.3575,7.3608,7.4122,7.4722,7.5067,7.5277,7.5566,7.5805,7.5899,7.6041,7.6216,7.6402,7.6873,7.7846,7.8877,7.9987,8.105,8.1941,8.2394,8.2635,8.2906,8.3227,8.3611,8.3904,8.4194,8.4403,8.4569,8.461,8.4503,8.4217,8.4039,8.3646,8.3758,8.3705,8.3764,8.3271,8.2818,8.2717,8.2721,8.2541,8.207,8.1998,8.1961,8.1925,8.1635,8.1527,8.1237,8.1092,8.1021,8.0912,8.0656,8.0471,8.0245,7.9977,7.9908,7.9773,7.9604,7.9393,7.9107,7.827,7.8269,7.834,7.776,7.7181,7.6855,7.642,7.6311,7.6239,7.6022,7.5659,7.4718,7.4066,7.3812,7.378,7.4066,7.45,7.5182,7.6021,7.671,7.7065,7.7547,7.8023,7.7979,7.7273,7.6419,7.5416]}]]